[[{"header":{"parameterUnit":"m.s-1","parameterCategory":1,"la1":31.0,"la2":29.5877,"lo1":-88.7671,"lo2":-86.6584,"dy":0.0162,"dx":0.0185,"nx":115,"ny":88,"refTime":"2024-03-15T00:00:00:Z","depth":0,"parameterNumber":2,"parameterNumberName":"U-component_of_WINDS"},"data":[0.0,0.0,0.0,0.0,0.0,0.0,0.0,0.0,0.0,0.0,0.0,0.0,0.0,0.0,0.0,0.0,0.0,0.0,0.0,0.0,0.0,0.0,0.0,0.0,0.0,0.0,0.0,0.0,0.0,0.0,0.0,0.0,0.0,0.0,0.0,0.0,0.0,0.0,0.0,0.0,0.0,0.0,0.0,0.0,0.0,0.0,0.0,0.0,0.0,0.0,0.0,0.0,0.0,0.0,0.0,0.0,0.0,0.0,0.0,0.0,0.0,0.0,0.0,0.0,0.0,0.0,0.0,0.0,0.0,0.0,0.0,0.0,0.0,0.0,0.0,0.0,0.0,0.0,0.0,0.0,0.0,0.0,0.0,0.0,0.0,0.0,0.0,0.0,0.0,0.0,0.0,0.0,0.0,0.0,0.0,0.0,0.0,0.0,0.0,0.0,0.0,0.0,0.0,0.0,0.0,0.0,0.0,0.0,0.0,0.0,0.0,0.0,0.0,0.0,0.0,0.0,0.0,0.0,0.0,0.0,0.0,0.0,0.0,0.0,0.0,0.0,0.0,0.0,0.0,0.0,0.0,0.0,0.0,0.0,0.0,0.0,0.0,0.0,0.0,0.0,0.0,0.0,0.0,0.0,0.0,0.0,0.0,0.0,0.0,0.0,0.0,0.0,0.0,0.0,0.0,0.0,0.0,0.0,0.0,0.0,0.0,0.0,0.0,0.0,0.0,0.0,0.0,0.0,0.0,0.0,0.0,0.0,0.0,0.0,0.0,0.0,0.0,0.0,0.0,0.0,0.0,0.0,0.0,0.0,0.0,0.0,0.0,0.0,0.0,0.0,0.0,0.0,0.0,0.0,0.0,0.0,0.0,0.0,0.0,0.0,0.0,0.0,0.0,0.0,0.0,0.0,0.0,0.0,0.0,0.0,0.0,0.0,0.0,0.0,0.0,0.0,0.0,0.0,0.0,0.0,0.0,0.0,0.0,0.0,0.0,0.0,0.0,0.0,0.0,0.0,0.0,0.0,0.0,0.0,0.0,0.0,0.0,0.0,0.0,0.0,0.0,0.0,0.0,0.0,0.0,0.0,0.0,0.0,0.0,0.0,0.0,0.0,0.0,0.0,0.0,0.0,0.0,0.0,0.0,0.0,0.0,0.0,0.0,0.0,0.0,0.0,0.0,0.0,0.0,0.0,0.0,0.0,0.0,0.0,0.0,0.0,0.0,0.0,0.0,0.0,0.0,0.0,0.0,0.0,0.0,0.0,0.0,0.0,0.0,0.0,0.0,0.0,0.0,0.0,0.0,0.0,0.0,0.0,0.0,0.0,0.0,0.0,0.0,0.0,0.0,0.0,0.0,0.0,0.0,0.0,0.0,0.0,0.0,0.0,0.0,0.0,0.0,0.0,0.0,0.0,0.0,0.0,0.0,0.0,0.0,0.0,0.0,0.0,0.0,0.0,0.0,0.0,0.0,0.0,0.0,0.0,0.0,0.0,0.0,0.0,0.0,0.0,0.0,0.0,0.0,0.0,0.0,0.0,0.0,0.0,0.0,0.0,0.0,0.0,0.0,0.0,0.0,0.0,0.0,0.0,0.0,0.0,0.0,0.0,0.0,0.0,0.0,0.0,0.0,0.0,0.0,0.0,0.0,0.0,0.0,0.0,0.0,0.0,0.0,0.0,0.0,0.0,0.0,0.0,0.0,0.0,0.0,0.0,0.0,0.0,0.0,0.0,0.0,0.0,0.0,0.0,0.0,0.0,0.0,0.0,0.0,0.0,0.0,0.0,0.0,0.0,0.0,0.0,0.0,0.0,0.0,0.0,0.0,0.0,0.0,0.0,0.0,0.0,0.0,0.0,0.0,0.0,0.0,0.0,0.0,0.0,0.0,0.0,0.0,0.0,0.0,0.0,0.0,0.0,0.0,0.0,0.0,0.0,0.0,0.0,0.0,0.0,0.0,0.0,0.0,0.0,0.0,0.0,0.0,0.0,0.0,0.0,0.0,0.0,0.0,0.0,0.0,0.0,0.0,0.0,0.0,0.0,0.0,0.0,0.0,0.0,0.0,0.0,0.0,0.0,0.0,0.0,0.0,0.0,0.0,0.0,0.0,0.0,0.0,0.0,0.0,0.0,0.0,0.0,0.0,0.0,0.0,0.0,0.0,0.0,0.0,0.0,0.0,0.0,0.0,0.0,0.0,0.0,0.0,0.0,0.0,0.0,0.0,0.0,0.0,0.0,0.0,0.0,0.0,0.0,0.0,0.0,0.0,0.0,0.0,0.0,0.0,0.0,0.0,0.0,0.0,0.0,0.0,0.0,0.0,0.0,0.0,0.0,0.0,0.0,0.0,0.0,0.0,0.0,0.0,0.0,0.0,0.0,0.0,0.0,0.0,0.0,0.0,0.0,0.0,0.0,0.0,0.0,0.0,0.0,0.0,0.0,0.0,0.0,0.0,0.0,0.0,0.0,0.0,0.0,0.0,0.0,0.0,0.0,0.0,0.0,0.0,0.0,0.0,0.0,0.0,0.0,0.0,0.0,0.0,0.0,0.0,0.0,0.0,0.0,0.0,0.0,0.0,0.0,0.0,0.0,0.0,0.0,0.0,0.0,0.0,0.0,0.0,0.0,0.0,0.0,0.0,0.0,0.0,0.0,0.0,0.0,0.0,0.0,0.0,0.0,0.0,0.0,0.0,0.0,0.0,0.0,0.0,0.0,0.0,0.0,0.0,0.0,0.0,0.0,0.0,0.0,0.0,0.0,0.0,0.0,0.0,0.0,0.0,0.0,0.0,0.0,0.0,0.0,0.0,0.0,0.0,0.0,0.0,0.0,0.0,0.0,0.0,0.0,0.0,0.0,0.0,0.0,0.0,0.0,0.0,0.0,0.0,0.0,0.0,0.0,0.0,0.0,0.0,0.0,0.0,0.0,0.0,0.0,0.0,0.0,0.0,0.0,0.0,0.0,0.0,0.0,0.0,0.0,0.0,0.0,0.0,0.0,0.0,0.0,0.0,0.0,0.0,0.0,0.0,0.0,0.0,0.0,0.0,0.0,0.0,0.0,0.0,0.0,0.0,0.0,0.0,0.0,0.0,0.0,0.0,0.0,0.0,0.0,0.0,0.0,0.0,0.0,0.0,0.0,0.0,0.0,0.0,0.0,0.0,0.0,0.0,0.0,0.0,0.0,0.0,0.0,0.0,0.0,0.0,0.0,0.0,0.0,0.0,0.0,0.0,0.0,0.0,0.0,0.0,0.0,0.0,0.0,0.0,0.0,0.0,0.0,0.0,0.0,0.0,0.0,0.0,0.0,0.0,0.0,0.0,0.0,0.0,0.0,0.0,0.0,0.0,0.0,0.0,0.0,0.0,0.0,0.0,0.0,0.0,0.0,0.0,0.0,0.0,0.0,0.0,0.0,0.0,0.0,0.0,0.0,0.0,0.0,0.0,0.0,0.0,0.0,0.0,0.0,0.0,0.0,0.0,0.0,0.0,0.0,0.0,0.0,0.0,0.0,0.0,0.0,0.0,0.0,0.0,0.0,0.0,0.0,0.0,0.0,0.0,0.0,0.0,0.0,0.0,0.0,0.0,0.0,0.0,0.0,0.0,0.0,0.0,0.0,0.0,0.0,0.0,0.0,0.0,0.0,0.0,0.0,0.0,0.0,0.0,0.0,0.0,0.0,0.0,0.0,0.0,0.0,0.0,0.0,0.0,0.0,0.0,0.0,0.0,0.0,0.0,0.0,0.0,0.0,0.0,0.0,0.0,0.0,0.0,0.0,0.0,0.0,0.0,0.0,0.0,0.0,0.0,0.0,0.0,0.0,0.0,0.0,0.0,0.0,0.0,0.0,0.0,0.0,0.0,0.0,0.0,0.0,0.0,0.0,0.0,0.0,0.0,0.0,0.0,0.0,0.0,0.0,0.0,0.0,0.0,0.0,0.0,0.0,0.0,0.0,0.0,0.0,0.0,0.0,0.0,0.0,0.0,0.0,0.0,0.0,0.0,0.0,0.0,0.0,0.0,0.0,0.0,0.0,0.0,0.0,0.0,0.0,0.0,0.0,0.0,0.0,0.0,0.0,0.0,0.0,0.0,0.0,0.0,0.0,0.0,0.0,0.0,0.0,0.0,0.0,0.0,0.0,0.0,0.0,0.0,0.0,0.0,0.0,0.0,0.0,0.0,0.0,0.0,0.0,0.0,0.0,0.0,0.0,0.0,0.0,0.0,0.0,0.0,0.0,0.0,0.0,0.0,0.0,0.0,0.0,0.0,0.0,0.4868,0.0,0.0,0.0,0.0,0.0,0.0,0.0,0.0,0.0,0.0,0.0,0.0,0.0,0.0,0.0,0.0,0.0,0.0,0.0,0.0,0.0,0.0,0.0,0.0,0.0,0.0,0.0,0.0,0.0,0.0,0.0,0.0,0.0,0.0,0.0,0.0,0.0,0.0,0.0,0.0,0.0,0.0,0.0,0.0,0.0,0.0,0.0,0.0,0.0,0.0,0.0,0.0,0.0,0.0,0.0,0.0,0.0,0.0,0.0,0.0,0.0,0.0,0.0,0.0,0.0,0.0,0.0,0.0,0.0,0.0,0.0,0.0,0.0,0.0,0.0,0.0,0.0,0.0,0.0,0.0,0.0,0.0,0.0,0.0,0.0,0.0,0.0,0.0,0.0,0.0,0.0,0.0,0.0,0.0,0.0,0.0,0.0,0.0,0.0,0.0,0.0,0.0,0.0,0.0,0.0,0.0,0.0,0.0,0.0,0.0,0.4157,0.3735,0.5195,0.5532,0.4549,0.0,0.0,0.0,0.0,0.0,0.0,0.0,0.0,0.0,0.0,0.0,0.0,0.0,0.0,0.0,0.0,0.0,0.0,0.0,0.0,0.0,0.0,0.0,0.0,0.0,0.0,0.0,0.0,0.0,0.0,0.0,0.0,0.0,0.0,0.0,0.0,0.0,0.0,0.0,0.0,0.0,0.0,0.0,0.0,0.0,0.0,0.0,0.0,0.0,0.0,0.0,0.0,0.0,0.0,0.0,0.0,0.0,0.0,0.0,0.0,0.0,0.0,0.0,0.0,0.0,0.0,0.0,0.0,0.0,0.0,0.0,0.0,0.0,0.0,0.0,0.0,0.0,0.0,0.0,0.0,0.0,0.0,0.0,0.0,0.0,0.0,0.0,0.0,0.0,0.0,0.0,0.0,0.0,0.0,0.0,0.0,0.0,0.0,0.0,0.0,0.0,0.0,0.0,0.0,0.0,0.0,0.0,0.0,0.0,0.0,0.0,0.0,0.3111,0.4151,0.4465,0.0,0.0,0.0,0.0,0.0,0.0,0.0,0.0,0.0,0.0,0.0,0.0,0.0,0.0,0.0,0.0,0.0,0.0,0.0,0.0,0.0,0.0,0.0,0.0,0.0,0.0,0.0,0.0,0.0,0.0,0.0,0.0,0.0,0.0,0.0,0.0,0.0,0.0,0.0,0.0,0.0,0.0,0.0,0.0,0.0,0.0,0.0,0.0,0.0,0.0,0.0,0.0,0.0,0.0,0.0,0.0,0.0,0.0,0.0,0.0,0.0,0.0,0.0,0.0,0.0,0.0,0.0,0.0,0.0,0.0,0.0,0.0,0.0,0.0,0.0,0.0,0.0,0.0,0.0,0.0,0.0,0.0,0.0,0.0,0.0,0.0,0.0,0.0,0.0,0.0,0.0,0.0,0.0,0.0,0.0,0.0,0.0,0.0,0.0,0.0,0.0,0.0,0.0,0.0,0.0,0.0,0.0,0.0,0.0,0.0,-0.0,-0.0439,0.0131,0.0,0.4284,0.0,0.0,0.0,0.0,0.0,0.0,0.0,0.0,0.0,0.0,0.0,0.0,0.0,0.0,0.0,0.0,0.0,0.0,0.0,0.0,0.0,0.0,0.0,0.0,0.0,0.0,0.0,0.0,0.0,0.0,0.0,0.0,0.0,0.0,0.0,0.0,0.0,0.0,0.0,0.0,0.0,0.0,0.0,0.0,0.0,0.0,0.0,0.0,0.0,0.0,0.0,0.0,0.0,0.0,0.0,0.0,0.0,0.0,0.0,0.0,0.0,0.0,0.0,0.0,0.0,0.0,0.0,0.0,0.0,0.0,0.0,0.0,0.0,0.0,0.0,0.0,0.0,0.0,0.0,0.0,0.0,0.0,0.0,0.0,0.0,0.0,0.0,0.0,0.0,0.0,0.0,0.0,0.0,0.0,0.0,0.0,0.0,0.0,0.0,0.0,0.0,0.0,0.0,0.0,0.0,0.0,0.0,0.0,0.0,0.0,-0.6303,-0.843,-0.5917,-0.2621,0.0,0.0,0.0,0.0,0.0,0.0,0.0,0.0,0.0,0.0,0.0,0.0,0.0,0.0,0.0,0.0,0.0,0.0,0.0,0.0,0.0,0.0,0.0,0.0,0.0,0.0,0.0,0.0,0.0,0.0,0.0,0.0,0.0,0.0,0.0,0.0,0.0,0.0,0.0,0.0,0.0,0.0,0.0,0.0,0.0,0.0,0.0,0.0,0.0,0.0,0.0,0.0,0.0,0.0,0.0,0.0,0.0,0.0,0.0,0.0,0.0,0.0,0.0,0.0,0.0,0.0,0.0,0.0,0.0,0.0,0.0,0.0,0.0,0.0,0.0,0.0,0.0,0.0,0.0,0.0,0.0,0.0,0.0,0.0,0.0,0.0,0.0,0.0,0.0,0.0,0.0,0.0,0.0,0.0,0.0,0.0,0.0,0.0,0.0,0.0,0.0,0.0,0.0,0.0,0.0,0.0,0.0,0.0,0.0,0.0,-1.0195,-1.1411,-1.3553,-1.0135,-0.6117,-0.1929,0.0,0.0,0.0,0.0,0.0,0.0,0.0,0.0,0.0,0.0,0.0,0.0,0.0,0.0,0.0,0.0,0.0,0.0,0.0,0.0,0.0,0.0,0.0,0.0,0.0,0.0,0.0,0.0,0.0,0.0,0.0,0.0,0.0,0.0,0.0,0.0,0.0,0.0,0.0,0.0,0.0,0.0,0.0,0.0,0.0,0.0,0.0,0.0,0.0,0.0,0.0,0.0,0.0,0.0,0.0,0.0,0.0,0.0,0.0,0.0,0.0,0.0,0.0,0.0,0.0,0.0,0.0,0.0,0.0,0.0,0.0,0.0,0.0,0.0,0.0,0.0,0.0,0.0,0.0,0.0,0.0,0.0,0.0,0.0,0.0,0.0,0.0,0.0,0.0,0.0,0.0,0.0,0.0,0.0,0.0,0.0,0.0,0.0,0.0,0.0,0.0,0.0,0.0,0.0,0.0,0.0,0.0,0.0,-1.3553,-1.3383,-1.3512,-1.4321,-1.09,-0.7741,0.0,0.0,0.0,0.0,0.0,0.0,0.0,0.0,0.0,0.0,0.0,0.0,0.0,0.0,0.0,0.0,0.0,0.0,0.0,0.0,0.0,0.0,0.0,0.0,0.0,0.0,0.0,0.0,0.0,0.0,0.0,0.0,0.0,0.0,0.0,0.0,0.0,0.0,0.0,0.0,0.0,0.0,0.0,0.0,0.0,0.0,0.0,0.0,0.0,0.0,0.0,0.0,0.0,0.0,0.0,0.0,0.0,0.0,0.0,0.0,0.0,0.0,0.0,0.0,0.0,0.0,0.0,0.0,0.0,0.0,0.0,0.0,0.0,0.0,0.0,0.0,0.0,0.0,0.0,0.0,0.0,0.0,0.0,0.0,0.0,0.0,0.0,0.0,0.0,0.0,0.0,0.0,0.0,0.0,0.0,0.0,0.0,0.0,0.0,0.0,0.0,0.0,0.0,0.0,0.0,0.0,0.0,0.0,0.0,-1.4435,-1.7718,-1.9052,-1.8156,-1.5723,-1.2623,0.0,0.0,0.0,0.0,0.0,0.0,0.0,0.0,0.0,0.0,0.0,0.0,0.0,0.0,0.0,0.0,0.0,0.0,0.0,0.0,0.0,0.0,0.0,0.0,0.0,0.0,0.0,0.0,0.0,0.0,0.0,0.0,0.0,0.0,0.0,0.0,0.0,0.0,0.0,0.0,0.0,0.0,0.0,0.0,0.0,0.0,0.0,0.0,0.0,0.0,0.0,0.0,0.0,0.0,0.0,0.0,0.0,0.0,0.0,0.0,0.0,0.0,0.0,0.0,0.0,0.0,0.0,0.0,0.0,0.0,0.0,0.0,0.0,0.0,0.0,0.0,0.0,0.0,0.0,0.0,0.0,0.0,0.0,0.0,0.0,0.0,0.0,0.0,0.0,0.0,0.0,0.0,0.0,0.0,0.0,0.0,0.0,0.0,0.0,0.0,0.0,0.0,0.0,0.0,0.0,0.0,0.0,0.0,0.0,-1.8727,0.0,-2.5047,-2.2674,-2.0152,-1.6508,0.0,0.0,0.0,0.0,0.0,0.0,0.0,0.0,0.0,0.0,0.0,0.0,0.0,0.0,0.0,0.0,0.0,0.0,0.0,0.0,0.0,0.0,0.0,0.0,0.0,0.0,0.0,0.0,0.0,0.0,0.0,0.0,0.0,0.0,0.0,0.0,0.0,0.0,0.0,0.0,0.0,0.0,0.0,0.0,0.0,0.0,0.0,0.0,0.0,0.0,0.0,0.0,0.0,0.0,0.0,0.0,0.0,0.0,0.0,0.0,0.0,0.0,0.0,0.0,0.0,0.0,0.0,0.0,0.0,0.0,0.0,0.0,0.0,0.0,0.0,0.0,0.0,0.0,0.0,0.0,0.0,0.0,0.0,0.0,0.0,0.0,0.0,0.0,0.0,0.0,0.0,0.0,0.0,0.0,0.0,0.0,0.0,0.0,0.0,0.0,0.0,0.0,0.0,0.0,0.0,0.0,0.0,0.0,-2.0382,-2.68,-3.0658,-3.08,-2.7408,-2.3749,-1.9155,0.0,0.0,0.0,0.0,0.0,0.0,0.0,0.0,0.0,0.0,0.0,0.0,0.0,0.0,0.0,0.0,0.0,0.0,0.0,0.0,0.0,0.0,0.0,0.0,0.0,0.0,0.0,0.0,0.0,0.0,0.0,0.0,0.0,0.0,0.0,0.0,0.0,0.0,0.0,0.0,0.0,0.0,0.0,0.0,0.0,0.0,0.0,0.0,0.0,0.0,0.0,0.0,0.0,0.0,0.0,0.0,0.0,0.0,0.0,0.0,0.0,0.0,0.0,0.0,0.0,0.0,0.0,0.0,0.0,0.0,0.0,0.0,0.0,0.0,0.0,0.0,0.0,0.0,0.0,0.0,0.0,0.0,0.0,0.0,0.0,0.0,0.0,0.0,0.0,0.0,0.0,0.0,0.0,0.0,0.0,0.0,0.0,0.0,0.0,0.0,0.0,0.0,0.0,0.0,0.0,0.0,0.0,0.0,0.0,-2.8288,-3.135,-3.2371,-3.1008,-2.621,-2.2374,0.0,0.0,0.0,0.0,0.0,0.0,0.0,0.0,0.0,0.0,0.0,0.0,0.0,0.0,0.0,0.0,0.0,0.0,0.0,0.0,0.0,0.0,0.0,0.0,0.0,0.0,0.0,0.0,0.0,0.0,0.0,0.0,0.0,0.0,0.0,0.0,0.0,0.0,0.0,0.0,0.0,0.0,0.0,0.0,0.0,0.0,0.0,0.0,0.0,0.0,0.0,0.0,0.0,0.0,0.0,0.0,0.0,0.0,0.0,0.0,0.0,0.0,0.0,0.0,0.0,0.0,0.0,0.0,0.0,0.0,0.0,0.0,0.0,0.0,0.0,0.0,0.0,0.0,0.0,0.0,0.0,0.0,0.0,0.0,0.0,0.0,0.0,0.0,0.0,0.0,0.0,0.0,0.0,0.0,0.0,0.0,0.0,0.0,0.0,0.0,0.0,0.0,0.0,0.0,0.0,0.0,0.0,0.0,0.0,-3.1305,-3.3771,-3.442,-3.2893,-2.8871,-2.5116,-2.166,0.0,0.0,0.0,0.0,0.0,0.0,0.0,0.0,0.0,0.0,0.0,0.0,0.0,0.0,0.0,0.0,0.0,0.0,0.0,0.0,0.0,0.0,0.0,0.0,0.0,0.0,0.0,0.0,0.0,0.0,0.0,0.0,0.0,0.0,0.0,0.0,0.0,0.0,0.0,0.0,0.0,0.0,0.0,0.0,0.0,0.0,0.0,0.0,0.0,0.0,0.0,0.0,0.0,0.0,0.0,0.0,0.0,0.0,0.0,0.0,0.0,0.0,0.0,0.0,0.0,0.0,0.0,0.0,0.0,0.0,0.0,0.0,0.0,0.0,0.0,0.0,0.0,0.0,0.0,0.0,0.0,0.0,0.0,0.0,0.0,0.0,0.0,0.0,0.0,0.0,0.0,0.0,0.0,0.0,0.0,0.0,0.0,0.0,0.0,0.0,0.0,0.0,0.0,0.0,0.0,0.0,0.0,0.0,-3.5119,-3.7544,-3.704,-3.3423,-3.1556,-2.7392,0.0,0.0,0.0,0.0,0.0,0.0,0.0,0.0,0.0,0.0,0.0,0.0,0.0,0.0,0.0,0.0,0.0,0.0,0.0,0.0,0.0,0.0,0.0,0.0,0.0,0.0,0.0,0.0,0.0,0.0,0.0,0.0,0.0,0.0,0.0,0.0,0.0,0.0,0.0,0.0,0.0,0.0,0.0,0.0,0.0,0.0,0.0,0.0,0.0,0.0,0.0,0.0,0.0,0.0,0.0,0.0,0.0,0.0,0.0,0.0,0.0,0.0,0.0,0.0,0.0,0.0,0.0,0.0,0.0,0.0,0.0,0.0,0.0,0.0,0.0,0.0,0.0,0.0,0.0,0.0,0.0,0.0,0.0,0.0,0.0,0.0,0.0,0.0,0.0,0.0,0.0,0.0,0.0,0.0,0.0,0.0,0.0,0.0,0.0,0.0,0.0,0.0,0.0,0.0,0.0,0.0,0.0,0.0,0.0,-3.5718,-3.7877,-3.8162,-3.6309,-3.2659,-2.915,0.0,0.0,0.0,0.0,0.0,0.0,0.0,0.0,0.0,0.0,0.0,0.0,0.0,0.0,0.0,0.0,0.0,0.0,0.0,0.0,0.0,0.0,0.0,0.0,0.0,0.0,0.0,0.0,0.0,0.0,0.0,0.0,0.0,0.0,0.0,0.0,0.0,0.0,0.0,0.0,0.0,0.0,0.0,0.0,0.0,0.0,0.0,0.0,0.0,0.0,0.0,0.0,0.0,0.0,0.0,0.0,0.0,0.0,0.0,0.0,0.0,0.0,0.0,0.0,0.0,0.0,0.0,0.0,0.0,0.0,0.0,0.0,0.0,0.0,0.0,0.0,0.0,0.0,0.0,0.0,0.0,0.0,0.0,0.0,0.0,0.0,0.0,0.0,0.0,0.0,0.0,0.0,0.0,0.0,0.0,0.0,0.0,0.0,0.0,0.0,0.0,0.0,0.0,0.0,0.0,0.0,0.0,0.0,-3.4419,-3.6365,-3.8153,-3.8566,-3.7417,-3.4322,-3.08,0.0,0.0,0.0,0.0,0.0,0.0,0.0,0.0,0.0,0.0,0.0,0.0,0.0,0.0,0.0,0.0,0.0,0.0,0.0,0.0,0.0,0.0,0.0,0.0,0.0,0.0,0.0,0.0,0.0,0.0,0.0,0.0,0.0,0.0,0.0,0.0,0.0,0.0,0.0,0.0,0.0,0.0,0.0,0.0,0.0,0.0,0.0,0.0,0.0,0.0,0.0,0.0,0.0,0.0,0.0,0.0,0.0,0.0,0.0,0.0,0.0,0.0,0.0,0.0,0.0,0.0,0.0,0.0,0.0,0.0,0.0,0.0,0.0,0.0,0.0,0.0,0.0,0.0,0.0,0.0,0.0,0.0,0.0,0.0,0.0,0.0,0.0,0.0,0.0,0.0,0.0,0.0,0.0,0.0,0.0,0.0,0.0,0.0,0.0,0.0,0.0,0.0,0.0,0.0,0.0,0.0,0.0,0.0,-3.417,-3.6895,-3.8271,-3.8365,-3.7106,-3.5855,-3.2215,0.0,0.0,0.0,0.0,0.0,0.0,0.0,0.0,0.0,0.0,0.0,0.0,0.0,0.0,0.0,0.0,0.0,0.0,0.0,0.0,0.0,0.0,0.0,0.0,0.0,0.0,0.0,0.0,0.0,0.0,0.0,0.0,0.0,0.0,0.0,0.0,0.0,0.0,0.0,0.0,0.0,0.0,0.0,0.0,0.0,0.0,0.0,0.0,0.0,0.0,0.0,0.0,0.0,0.0,0.0,0.0,0.0,0.0,0.0,0.0,0.0,0.0,0.0,0.0,0.0,0.0,0.0,0.0,0.0,0.0,0.0,0.0,0.0,0.0,0.0,0.0,0.0,0.0,0.0,0.0,0.0,0.0,0.0,0.0,0.0,0.0,0.0,0.0,0.0,0.0,0.0,0.0,0.0,0.0,0.0,0.0,0.0,0.0,0.0,0.0,0.0,0.0,0.0,0.0,0.0,0.0,0.0,0.0,-3.4506,-3.6125,-3.7474,-3.7521,-3.6217,-3.5104,-3.2227,0.0,0.0,0.0,0.0,0.0,0.0,0.0,0.0,0.0,0.0,0.0,0.0,0.0,0.0,0.0,0.0,0.0,0.0,0.0,0.0,0.0,0.0,0.0,0.0,0.0,0.0,0.0,0.0,0.0,0.0,0.0,0.0,0.0,0.0,0.0,0.0,0.0,0.0,0.0,0.0,0.0,0.0,0.0,0.0,0.0,0.0,0.0,0.0,-3.6231,0.0,0.0,0.0,0.0,0.0,0.0,0.0,0.0,0.0,0.0,0.0,0.0,0.0,0.0,0.0,0.0,0.0,0.0,0.0,0.0,0.0,0.0,0.0,0.0,0.0,0.0,0.0,0.0,0.0,0.0,0.0,0.0,0.0,0.0,0.0,0.0,0.0,0.0,0.0,0.0,0.0,0.0,0.0,0.0,0.0,0.0,0.0,0.0,0.0,0.0,0.0,0.0,0.0,0.0,0.0,0.0,0.0,0.0,0.0,-3.4783,-3.5903,-3.6963,-3.6998,-3.5952,-3.5363,-3.2781,0.0,0.0,0.0,0.0,0.0,0.0,0.0,0.0,0.0,0.0,0.0,0.0,0.0,0.0,0.0,0.0,0.0,0.0,0.0,0.0,0.0,0.0,0.0,0.0,0.0,0.0,0.0,0.0,0.0,0.0,0.0,0.0,0.0,0.0,0.0,0.0,0.0,0.0,0.0,0.0,0.0,0.0,0.0,0.0,0.0,0.0,0.0,0.0,0.0,0.0,0.0,0.0,0.0,0.0,0.0,0.0,0.0,0.0,0.0,0.0,0.0,0.0,0.0,0.0,0.0,0.0,0.0,0.0,0.0,0.0,0.0,0.0,0.0,0.0,0.0,0.0,0.0,0.0,0.0,0.0,0.0,0.0,0.0,0.0,0.0,0.0,0.0,0.0,0.0,0.0,0.0,0.0,0.0,0.0,0.0,0.0,0.0,0.0,0.0,0.0,0.0,0.0,0.0,0.0,0.0,0.0,0.0,-3.3997,-3.4751,-3.5698,-3.65,-3.6507,-3.5562,-3.5615,-3.3162,-2.7894,0.0,0.0,0.0,0.0,0.0,0.0,0.0,0.0,0.0,0.0,0.0,0.0,0.0,0.0,0.0,0.0,0.0,0.0,0.0,0.0,0.0,0.0,0.0,0.0,0.0,0.0,0.0,0.0,0.0,0.0,0.0,0.0,0.0,0.0,0.0,0.0,0.0,0.0,-3.3048,-3.8164,0.0,0.0,0.0,0.0,0.0,0.0,0.0,0.0,-3.8187,0.0,0.0,0.0,0.0,0.0,0.0,0.0,0.0,0.0,0.0,0.0,0.0,0.0,0.0,0.0,0.0,0.0,0.0,0.0,0.0,0.0,0.0,0.0,0.0,0.0,0.0,0.0,0.0,0.0,0.0,0.0,0.0,0.0,0.0,0.0,0.0,0.0,0.0,0.0,0.0,0.0,0.0,0.0,0.0,0.0,0.0,0.0,0.0,0.0,0.0,0.0,0.0,0.0,0.0,0.0,0.0,-3.4237,-3.3706,-3.389,-3.4884,-3.5692,-3.5421,-3.4039,-3.404,-3.2014,-2.7842,0.0,0.0,0.0,0.0,0.0,0.0,0.0,0.0,0.0,0.0,0.0,0.0,0.0,0.0,0.0,0.0,0.0,0.0,0.0,0.0,0.0,0.0,0.0,0.0,0.0,0.0,0.0,0.0,0.0,0.0,0.0,0.0,0.0,0.0,0.0,0.0,0.0,0.0,0.0,-4.2693,-4.4734,0.0,0.0,0.0,0.0,0.0,0.0,0.0,0.0,-3.8069,0.0,0.0,0.0,0.0,0.0,0.0,0.0,0.0,0.0,0.0,0.0,0.0,0.0,0.0,0.0,0.0,0.0,0.0,0.0,0.0,0.0,0.0,0.0,0.0,0.0,0.0,0.0,0.0,0.0,0.0,0.0,0.0,0.0,0.0,0.0,0.0,0.0,0.0,0.0,0.0,0.0,0.0,0.0,0.0,0.0,0.0,0.0,0.0,0.0,0.0,0.0,0.0,0.0,0.0,0.0,-3.2928,-3.3005,-3.3295,-3.3998,-3.4661,-3.4352,-3.3048,-3.3455,-3.1927,0.0,0.0,0.0,0.0,0.0,0.0,0.0,0.0,0.0,0.0,0.0,0.0,0.0,0.0,0.0,0.0,0.0,0.0,0.0,0.0,0.0,0.0,0.0,0.0,0.0,0.0,0.0,0.0,0.0,0.0,0.0,0.0,0.0,0.0,0.0,0.0,0.0,0.0,0.0,0.0,-4.348,-4.488,-4.4956,0.0,0.0,0.0,0.0,0.0,0.0,-4.0107,-3.8503,0.0,0.0,0.0,0.0,0.0,0.0,0.0,0.0,0.0,0.0,0.0,0.0,0.0,0.0,0.0,0.0,0.0,0.0,0.0,0.0,0.0,0.0,0.0,0.0,0.0,0.0,0.0,0.0,0.0,0.0,0.0,0.0,0.0,0.0,0.0,0.0,0.0,0.0,0.0,0.0,0.0,0.0,0.0,0.0,0.0,0.0,0.0,0.0,0.0,0.0,0.0,0.0,0.0,0.0,0.0,-3.1757,-3.2227,-3.2666,-3.3167,-3.3499,-3.322,-3.2237,-3.273,-3.1528,0.0,0.0,0.0,0.0,0.0,0.0,0.0,0.0,0.0,0.0,0.0,0.0,0.0,0.0,0.0,0.0,0.0,0.0,0.0,0.0,0.0,0.0,0.0,0.0,0.0,0.0,0.0,0.0,0.0,0.0,0.0,0.0,0.0,0.0,0.0,0.0,0.0,0.0,0.0,0.0,0.0,-4.5307,-4.55,-4.4508,0.0,0.0,0.0,0.0,-4.1432,-4.072,0.0,0.0,0.0,0.0,0.0,0.0,0.0,0.0,0.0,0.0,0.0,0.0,0.0,0.0,0.0,0.0,0.0,0.0,0.0,0.0,0.0,0.0,0.0,0.0,0.0,0.0,0.0,0.0,0.0,0.0,0.0,0.0,0.0,0.0,0.0,0.0,0.0,0.0,0.0,0.0,0.0,0.0,0.0,0.0,0.0,0.0,0.0,0.0,0.0,0.0,0.0,0.0,0.0,0.0,0.0,0.0,-3.169,-3.1645,-3.1809,-3.2317,-3.2173,-3.1868,-3.1437,-3.0893,-2.9644,0.0,0.0,0.0,0.0,0.0,0.0,0.0,0.0,0.0,0.0,0.0,0.0,0.0,0.0,0.0,0.0,0.0,0.0,0.0,0.0,0.0,0.0,0.0,0.0,0.0,0.0,0.0,0.0,0.0,0.0,0.0,0.0,0.0,0.0,0.0,0.0,0.0,0.0,0.0,0.0,0.0,-4.8639,-4.6656,-4.669,-4.5593,0.0,0.0,-4.2858,-4.3954,-4.3905,0.0,0.0,0.0,0.0,0.0,0.0,0.0,0.0,0.0,0.0,0.0,0.0,0.0,0.0,0.0,0.0,0.0,0.0,0.0,0.0,0.0,0.0,0.0,0.0,0.0,0.0,0.0,0.0,0.0,0.0,0.0,0.0,0.0,0.0,0.0,0.0,0.0,0.0,0.0,0.0,0.0,0.0,0.0,0.0,0.0,0.0,0.0,0.0,0.0,0.0,0.0,0.0,0.0,0.0,0.0,-2.8752,-3.0681,-3.0548,-3.0717,-3.1239,-3.0812,-3.0368,-2.9991,-2.9505,-2.8476,0.0,0.0,0.0,0.0,0.0,0.0,0.0,0.0,0.0,0.0,0.0,0.0,0.0,0.0,0.0,0.0,0.0,0.0,0.0,0.0,0.0,0.0,0.0,0.0,0.0,0.0,0.0,0.0,0.0,0.0,0.0,0.0,0.0,0.0,0.0,0.0,0.0,0.0,0.0,0.0,0.0,0.0,-4.6358,-4.6212,0.0,0.0,0.0,-4.3924,-4.6673,0.0,0.0,0.0,0.0,0.0,0.0,0.0,0.0,0.0,0.0,0.0,0.0,0.0,0.0,0.0,0.0,0.0,0.0,0.0,0.0,0.0,0.0,0.0,0.0,0.0,0.0,0.0,0.0,0.0,0.0,0.0,0.0,0.0,0.0,0.0,0.0,0.0,0.0,0.0,0.0,0.0,0.0,0.0,0.0,0.0,0.0,0.0,0.0,0.0,0.0,0.0,0.0,0.0,0.0,0.0,0.0,0.0,-2.9597,-2.9618,-2.9851,-3.0271,-2.9667,-2.9215,-2.8983,-2.8491,0.0,0.0,0.0,0.0,0.0,0.0,0.0,0.0,0.0,0.0,0.0,0.0,0.0,0.0,0.0,0.0,0.0,0.0,0.0,0.0,0.0,0.0,0.0,0.0,0.0,0.0,0.0,-2.5,0.0,0.0,0.0,0.0,0.0,0.0,0.0,0.0,0.0,0.0,0.0,0.0,0.0,0.0,-4.5215,-4.5807,-4.585,-4.5597,0.0,0.0,-4.4509,-4.7427,-4.5388,-4.2726,0.0,0.0,0.0,0.0,0.0,0.0,0.0,0.0,0.0,0.0,0.0,0.0,0.0,0.0,0.0,0.0,0.0,0.0,0.0,0.0,0.0,0.0,0.0,0.0,0.0,0.0,0.0,0.0,0.0,0.0,0.0,0.0,0.0,0.0,0.0,0.0,0.0,0.0,0.0,0.0,0.0,0.0,0.0,0.0,0.0,0.0,0.0,0.0,0.0,0.0,0.0,0.0,0.0,0.0,-2.7689,-2.8574,-2.9139,-2.9431,-2.9467,-2.8839,-2.8667,-2.8947,-2.7954,-2.6758,0.0,0.0,0.0,0.0,0.0,0.0,0.0,0.0,0.0,0.0,0.0,0.0,0.0,0.0,0.0,0.0,0.0,0.0,0.0,0.0,0.0,0.0,0.0,0.0,0.0,0.0,0.0,0.0,0.0,0.0,0.0,0.0,0.0,0.0,0.0,0.0,0.0,0.0,0.0,0.0,0.0,-4.5283,-4.5244,-4.6648,-4.7245,0.0,-4.5022,-4.4631,-4.4868,-4.5794,-4.528,-4.1711,0.0,0.0,0.0,0.0,0.0,0.0,0.0,0.0,0.0,0.0,0.0,0.0,0.0,0.0,0.0,0.0,0.0,0.0,0.0,0.0,0.0,0.0,0.0,0.0,0.0,0.0,0.0,0.0,0.0,0.0,0.0,0.0,0.0,0.0,0.0,0.0,0.0,0.0,0.0,0.0,0.0,0.0,0.0,0.0,0.0,0.0,0.0,0.0,0.0,0.0,0.0,0.0,0.0,-2.7434,-2.8258,-2.8986,-2.9228,-2.879,-2.8324,-2.805,-2.7949,-2.7284,-2.6219,0.0,0.0,0.0,0.0,0.0,0.0,0.0,0.0,0.0,0.0,0.0,0.0,0.0,0.0,0.0,0.0,0.0,0.0,0.0,0.0,0.0,0.0,0.0,0.0,0.0,0.0,0.0,0.0,-2.6749,-2.5957,-2.3846,0.0,0.0,0.0,0.0,0.0,0.0,0.0,0.0,0.0,0.0,-4.4091,-4.4562,-4.5337,0.0,0.0,-4.5196,-4.4773,-4.5371,-4.501,-4.4079,-4.2185,-4.0747,0.0,0.0,0.0,0.0,0.0,0.0,0.0,0.0,0.0,0.0,0.0,0.0,0.0,0.0,0.0,0.0,0.0,0.0,0.0,0.0,0.0,0.0,0.0,0.0,0.0,0.0,0.0,0.0,0.0,0.0,0.0,0.0,0.0,0.0,0.0,0.0,0.0,0.0,0.0,0.0,0.0,0.0,0.0,0.0,0.0,0.0,0.0,0.0,0.0,0.0,0.0,0.0,-2.7435,-2.801,-2.8862,-2.8971,-2.842,-2.8075,-2.7725,-2.7286,-2.6906,-2.5999,0.0,0.0,0.0,0.0,0.0,0.0,0.0,0.0,0.0,0.0,0.0,0.0,0.0,0.0,0.0,0.0,0.0,0.0,0.0,0.0,0.0,0.0,0.0,0.0,0.0,0.0,0.0,0.0,-2.8072,-2.7205,-2.5001,0.0,0.0,0.0,0.0,0.0,0.0,0.0,0.0,0.0,0.0,-4.2825,-4.3597,-4.398,-4.4451,-4.5151,-4.4507,-4.4113,-4.4812,-4.4045,-4.3081,-4.2117,0.0,0.0,0.0,0.0,0.0,0.0,0.0,0.0,0.0,0.0,0.0,0.0,0.0,0.0,0.0,0.0,0.0,0.0,0.0,0.0,0.0,0.0,0.0,0.0,0.0,0.0,0.0,-2.8994,0.0,0.0,-2.7842,0.0,0.0,0.0,0.0,0.0,0.0,0.0,0.0,0.0,0.0,0.0,0.0,0.0,0.0,0.0,0.0,0.0,0.0,0.0,0.0,0.0,0.0,-2.7791,-2.7827,-2.8594,-2.8797,-2.8358,-2.8075,-2.7678,-2.7269,-2.6906,-2.6168,-2.4992,0.0,0.0,0.0,0.0,0.0,0.0,0.0,0.0,0.0,0.0,0.0,0.0,0.0,0.0,0.0,0.0,0.0,0.0,0.0,0.0,0.0,0.0,0.0,0.0,0.0,0.0,-3.0846,-3.003,-2.8783,0.0,0.0,0.0,0.0,0.0,0.0,0.0,0.0,0.0,-3.7361,-3.9634,-4.1543,-4.2255,-4.2963,-4.347,-4.3504,-4.2861,-4.2405,-4.2489,-4.2997,-4.2929,0.0,0.0,0.0,0.0,0.0,0.0,0.0,0.0,0.0,0.0,0.0,0.0,0.0,0.0,0.0,0.0,0.0,0.0,0.0,0.0,0.0,0.0,0.0,0.0,0.0,0.0,0.0,-3.0595,-3.0595,0.0,0.0,0.0,0.0,0.0,0.0,0.0,0.0,0.0,0.0,0.0,-3.188,-3.3183,0.0,0.0,0.0,0.0,0.0,0.0,0.0,0.0,0.0,0.0,0.0,0.0,-2.7805,-2.7842,-2.833,-2.8185,-2.7388,-2.7443,-2.7061,-2.619,-2.6487,-2.5999,-2.4538,0.0,0.0,0.0,0.0,0.0,0.0,0.0,0.0,0.0,0.0,0.0,0.0,0.0,0.0,0.0,0.0,0.0,0.0,0.0,0.0,0.0,0.0,0.0,0.0,0.0,-2.9913,0.0,0.0,0.0,0.0,0.0,0.0,0.0,0.0,0.0,0.0,-3.6863,-3.7937,-3.8376,-4.0035,-4.1288,-4.1525,-4.2202,-4.2844,0.0,0.0,0.0,0.0,0.0,0.0,0.0,0.0,0.0,0.0,0.0,0.0,0.0,0.0,-3.952,-3.6645,-3.4342,-3.2705,-3.2284,0.0,0.0,0.0,0.0,0.0,0.0,0.0,0.0,0.0,0.0,0.0,0.0,0.0,0.0,-3.1825,-3.1788,-3.1531,0.0,0.0,0.0,0.0,0.0,0.0,0.0,0.0,-3.2816,-3.3385,-3.2661,-3.422,-3.4568,-3.3807,-3.355,-3.2472,0.0,0.0,0.0,0.0,0.0,0.0,0.0,0.0,-2.7391,-2.7228,-2.7362,-2.7014,-2.6257,-2.644,-2.6237,-2.5625,-2.6302,-2.5896,-2.4269,-2.366,-2.2871,0.0,0.0,0.0,0.0,0.0,0.0,0.0,0.0,0.0,0.0,0.0,0.0,0.0,0.0,0.0,0.0,0.0,0.0,0.0,0.0,0.0,0.0,0.0,-2.9247,0.0,0.0,0.0,0.0,0.0,0.0,0.0,0.0,0.0,-3.6646,-3.7841,-3.876,-3.8986,-4.0037,-4.0815,-4.0815,0.0,0.0,0.0,0.0,0.0,0.0,0.0,-4.276,-4.298,-4.2675,-4.2081,-4.1122,-4.0832,-4.0562,-4.05,0.0,0.0,-3.7958,-3.5721,-3.4074,-3.3739,-3.351,-3.2893,-3.1481,-3.21,-3.2424,0.0,0.0,0.0,0.0,-3.3082,0.0,0.0,0.0,-3.2412,-3.2724,0.0,-3.188,0.0,0.0,0.0,0.0,-3.032,-3.1843,0.0,0.0,-3.3109,-3.344,-3.2852,-3.4312,-3.4651,-3.3954,-3.4633,-3.4165,-3.2625,-3.1054,0.0,0.0,0.0,0.0,0.0,0.0,-2.655,-2.6092,-2.579,-2.542,-2.5084,-2.509,-2.524,-2.5624,-2.6319,-2.5947,-2.4349,-2.4804,-2.4123,-2.1909,-2.2892,0.0,0.0,0.0,0.0,0.0,0.0,0.0,0.0,0.0,0.0,0.0,0.0,0.0,0.0,0.0,0.0,0.0,0.0,0.0,0.0,-2.8986,0.0,0.0,0.0,0.0,0.0,0.0,0.0,0.0,0.0,-3.699,-3.7455,-3.8423,-3.9022,-3.9039,0.0,0.0,0.0,0.0,-4.0104,-4.0172,-4.0747,-4.1238,-4.1288,-4.2422,-4.3081,-4.2405,0.0,0.0,-4.1365,-4.0776,-4.0071,-3.8722,-3.8945,-3.9768,-4.0831,-3.8856,-3.7396,-3.7789,-3.5433,-3.3561,-3.3636,-3.3031,-3.2379,-3.7242,0.0,0.0,0.0,0.0,-3.3309,-3.3868,-3.5707,-3.4724,-3.4293,-3.4257,-3.3458,0.0,0.0,0.0,0.0,0.0,0.0,-3.2467,-3.2357,-3.3917,-3.4532,-3.4348,-3.544,-3.5807,-3.5569,-3.5174,-3.4752,-3.422,-3.2118,-3.0711,-3.0008,0.0,0.0,0.0,0.0,-2.6104,-2.5729,-2.5412,-2.495,-2.4336,-2.4545,-2.4955,-2.5609,-2.6319,-2.6145,-2.497,-2.4628,-2.4076,-2.3068,-2.2532,0.0,0.0,0.0,0.0,0.0,0.0,0.0,0.0,0.0,0.0,0.0,0.0,0.0,0.0,0.0,0.0,0.0,0.0,0.0,-2.9319,-2.8262,-2.8078,0.0,0.0,0.0,0.0,0.0,0.0,0.0,0.0,0.0,-3.9214,-3.9578,-3.9766,0.0,0.0,-4.0087,-4.0087,-4.0087,-4.0273,-4.0815,-4.1068,0.0,-4.1897,-4.1914,-4.1948,-4.2236,-4.1747,-4.114,-4.0972,-3.9501,-3.8379,-3.8387,-3.8153,-3.8108,-3.8392,-3.7988,-3.7109,-3.6201,-3.5639,-3.4646,-3.2618,-3.2636,-3.2682,-3.8677,-3.6919,-3.6266,-3.5932,-3.5719,-3.4787,-3.5069,-3.6131,-3.5368,-3.499,-3.4935,-3.4156,-3.2981,-3.1604,-3.1292,0.0,0.0,0.0,-3.3073,-3.3128,-3.41,-3.4541,-3.4596,-3.5385,-3.5624,-3.5257,-3.4468,-3.4037,-3.4,-3.1935,-3.0687,-3.0149,0.0,-2.7904,-2.6613,-2.5833,-2.5129,-2.447,-2.4143,-2.3777,-2.3347,-2.3811,-2.4408,-2.5152,-2.5879,-2.6031,-2.5524,-2.5118,-2.4493,-2.3538,-2.2768,-2.2164,0.0,0.0,0.0,0.0,0.0,0.0,0.0,0.0,0.0,0.0,0.0,-2.5978,-2.6286,0.0,0.0,0.0,-2.9376,-2.9046,-2.8512,-2.7919,0.0,0.0,0.0,0.0,0.0,0.0,0.0,-3.7545,-3.8027,-3.8546,-3.9512,-3.9884,-4.0087,-4.0087,-4.0087,-4.0087,-4.0087,0.0,-4.024,-4.0679,-4.1018,-4.1356,-4.1796,-4.1728,-4.1673,-4.1825,-4.0794,-3.9891,-3.9929,-3.8545,-3.7623,-3.7838,-3.7674,-3.733,-3.7075,-3.7045,-3.679,-3.58,-3.5521,-3.4625,-3.2232,-3.2258,-3.2024,-3.9585,-3.8219,-3.8123,-3.7386,-3.6365,-3.68,-3.6032,-3.4455,-3.485,-3.5028,-3.4972,-3.4156,-3.3752,-3.3642,-3.2944,0.0,-3.1458,-3.2999,-3.3642,-3.3605,-3.3605,-3.3605,-3.3642,-3.4376,-3.4339,-3.3587,-3.2871,-3.2522,-3.2449,-3.0907,-3.0099,-3.0057,-2.8541,-2.6986,-2.5552,-2.4764,-2.383,-2.2678,-2.2443,-2.2327,-2.2327,-2.3088,-2.3816,-2.4475,-2.5203,-2.5732,-2.5964,-2.5845,-2.5065,-2.3569,-2.3297,-2.2755,-2.1768,0.0,0.0,0.0,0.0,0.0,0.0,0.0,0.0,0.0,0.0,0.0,0.0,0.0,0.0,0.0,-2.7702,0.0,-2.8323,-2.7871,0.0,0.0,0.0,-3.1385,-3.1421,-3.2239,-3.41,-3.7319,0.0,0.0,-3.8853,-3.9495,-3.9918,-3.9969,-4.0087,-4.0087,-4.0087,-4.0087,-4.0087,-4.0138,-4.0663,-4.1102,-4.1119,-4.1507,-4.156,-4.1028,-4.0264,-3.9279,-3.862,-3.7836,-3.7308,-3.7225,-3.7255,-3.7075,-3.6507,-3.6417,-3.6402,-3.6372,-3.5251,-3.3905,-3.2876,-3.2132,-3.1281,-4.0277,-3.9835,-3.9238,-3.7961,-3.6309,-3.6231,-3.616,-3.6075,-3.559,-3.5379,-3.5324,-3.4289,-3.3458,-3.2889,-3.2687,-3.2155,-3.1439,-3.243,-3.2577,-3.1971,-3.1971,-3.1971,-3.1971,-3.2173,-3.2155,-3.1953,-3.177,-3.1678,-3.1604,-3.0081,-2.9269,-2.9195,-2.7387,-2.6154,-2.5549,-2.4189,-2.3163,-2.2415,-2.2321,-2.2327,-2.2316,-2.3562,-2.4337,-2.4506,-2.522,-2.5698,-2.5947,-2.4574,-2.3847,-2.3872,-2.2561,-2.1667,-2.1397,-2.1888,0.0,0.0,0.0,0.0,0.0,0.0,0.0,0.0,0.0,-2.6503,-2.4961,0.0,-2.9543,0.0,-2.9636,-2.9809,-2.7974,-2.7663,0.0,0.0,-2.9781,-3.0434,-3.138,-3.2345,-3.3709,-3.5877,-3.6894,-3.7644,-3.8108,-3.8328,-3.8633,-3.9174,-3.9732,-4.0087,-4.0087,-4.0087,-4.0087,-4.0104,-4.0257,-4.0341,-4.0392,-3.9943,-3.9686,-3.949,-3.8344,-3.7327,-3.7157,-3.6478,-3.5968,-3.5953,-3.5953,-3.5893,-3.5744,-3.5729,-3.5729,-3.5729,-3.5398,-3.4839,-3.3891,-3.2876,-3.2027,-3.9508,-3.8815,-3.8738,-3.7659,-3.5965,-3.6045,-3.5979,-3.5731,-3.4926,-3.4479,-3.4344,-3.3441,-3.2548,-3.1745,-3.2077,-3.1728,-3.0944,-3.1696,-3.1825,-3.1403,-3.1403,-3.1403,-3.1403,-3.1403,-3.1403,-3.1366,-3.0668,-3.0338,-3.0246,-2.8723,-2.7912,-2.7893,-2.6457,-2.5579,-2.5249,-2.4113,-2.3197,-2.249,-2.236,-2.2327,-2.2344,-2.341,-2.4154,-2.4489,-2.4881,-2.536,-2.578,-2.4293,-2.3651,-2.4058,-2.2619,-2.1692,-2.1484,-2.1553,-2.1167,0.0,0.0,0.0,0.0,0.0,0.0,0.0,0.0,0.0,0.0,0.0,-2.8951,-2.8958,-2.8898,-2.8636,-2.8096,-2.779,-2.791,-2.8659,-2.922,-2.987,-3.0606,-3.1601,-3.3173,-3.5349,-3.5515,-3.6093,-3.7621,-3.7601,-3.7686,-3.8396,-3.8853,-3.936,-3.9952,-4.0087,-4.0087,-4.0087,-4.0087,-4.0087,-4.0087,-3.942,-3.8668,-3.8023,-3.7218,-3.6415,-3.5768,-3.5329,-3.5055,-3.504,-3.4816,-3.4622,-3.4607,-3.4607,-3.4607,-3.4622,-3.4607,-3.4377,-3.3715,-3.2962,-3.2162,-3.8257,-3.693,-3.7565,-3.6988,-3.5685,-3.6039,-3.5645,-3.4678,-3.3827,-3.3212,-3.2836,-3.2349,-3.1595,-3.0764,-3.1433,-3.1187,-3.0265,-3.0925,-3.1182,-3.1091,-3.1091,-3.1091,-3.1091,-3.1091,-3.1017,-3.087,-2.9531,-2.8773,-2.8668,-2.7181,-2.6447,-2.641,-2.566,-2.5116,-2.4783,-2.4151,-2.3423,-2.2652,-2.2511,-2.2417,-2.2446,-2.3173,-2.3833,-2.4472,-2.4343,-2.4616,-2.5309,-2.4116,-2.3598,-2.3898,-2.2813,-2.1971,-2.1648,-2.1083,-2.0738,0.0,-2.0827,0.0,0.0,0.0,0.0,0.0,0.0,0.0,0.0,-2.71,-2.78,-2.9141,-2.7199,-2.6579,-2.8338,-2.7951,-2.7602,-2.7629,-2.8614,-2.9388,-2.9597,-3.0723,-3.2481,-3.5002,-3.4163,-3.4442,-3.6793,-3.6806,-3.6772,-3.7415,-3.7542,-3.8164,-3.9462,-3.9715,-3.9681,-3.9733,-3.9615,-3.921,-3.9192,-3.8722,-3.7806,-3.6782,-3.6213,-3.5784,-3.46,-3.4415,-3.4352,-3.4307,-3.3933,-3.3574,-3.3499,-3.3544,-3.3544,-3.3604,-3.3514,-3.3372,-3.3208,-3.263,-3.1868,-3.8065,-3.77,-3.718,-3.6757,-3.6416,-3.5888,-3.5407,-3.4959,-3.4122,-3.3091,-3.2039,-3.2144,-3.1834,-3.1286,-3.1427,-3.1011,-3.0228,-3.0356,-3.0081,-2.9457,-2.9475,-2.9452,-2.9457,-2.9475,-2.9108,-2.8484,-2.8172,-2.7695,-2.7053,-2.608,-2.5621,-2.5603,-2.4814,-2.439,-2.4293,0.0,0.0,0.0,-2.2914,-2.319,-2.3224,-2.39,-2.4371,-2.4458,-2.3543,0.0,-2.4116,-2.213,-2.1711,-2.3147,-2.1616,0.0,0.0,0.0,0.0,0.0,0.0,0.0,0.0,0.0,0.0,0.0,-2.6308,-2.6063,-2.5256,-2.6076,-2.7091,-2.7836,-2.7505,-2.736,-2.7724,-2.7709,-2.7571,-2.761,-2.7846,-2.8367,-2.9478,-3.0654,-3.2045,-3.3598,-3.3537,-3.3587,-3.4242,-3.4624,-3.5216,-3.5898,-3.6097,-3.6702,-3.8077,-3.8246,-3.8083,-3.7536,-3.7124,-3.6706,-3.662,-3.6055,-3.5622,-3.5023,-3.4482,-3.403,-3.3741,-3.3679,-3.3679,-3.3679,-3.3574,-3.3455,-3.3469,-3.3499,-3.3335,-3.3484,-3.3036,-3.2841,-3.3283,-3.2689,-3.2124,-3.7142,-3.6757,-3.6719,-3.6469,0.0,-3.5218,-3.4798,-3.4596,-3.3734,-3.2504,-3.1118,-3.1248,-3.103,-3.0565,-3.0672,-3.032,-2.9622,-2.9742,-2.9521,-2.9017,-2.8975,-2.8975,-2.8975,-2.8613,-2.8209,-2.7769,-2.6979,-2.6392,-2.5988,-2.5181,-2.4795,-2.4795,-2.4392,-2.4132,-2.3937,-2.3282,-2.273,-2.231,-2.2682,-2.2852,-2.2885,-2.3579,-2.3951,-2.3934,-2.3365,0.0,0.0,0.0,0.0,0.0,0.0,0.0,0.0,-2.1325,0.0,-2.0273,-2.144,-2.2188,-2.2259,-2.3405,-2.4231,-2.4554,-2.5192,-2.5546,-2.5555,-2.6497,-2.7265,-2.7545,-2.756,-2.756,-2.756,-2.756,-2.7584,-2.7616,-2.7594,-2.8015,-2.9024,-2.9353,-3.0464,-3.2569,-3.262,-3.2538,-3.328,-3.3355,-3.3711,-3.4344,-3.4284,-3.4421,-3.5185,-3.6174,-3.6617,-3.5932,-3.5861,-3.5567,-3.492,-3.4502,-3.3923,-3.3377,-3.3056,-3.2871,-3.2572,-3.2796,-3.3006,-3.2961,-3.2497,-3.2108,-3.2407,-3.2033,-3.1659,-3.1884,-3.1509,-3.118,-3.1524,-3.1412,-3.1249,-3.6111,-3.5565,-3.6219,-3.6026,-3.5218,-3.4487,-3.4026,-3.3699,-3.3006,0.0,0.0,-3.0343,-3.0114,-2.9731,-2.9877,-2.9548,-2.8868,-2.9066,-2.8992,-2.8644,-2.8594,-2.8617,-2.8584,-2.7919,-2.7493,-2.731,-2.6046,-2.5329,-2.5162,-2.4502,-2.419,-2.419,-2.419,-2.3978,-2.3606,-2.3003,-2.2563,-2.231,-2.2446,-2.2513,-2.2513,-2.3088,-2.3393,-2.3393,-2.3199,-2.2902,-2.2516,-2.152,-2.108,-2.1275,-2.0877,-2.0648,-2.0722,-2.1111,-2.1096,-2.0617,-2.1141,-2.153,-2.153,-2.2128,-2.2649,-2.2817,-2.3939,-2.5136,-2.6333,-2.6916,-2.7355,-2.7585,-2.748,-2.734,-2.724,-2.748,-2.745,-2.7186,-2.7415,-2.7939,-2.8619,-2.8323,-2.922,-3.1742,-3.1756,-3.1631,-3.2739,-3.2611,-3.2476,-3.2984,-3.2934,-3.2344,-3.2392,-3.3643,-3.4494,-3.4078,-3.399,-3.4133,-3.3355,-3.2933,-3.2501,-3.1559,-3.1667,-3.1749,-3.1435,-3.1644,-3.1958,-3.1884,-3.1031,-3.0746,-3.1001,-3.0447,-2.9804,-3.0238,-2.9939,-2.9535,-2.9475,-2.9804,-3.0073,-3.5654,-3.5507,-3.5628,-3.518,-3.4353,-3.4257,-3.3372,-3.2064,-3.191,-3.1187,-3.0061,-3.0042,-2.9943,-2.9696,-2.9712,-2.9175,-2.8256,-2.8276,-2.7884,-2.7212,-2.703,-2.7011,-2.7175,-2.6901,-2.641,-2.577,-2.5513,-2.5054,-2.441,-2.4245,-2.419,-2.419,-2.419,-2.3896,-2.33,-2.2898,-2.2563,-2.231,-2.2936,-2.3257,-2.3257,-2.3342,-2.3393,-2.3376,-2.2412,-2.182,-2.1777,-2.1261,-2.1114,-2.1259,-2.0709,-2.0447,-2.0685,-2.0258,-1.9929,-1.9869,-2.0483,-2.0857,-2.0857,-2.1455,-2.2308,-2.3385,-2.4193,-2.4896,-2.5674,-2.5824,-2.6339,-2.7425,-2.6874,-2.6339,-2.6016,-2.6859,-2.6942,-2.5744,-2.6733,-2.7915,-2.8665,-2.8978,-2.9624,-3.1166,-3.1307,-3.116,-3.1398,-3.1867,-3.2063,-3.2343,-3.1934,-3.1878,-3.0986,-3.1076,-3.1295,-3.113,-3.0738,-3.0433,-3.0403,-3.0204,-3.0196,-2.9976,-2.9973,-3.0118,-2.9968,-3.0103,-3.0238,-3.0073,-2.9909,-2.9819,-2.9924,-2.9744,-2.9549,-2.9669,-2.9535,-2.931,-2.8831,-2.8831,-2.8996,-3.5387,-3.4952,-3.4859,-3.4361,-3.352,-3.3044,-3.2141,-3.1044,-3.1006,-3.0707,-3.0241,-3.0228,-3.0095,-2.9839,-2.9527,-2.8969,-2.8257,-2.7825,-2.7361,-2.6916,-2.6783,-2.676,-2.6685,-2.6298,-2.5853,-2.5384,-2.4942,-2.4337,-2.3657,-2.3988,-2.3988,-2.3584,-2.3637,-2.3482,-2.3206,-2.2721,-2.2426,-2.231,-2.2649,-2.2801,-2.2818,-2.2801,-2.2818,-2.2801,-2.2228,-2.1751,-2.1275,-2.1103,-2.0823,-2.0441,-2.0347,-2.0277,-2.016,-2.0425,-2.0324,-1.9771,-2.0333,-2.0543,-2.0168,-2.0782,-2.1575,-2.2488,-2.2862,-2.3161,-2.346,-2.4792,-2.5764,-2.6156,-2.5993,-2.5521,-2.4677,-2.5717,-2.6213,-2.5409,-2.597,-2.6763,-2.7833,-2.8881,-2.9568,-2.9945,-3.0022,-2.9883,-2.961,-2.9878,-2.9926,-2.9733,-2.9696,-2.9375,-2.8572,-2.8423,-2.8747,-2.9367,-2.9524,-2.9244,-2.8667,-2.8831,-2.8861,-2.8577,-2.8816,-2.9011,-2.9086,-2.9265,-2.9535,-2.9549,-2.9295,-2.9235,-2.9445,-2.8936,-2.8742,-2.8981,-2.8712,-2.8368,-2.8083,-2.7784,-2.7769,-3.4789,-3.4156,-3.4061,-3.35,-3.2636,-3.1765,-3.1025,-3.0398,-3.0217,-3.0102,-3.0102,-3.0121,-2.9992,-2.9735,-2.9121,-2.8505,-2.7903,-2.7286,-2.6779,-2.6448,-2.6376,-2.6265,-2.609,-2.5597,-2.5282,-2.5072,-2.4483,-2.3786,-2.3162,-2.3639,-2.3621,-2.3051,-2.2966,-2.2946,-2.2923,-2.2366,-2.2057,-2.2073,-2.2198,-2.2327,-2.2327,-2.2327,-2.2327,-2.2282,-2.2209,-2.1827,-2.1197,-2.1055,-2.0632,-1.9909,-2.0124,-2.0139,-1.9777,-2.0487,-2.0569,-1.9867,-2.0183,-2.0258,-1.9779,-2.0168,-2.0767,-2.1425,-2.147,-2.1545,-2.1844,-2.3623,-2.4792,-2.4566,-2.4552,-2.4312,-2.3893,-2.4536,-2.5228,-2.5339,-2.5255,-2.5772,-2.6921,-2.8132,-2.8899,-2.8787,-2.871,-2.849,-2.8257,-2.8079,-2.7987,-2.7695,-2.7328,-2.7072,-2.6667,-2.6507,-2.6871,-2.7745,-2.8464,-2.8203,-2.732,-2.7679,-2.7844,-2.741,-2.7934,-2.8278,-2.8412,-2.8712,-2.8831,-2.8697,-2.8278,-2.8128,-2.8607,-2.8128,-2.7769,-2.8158,-2.8023,-2.7655,-2.738,-2.6856,-2.6647,-3.3387,-3.3141,-3.3132,-3.2607,-3.1754,-3.0902,-3.0448,-3.0294,-2.9563,-2.9217,-2.9217,-2.9217,-2.9198,-2.9071,-2.8352,-2.7493,-2.6606,-2.6422,-2.5891,-2.5099,-2.4818,-2.4718,-2.476,-2.4506,-2.4337,-2.43,-2.419,-2.3694,-2.2905,-2.3052,-2.3088,-2.2941,-2.2467,-2.2225,-2.2139,-2.1592,-2.1295,-2.1295,-2.1972,-2.2327,-2.2327,-2.2327,-2.2327,-2.2299,-2.1882,-2.1628,-2.1491,-2.1181,-2.0764,-2.0314,-2.0246,-2.0124,-1.9762,-1.9822,-1.9822,-1.9705,-1.9765,-1.9735,-1.9705,-1.9735,-2.0094,-2.0707,-2.0812,-2.1036,-2.1575,-2.2244,-2.2712,-2.2783,-2.2398,-2.2604,-2.3443,-2.3697,-2.3967,-2.4521,-2.4771,-2.54,-2.6165,-2.6855,-2.7502,-2.8229,-2.7575,-2.7547,-2.7761,-2.751,-2.7315,-2.6997,-2.6679,-2.6454,-2.6335,-2.5954,-2.5856,-2.6296,-2.6279,-2.6048,-2.5929,-2.6348,-2.6737,-2.6737,-2.7215,-2.753,-2.753,-2.7215,-2.6886,-2.7186,-2.6572,-2.6467,-2.6767,-2.6737,-2.6931,-2.7335,-2.741,-2.7335,-2.6797,-2.6168,-2.6019,-3.3029,-3.2526,-3.243,-3.1868,-3.0936,-3.0076,-2.9678,-2.9544,-2.8756,-2.839,-2.8313,-2.7871,-2.789,-2.8313,-2.7505,-2.6877,-2.6447,-2.5829,-2.5317,-2.4917,-2.4818,-2.4771,-2.4651,-2.461,-2.4271,-2.369,-2.3548,-2.2832,-2.1822,-2.2024,-2.2299,-2.2301,-2.2126,-2.1888,-2.1379,-2.0776,-2.0483,-2.0517,-2.0805,-2.0931,-2.1032,-2.1854,-2.2327,-2.2282,-2.2106,-2.1751,-2.1275,-2.1086,-2.0665,-2.0035,-2.0174,-2.0124,-1.9726,-1.9945,-1.9929,-1.9726,-1.9705,-1.9705,-1.9705,-1.9705,-1.9809,-2.0109,-2.0094,-2.0228,-2.0468,-2.0678,-2.0813,-2.094,-2.1153,-2.1715,-2.2627,-2.237,-2.2294,-2.2825,-2.3108,-2.3597,-2.4496,-2.4766,-2.526,-2.6156,-2.5573,-2.5243,-2.5704,-2.5503,-2.5168,-2.5203,-2.5205,-2.5346,-2.5318,-2.5153,-2.5213,-2.5348,-2.4927,-2.4731,-2.5086,-2.5672,-2.5974,-2.6048,-2.6228,-2.6408,-2.6408,-2.6243,-2.6019,-2.6004,-2.5704,-2.56,-2.5989,-2.6004,-2.6123,-2.6452,-2.6437,-2.6318,-2.6063,-2.5495,-2.527,-3.2363,-3.1813,-3.1652,-3.1193,-3.0471,-2.959,-2.9184,-2.8965,-2.8019,-2.7575,-2.7448,-2.6621,-2.6582,-2.7024,-2.6524,-2.6255,-2.6139,-2.542,-2.5046,-2.4991,-2.4991,-2.4898,-2.4727,-2.4452,-2.3989,-2.3258,-2.2847,-2.1932,-2.0686,-2.1088,-2.1437,-2.1459,-2.1522,-2.1301,-2.0702,-2.0102,-1.9804,-1.9804,-1.9916,-1.9985,-2.0154,-2.1083,-2.1786,-2.1955,-2.1675,-2.1396,-2.1197,-2.0846,-2.0365,-1.9687,-1.9912,-1.9848,-1.9476,-1.9691,-1.9802,-1.9732,-1.9705,-1.9705,-1.9705,-1.9705,-1.9705,-1.9705,-1.9705,-1.9705,-1.9705,-1.9705,-1.9705,-1.9794,-2.0295,-2.0914,-2.1353,-2.1207,-2.1036,-2.1188,-2.1537,-2.2231,-2.3022,-2.3251,-2.3722,-2.4233,-2.3973,-2.3393,-2.3557,-2.339,-2.3155,-2.3215,-2.3533,-2.3819,-2.3864,-2.3924,-2.4192,-2.452,-2.4011,-2.394,-2.449,-2.5029,-2.5285,-2.5405,-2.5495,-2.5734,-2.5555,-2.551,-2.533,-2.5315,-2.5211,-2.5196,-2.53,-2.5345,-2.545,-2.5525,-2.5495,-2.539,-2.5345,-2.4731,-2.4388,-3.0914,-3.0794,-3.0682,-3.0637,-3.0522,-2.9602,-2.9207,-2.8902,-2.7442,-2.6706,-2.6554,-2.5783,-2.5399,-2.5514,-2.5476,-2.539,-2.536,-2.5312,-2.5173,-2.5034,-2.5022,-2.4831,-2.4489,-2.3729,-2.3221,-2.2845,-2.2185,-2.1362,-2.0484,-2.0556,-2.0558,-2.0541,-2.0427,-2.0282,-2.008,-1.9563,-1.9324,-1.9304,-1.9634,-1.9917,-1.9934,-2.0035,-2.0467,-2.0998,-2.0173,-2.0261,-2.1193,-2.0505,-1.9767,-1.9432,-1.9432,-1.9236,-1.8831,-1.8826,-1.9126,-1.9636,-1.9705,-1.9705,-1.9705,-1.9705,-1.9705,-1.9705,-1.9705,-1.9705,-1.9705,-1.9705,-1.9705,-1.9705,-1.9794,-1.9914,-2.0025,-2.0453,-2.0423,-2.0068,-2.0948,-2.1766,-2.2359,-2.2739,-2.3017,-2.2836,-2.3036,-2.2909,-2.2088,-2.1809,-2.1904,-2.1919,-2.1904,-2.1994,-2.2188,-2.2503,-2.3047,-2.3477,-2.3601,-2.361,-2.3729,-2.4253,-2.4567,-2.4657,-2.4971,-2.5435,-2.5345,-2.5181,-2.4881,-2.4567,-2.4268,-2.4253,-2.4507,-2.4731,-2.4956,-2.4986,-2.4837,-2.4732,-2.4657,-2.4059,-2.3762,-3.0878,-3.0778,-3.0203,-2.9935,-2.9733,-2.8384,-2.7707,-2.7537,-2.6389,-2.584,-2.5779,-2.5457,-2.5313,-2.5313,-2.5313,-2.5313,-2.5313,-2.5313,-2.5264,-2.5203,-2.5184,-2.4862,-2.4224,-2.379,-2.2908,-2.1859,-2.1358,-2.0665,-1.9911,-2.0228,-2.0144,-1.9683,-1.983,-1.964,-1.8961,-1.8521,-1.8341,-1.8353,-1.8528,-1.8582,-1.8582,-1.8582,-1.8961,-1.9672,-1.9799,-1.9907,-2.02,-1.9801,-1.9396,-1.9026,-1.8796,-1.8731,-1.8994,-1.923,-1.942,-1.9645,-1.9705,-1.9705,-1.9705,-1.9705,-1.9705,-1.9705,-1.9705,-1.9726,-1.9705,-1.9705,-1.9705,-1.9726,-1.9726,-1.9705,-1.972,-1.9914,-1.9959,-1.9846,-2.013,-2.0693,-2.1069,-2.1173,-2.124,-2.182,-2.2193,-2.2076,-2.1783,-2.168,-2.1695,-2.1695,-2.168,-2.165,-2.1695,-2.1919,-2.2224,-2.2632,-2.2881,-2.2966,-2.2778,-2.3462,-2.3969,-2.4014,-2.4178,-2.4268,-2.4238,-2.4313,-2.4073,-2.4118,-2.3699,-2.3611,-2.3955,-2.3763,-2.4015,-2.3985,-2.3851,-2.3747,-2.3984,-2.3259,-2.2996,-3.0059,-2.9961,-2.9414,-2.9158,-2.8934,-2.7567,-2.6905,-2.6719,-2.5857,-2.5453,-2.5415,-2.5363,-2.5329,-2.5346,-2.5322,-2.5313,-2.5321,-2.5332,-2.5313,-2.5274,-2.5043,-2.4601,-2.3976,-2.3318,-2.2319,-2.1161,-2.0624,-2.0,-1.943,-1.984,-1.9742,-1.9191,-1.9471,-1.9269,-1.8505,-1.7962,-1.7658,-1.7591,-1.7466,-1.7371,-1.7168,-1.732,-1.7659,-1.8166,-1.8674,-1.9194,-1.9522,-1.9372,-1.9001,-1.8559,-1.8239,-1.8299,-1.8692,-1.9336,-1.9705,-1.9675,-1.9465,-1.9361,-1.9361,-1.9375,-1.9271,-1.9121,-1.9465,-1.9717,-1.9708,-1.9707,-1.9717,-1.9707,-1.9732,-1.9711,-1.9662,-1.9456,-1.9405,-1.9615,-1.9705,-1.9869,-2.0288,-1.9974,-2.0205,-2.0805,-2.1,-2.1045,-2.1036,-2.1036,-2.1006,-2.1051,-2.1051,-2.1051,-2.1051,-2.1261,-2.1296,-2.1524,-2.2019,-2.2092,-2.2051,-2.248,-2.337,-2.3535,-2.361,-2.3535,-2.352,-2.3535,-2.3537,-2.358,-2.3492,-2.3389,-2.317,-2.2907,-2.279,-2.2758,-2.2596,-2.2407,-2.2438,-2.2352,-2.2047,-2.8359,-2.8418,-2.8301,-2.8281,-2.8144,-2.7266,-2.691,-2.664,-2.593,-2.5551,-2.5484,-2.5434,-2.5428,-2.5465,-2.536,-2.5348,-2.5379,-2.535,-2.5303,-2.5255,-2.4524,-2.4062,-2.367,-2.2255,-2.1347,-2.0828,-2.003,-1.9518,-1.9341,-1.9234,-1.9146,-1.9256,-1.9118,-1.8921,-1.8895,-1.7879,-1.7328,-1.712,-1.6915,-1.6465,-1.5798,-1.6428,-1.6813,-1.6851,-1.6915,-1.7879,-1.974,-1.9208,-1.8543,-1.8001,-1.7877,-1.7836,-1.7938,-1.8891,-1.9636,-1.9435,-1.9016,-1.8732,-1.8702,-1.8702,-1.8433,-1.8194,-1.8927,-1.9496,-1.9526,-1.9535,-1.9497,-1.9405,-1.9537,-1.9637,-1.9554,-1.894,-1.8802,-1.951,-1.9656,-1.9615,-1.9726,-1.9741,-1.972,-1.9839,-1.9914,-1.975,-1.975,-1.9914,-1.9989,-1.9974,-1.9944,-1.9974,-2.0085,-2.0423,-2.0385,-2.0271,-2.0881,-2.1535,-2.1426,-2.1471,-2.2402,-2.3116,-2.3206,-2.3236,-2.331,-2.334,-2.3316,-2.3287,-2.2834,-2.2659,-2.2149,-2.1887,-2.1427,-2.1355,-2.1153,-2.1194,-2.1197,-2.1183,-2.0797,-2.8257,-2.8203,-2.7656,-2.7402,-2.7285,-2.6484,-2.6093,-2.6052,-2.5709,-2.5576,-2.5558,-2.5489,-2.5473,-2.5484,-2.5459,-2.5421,-2.5398,-2.5379,-2.5348,-2.5149,-2.4447,-2.3726,-2.2959,-2.1846,-2.0846,-2.0013,-1.9188,-1.8975,-1.9059,-1.8225,-1.8078,-1.8736,-1.7926,-1.7599,-1.7879,-1.7064,-1.6554,-1.6519,-1.6766,-1.6546,-1.5927,-1.639,-1.6699,-1.6699,-1.6716,-1.7287,-1.838,-1.8268,-1.7923,-1.7518,-1.7477,-1.745,-1.7574,-1.8205,-1.8533,-1.8347,-1.813,-1.8029,-1.7996,-1.7996,-1.7939,-1.7787,-1.8134,-1.8477,-1.8722,-1.8525,-1.8283,-1.8089,-1.8425,-1.8992,-1.9359,-1.8606,-1.8462,-1.9559,-1.9318,-1.9206,-1.9617,-1.9677,-1.9726,-1.9705,-1.9705,-1.9705,-1.9705,-1.9705,-1.9705,-1.9705,-1.9705,-1.9705,-1.9786,-1.9899,-1.9989,-1.9856,-2.0557,-2.0991,-2.0908,-2.0959,-2.1565,-2.2188,-2.2398,-2.2727,-2.2877,-2.284,-2.286,-2.2615,-2.2191,-2.1711,-2.1175,-2.0703,-2.0239,-2.0187,-2.0245,-2.0302,-2.0302,-2.0004,-1.9553,-2.7217,-2.7216,-2.6694,-2.6481,-2.6443,-2.5898,-2.5703,-2.5703,-2.5659,-2.5636,-2.5631,-2.5564,-2.5554,-2.5558,-2.5531,-2.5503,-2.5432,-2.513,-2.4946,-2.4764,-2.4013,-2.3167,-2.2284,-2.1377,-2.0563,-1.9729,-1.8875,-1.8634,-1.8888,-1.7941,-1.7643,-1.7939,-1.7724,-1.7343,-1.7113,-1.66,-1.6195,-1.5888,-1.6251,-1.6072,-1.5483,-1.6199,-1.6666,-1.6397,-1.6649,-1.7156,-1.7726,-1.7789,-1.7641,-1.737,-1.7304,-1.7219,-1.7148,-1.7624,-1.7909,-1.7734,-1.7458,-1.7324,-1.7324,-1.7324,-1.7204,-1.7085,-1.7445,-1.7552,-1.7557,-1.7417,-1.753,-1.7292,-1.7732,-1.8368,-1.8668,-1.811,-1.7834,-1.813,-1.816,-1.8575,-1.9353,-1.9476,-1.9501,-1.957,-1.9705,-1.9705,-1.9705,-1.9705,-1.9705,-1.9705,-1.9705,-1.9705,-1.9705,-1.9705,-1.9705,-1.9735,-2.0034,-2.0288,-2.0348,-2.0557,-2.0827,-2.1171,-2.147,-2.1904,-2.2248,-2.1975,-2.1854,-2.1355,-2.089,-2.0246,-1.9734,-1.9279,-1.8848,-1.9054,-1.9164,-1.8945,-1.8753,-1.8681,-1.8318,-2.5503,-2.5498,-2.5584,-2.5679,-2.5685,-2.5681,-2.5625,-2.5586,-2.5566,-2.5527,-2.5527,-2.5439,-2.5539,-2.5622,-2.5554,-2.5554,-2.5428,-2.4705,-2.4232,-2.3896,-2.3149,-2.2216,-2.121,-2.0365,-1.9762,-1.9428,-1.8674,-1.8358,-1.8261,-1.7691,-1.7638,-1.7362,-1.8104,-1.8267,-1.7013,-1.667,-1.6087,-1.5308,-1.5697,-1.5262,-1.3956,-1.5724,-1.6637,-1.5852,-1.6595,-1.7247,-1.7698,-1.7789,-1.7658,-1.7378,-1.7327,-1.713,-1.6925,-1.7344,-1.7588,-1.7447,-1.6965,-1.6712,-1.6652,-1.6667,-1.6473,-1.6158,-1.6817,-1.7146,-1.6338,-1.6863,-1.7206,-1.6908,-1.7252,-1.7526,-1.7532,-1.7212,-1.6729,-1.6128,-1.6693,-1.7739,-1.9197,-1.9015,-1.9126,-1.954,-1.9705,-1.9705,-1.969,-1.9654,-1.9617,-1.9617,-1.9581,-1.9566,-1.9603,-1.9566,-1.969,-1.9765,-1.9839,-1.9723,-1.982,-2.0064,-2.0244,-1.9914,-2.0294,-2.0848,-2.127,-2.1032,-2.077,-2.0253,-1.9564,-1.8919,-1.8473,-1.8104,-1.7769,-1.7764,-1.7655,-1.7323,-1.7334,-1.7447,-1.744,-2.533,-2.5489,-2.5526,-2.5554,-2.5601,-2.5629,-2.5288,-2.4785,-2.4766,-2.4763,-2.4682,-2.4687,-2.5019,-2.5577,-2.5585,-2.5634,-2.5344,-2.4635,-2.3828,-2.3172,-2.2269,-2.0943,-1.9635,-1.8793,-1.8293,-1.795,-1.7568,-1.7093,-1.7323,-1.6502,-1.6571,-1.7874,-1.7219,-1.722,-1.7442,-1.7045,-1.6374,-1.5641,-1.5928,-1.5676,-1.4861,-1.5414,-1.6152,-1.6482,-1.668,-1.7156,-1.7726,-1.7789,-1.7749,-1.7658,-1.742,-1.7149,-1.6804,-1.6909,-1.6882,-1.6443,-1.6233,-1.6068,-1.6054,-1.6054,-1.5934,-1.5844,-1.6188,-1.6129,-1.5888,-1.6098,-1.6263,-1.6173,-1.6278,-1.6338,-1.6292,-1.6262,-1.6023,-1.5889,-1.6098,-1.6725,-1.7889,-1.8559,-1.8972,-1.9555,-1.966,-1.9617,-1.9603,-1.9317,-1.9169,-1.9169,-1.9169,-1.9207,-1.9332,-1.9442,-1.9566,-1.9654,-1.9647,-1.9435,-1.9398,-1.9596,-1.9457,-1.8831,-1.9031,-1.9628,-1.9895,-1.988,-1.9661,-1.9351,-1.8561,-1.7854,-1.758,-1.7289,-1.699,-1.6863,-1.6808,-1.6837,-1.6765,-1.6794,-1.685,-2.5069,-2.5213,-2.5216,-2.5231,-2.5286,-2.5367,-2.4978,-2.4342,-2.4317,-2.4098,-2.3834,-2.3808,-2.4061,-2.4517,-2.4903,-2.5094,-2.4959,-2.4167,-2.35,-2.2851,-2.1313,-1.9961,-1.9058,-1.8674,-1.8488,-1.7899,-1.7508,-1.7549,-1.7618,-1.6698,-1.6915,-1.7483,-1.7417,-1.7234,-1.6908,-1.7385,-1.657,-1.5519,-1.5786,-1.5723,-1.4593,-1.5331,-1.5833,-1.6319,-1.6578,-1.7181,-1.7698,-1.7681,-1.7526,-1.7384,-1.7191,-1.6876,-1.6448,-1.6367,-1.6191,-1.5814,-1.5814,-1.5814,-1.5814,-1.5814,-1.5814,-1.5814,-1.5814,-1.5814,-1.5814,-1.5814,-1.5829,-1.5832,-1.5815,-1.5801,-1.5802,-1.5815,-1.5814,-1.58,-1.5817,-1.6125,-1.6863,-1.75,-1.8229,-1.8788,-1.9046,-1.9169,-1.9317,-1.8893,-1.8893,-1.9058,-1.908,-1.9169,-1.9295,-1.9369,-1.9391,-1.9376,-1.9177,-1.8826,-1.8812,-1.8999,-1.9006,-1.8341,-1.7988,-1.8565,-1.8791,-1.8821,-1.8551,-1.8214,-1.7485,-1.7011,-1.6911,-1.6823,-1.6716,-1.6607,-1.6534,-1.6534,-1.6534,-1.6534,-1.6534,-2.4775,-2.4818,-2.4816,-2.4815,-2.4859,-2.5041,-2.4651,-2.398,-2.3971,-2.3586,-2.3007,-2.2855,-2.3019,-2.3026,-2.3899,-2.4268,-2.4356,-2.3358,-2.289,-2.2042,-2.0694,-1.9305,-1.8866,-1.9186,-1.9054,-1.8578,-1.8661,-1.844,-1.8163,-1.8091,-1.782,-1.7714,-1.8523,-1.7969,-1.7085,-1.7468,-1.6694,-1.5406,-1.5851,-1.5826,-1.5031,-1.5662,-1.6205,-1.6333,-1.6864,-1.736,-1.7642,-1.7549,-1.7272,-1.6892,-1.6841,-1.6528,-1.6011,-1.587,-1.5812,-1.5799,-1.5814,-1.5814,-1.5814,-1.5814,-1.5814,-1.5814,-1.5814,-1.5814,-1.5814,-1.5814,-1.5801,-1.5802,-1.5772,-1.5683,-1.5802,-1.5816,-1.58,-1.5814,-1.5829,-1.5802,-1.5915,-1.642,-1.7159,-1.7935,-1.8125,-1.8394,-1.865,-1.8574,-1.8433,-1.8741,-1.8688,-1.8496,-1.8664,-1.8779,-1.8812,-1.8896,-1.8579,-1.8115,-1.8218,-1.8373,-1.8299,-1.8027,-1.7463,-1.7584,-1.7909,-1.788,-1.7512,-1.7125,-1.6908,-1.676,-1.666,-1.6572,-1.6534,-1.6534,-1.6534,-1.6534,-1.6534,-1.6534,-1.6534,-2.4654,-2.4804,-2.4809,-2.4809,-2.4808,-2.482,-2.4168,-2.3023,-2.303,-2.2611,-2.2039,-2.1954,-2.2314,-2.2879,-2.3135,-2.3642,-2.3929,-2.2706,-2.1675,-2.0912,-2.0572,-1.9305,-1.8479,-1.8489,-1.8243,-1.8013,-1.7968,-1.7941,-1.7915,-1.808,-1.8032,-1.8426,-1.8385,-1.8341,-1.7851,-1.7633,-1.7605,-1.6497,-1.6465,-1.6449,-1.6342,-1.636,-1.6745,-1.7046,-1.7386,-1.7623,-1.7743,-1.7743,-1.7526,-1.7224,-1.6876,-1.6501,-1.6246,-1.6136,-1.6039,-1.5856,-1.5814,-1.5814,-1.5814,-1.5814,-1.5814,-1.5814,-1.5814,-1.5814,-1.5814,-1.5785,-1.58,-1.5713,-1.5388,-1.5389,-1.5668,-1.5786,-1.577,-1.5741,-1.5785,-1.5816,-1.5874,-1.6065,-1.6771,-1.7577,-1.7978,-1.8441,-1.9214,-1.8412,-1.8271,-1.8391,-1.8171,-1.7827,-1.7973,-1.8249,-1.8352,-1.8464,-1.8051,-1.7666,-1.7666,-1.7813,-1.7746,-1.7666,-1.7188,-1.6866,-1.7188,-1.7229,-1.6993,-1.6795,-1.662,-1.6522,-1.6534,-1.6534,-1.6534,-1.6534,-1.6534,-1.6534,-1.6534,-1.6534,-1.6491,-2.3948,-2.4081,-2.4228,-2.4278,-2.4262,-2.4128,-2.3442,-2.2462,-2.2058,-2.1528,-2.0962,-2.0894,-2.1217,-2.1693,-2.2061,-2.252,-2.2766,-2.2185,-2.1243,-2.0508,-2.0019,-1.9312,-1.8748,-1.8398,-1.8263,-1.7902,-1.8622,-1.8811,-1.8767,-1.8686,-1.8755,-1.8629,-1.85,-1.7838,-1.7423,-1.742,-1.7069,-1.6368,-1.6137,-1.6196,-1.638,-1.5901,-1.6096,-1.6751,-1.7019,-1.7227,-1.7755,-1.7272,-1.7126,-1.6952,-1.6633,-1.6355,-1.6258,-1.6136,-1.5983,-1.5856,-1.5814,-1.5814,-1.5814,-1.5814,-1.5814,-1.5799,-1.5814,-1.5654,-1.5551,-1.5492,-1.5625,-1.5683,-1.5536,-1.5433,-1.5404,-1.5711,-1.5682,-1.5477,-1.5638,-1.5787,-1.5785,-1.5762,-1.5783,-1.6428,-1.6564,-1.7134,-1.7464,-1.7668,-1.7755,-1.7657,-1.8157,-1.7867,-1.7933,-1.8131,-1.7973,-1.792,-1.7531,-1.7258,-1.7216,-1.7258,-1.7299,-1.7188,-1.6993,-1.6752,-1.6837,-1.6795,-1.668,-1.6595,-1.6637,-1.6522,-1.6534,-1.6534,-1.6534,-1.6534,-1.6534,-1.6534,-1.6534,-1.6534,-1.6534,-2.2982,-2.2899,-2.3163,-2.3271,-2.3265,-2.3033,-2.2463,-2.1742,-2.1226,-2.0691,-2.0077,-1.9983,-2.025,-2.0382,-2.0843,-2.1165,-2.1352,-2.1588,-2.1085,-2.0305,-1.9818,-1.9205,-1.8821,-1.8789,-1.8624,-1.8099,-1.9347,-1.9986,-1.9969,-2.0,-1.9513,-1.8896,-1.8546,-1.7892,-1.6765,-1.6466,-1.6632,-1.622,-1.6009,-1.5951,-1.5953,-1.5292,-1.5488,-1.6062,-1.6408,-1.6803,-1.7277,-1.702,-1.6622,-1.6671,-1.6157,-1.608,-1.6151,-1.6011,-1.5814,-1.5814,-1.5712,-1.561,-1.561,-1.5639,-1.5639,-1.5697,-1.5683,-1.5522,-1.5225,-1.5088,-1.5186,-1.5389,-1.5406,-1.5323,-1.497,-1.5196,-1.5315,-1.524,-1.5477,-1.5654,-1.5708,-1.5431,-1.5057,-1.4627,-1.5343,-1.6135,-1.6555,-1.6838,-1.6907,-1.7057,-1.755,-1.7853,-1.7865,-1.788,-1.7639,-1.7504,-1.7188,-1.6951,-1.6921,-1.6921,-1.6921,-1.6879,-1.671,-1.668,-1.6595,-1.6552,-1.6595,-1.6752,-1.6752,-1.6607,-1.6534,-1.6534,-1.6534,-1.6534,-1.6534,-1.6534,-1.6534,-1.6534,-1.6436,-2.1905,-2.1366,-2.1426,-2.1447,-2.145,-2.1409,-2.1152,-2.0717,-2.0557,-2.0262,-1.9858,-1.9836,-1.9847,-1.9945,-1.9971,-2.0133,-2.0431,-2.079,-2.0773,-2.0159,-1.9741,-1.9182,-1.8282,-1.8523,-1.8478,-1.8496,-1.9426,-2.0219,-2.023,-2.0249,-1.985,-1.9718,-1.9085,-1.8127,-1.7189,-1.6705,-1.6489,-1.6466,-1.6279,-1.6305,-1.6532,-1.6254,-1.6043,-1.6345,-1.6336,-1.6601,-1.6886,-1.7037,-1.6873,-1.6376,-1.6255,-1.6239,-1.6136,-1.5898,-1.577,-1.5683,-1.5448,-1.5299,-1.5255,-1.5225,-1.5225,-1.5239,-1.5225,-1.5195,-1.4998,-1.4783,-1.4697,-1.477,-1.4931,-1.4938,-1.4627,-1.4755,-1.5068,-1.5264,-1.5312,-1.5325,-1.555,-1.5113,-1.437,-1.3819,-1.448,-1.5202,-1.5676,-1.6037,-1.6204,-1.6321,-1.661,-1.6745,-1.665,-1.69,-1.7068,-1.6995,-1.6909,-1.6723,-1.6565,-1.6607,-1.665,-1.6637,-1.6607,-1.6607,-1.6522,-1.6522,-1.6607,-1.668,-1.668,-1.6565,-1.6534,-1.6534,-1.638,-1.6337,-1.638,-1.6479,-1.6207,-1.5976,-1.5976,-2.0406,-2.0244,-2.0414,-2.059,-2.0688,-2.0483,-2.0273,-2.0047,-1.9791,-1.9617,-1.9574,-1.9619,-1.9738,-1.9774,-1.9732,-1.9719,-1.9835,-2.0175,-2.0209,-1.985,-1.9073,-1.8451,-1.7517,-1.7824,-1.7532,-1.7723,-1.8866,-1.9756,-1.9723,-1.9666,-1.9493,-1.9045,-1.8811,-1.8236,-1.7123,-1.6394,-1.6269,-1.6399,-1.6053,-1.6015,-1.6406,-1.5947,-1.5662,-1.6111,-1.5958,-1.6111,-1.6878,-1.6527,-1.6475,-1.6285,-1.6115,-1.5922,-1.5725,-1.558,-1.5448,-1.5389,-1.5195,-1.4982,-1.4845,-1.4783,-1.4797,-1.4814,-1.4783,-1.4658,-1.4501,-1.431,-1.4181,-1.4259,-1.4497,-1.457,-1.4246,-1.4369,-1.4498,-1.4491,-1.471,-1.5224,-1.54,-1.481,-1.4086,-1.3444,-1.4186,-1.4755,-1.4931,-1.5235,-1.5457,-1.561,-1.5802,-1.5812,-1.5721,-1.6153,-1.6708,-1.6714,-1.668,-1.6637,-1.6534,-1.6534,-1.6534,-1.6534,-1.6534,-1.6534,-1.6534,-1.6534,-1.6534,-1.6565,-1.6534,-1.6392,-1.6479,-1.6479,-1.6324,-1.6095,-1.6008,-1.5932,-1.5656,-1.5478,-1.5478,-1.8854,-1.8983,-1.9244,-1.9534,-1.9681,-1.9378,-1.9248,-1.9268,-1.8927,-1.8877,-1.9073,-1.9125,-1.9188,-1.9274,-1.922,-1.9147,-1.9087,-1.9351,-1.9619,-1.9174,-1.8354,-1.7653,-1.7295,-1.6994,-1.6798,-1.7219,-1.8069,-1.8873,-1.8925,-1.9112,-1.864,-1.8231,-1.8405,-1.7851,-1.6589,-1.6055,-1.5932,-1.5758,-1.532,-1.5203,-1.5143,-1.4499,-1.4459,-1.5675,-1.5159,-1.5576,-1.6551,-1.6479,-1.6044,-1.5914,-1.578,-1.561,-1.5225,-1.5195,-1.5134,-1.4907,-1.4876,-1.4658,-1.4501,-1.4388,-1.4388,-1.4374,-1.4388,-1.4214,-1.3986,-1.3901,-1.3782,-1.3835,-1.3967,-1.4111,-1.3855,-1.4014,-1.3947,-1.3864,-1.4351,-1.491,-1.5049,-1.4735,-1.4191,-1.3947,-1.4249,-1.437,-1.452,-1.4889,-1.5173,-1.5299,-1.5478,-1.5772,-1.5749,-1.6151,-1.6517,-1.6528,-1.6565,-1.6565,-1.6534,-1.6534,-1.6534,-1.6534,-1.6534,-1.6534,-1.6534,-1.6534,-1.6479,-1.638,-1.6194,-1.6151,-1.6293,-1.638,-1.6095,-1.582,-1.5599,-1.5377,-1.5197,-1.5017,-1.4926,-1.7695,-1.7107,-1.7175,-1.7194,-1.7302,-1.728,-1.7515,-1.7978,-1.7928,-1.8197,-1.8556,-1.8156,-1.7914,-1.7898,-1.799,-1.7627,-1.7665,-1.8437,-1.8873,-1.8426,-1.8118,-1.7707,-1.7311,-1.7233,-1.7093,-1.7216,-1.7661,-1.7854,-1.8181,-1.8709,-1.859,-1.7913,-1.728,-1.6667,-1.648,-1.5933,-1.5586,-1.5904,-1.5706,-1.5348,-1.4881,-1.407,-1.4487,-1.5143,-1.5459,-1.5521,-1.6022,-1.6175,-1.6093,-1.509,-1.5537,-1.5506,-1.5255,-1.5507,-1.4998,-1.4438,-1.4032,-1.4032,-1.3967,-1.3967,-1.3967,-1.3967,-1.3967,-1.3921,-1.3769,-1.3514,-1.3369,-1.3254,-1.3391,-1.3459,-1.3404,-1.3399,-1.3509,-1.3683,-1.3973,-1.4324,-1.446,-1.4694,-1.4179,-1.4013,-1.4199,-1.4106,-1.4145,-1.4569,-1.4941,-1.5017,-1.5132,-1.5424,-1.5739,-1.606,-1.6599,-1.6699,-1.6522,-1.6534,-1.6534,-1.6534,-1.6534,-1.6534,-1.6534,-1.6534,-1.6534,-1.6479,-1.6238,-1.6095,-1.6008,-1.6051,-1.6324,-1.6238,-1.582,-1.541,-1.5005,-1.4869,-1.4789,-1.4606,-1.4294,-1.6379,-1.6528,-1.6501,-1.6633,-1.6789,-1.6789,-1.706,-1.7353,-1.7187,-1.7333,-1.7587,-1.7203,-1.6931,-1.6883,-1.698,-1.6879,-1.6812,-1.7536,-1.7879,-1.7785,-1.7707,-1.7549,-1.7525,-1.7311,-1.7202,-1.7372,-1.7757,-1.7861,-1.7953,-1.8006,-1.7997,-1.7304,-1.7208,-1.706,-1.6497,-1.612,-1.5741,-1.5641,-1.5608,-1.5519,-1.5038,-1.4614,-1.452,-1.4969,-1.5043,-1.526,-1.5629,-1.5934,-1.5848,-1.5098,-1.5489,-1.5285,-1.4783,-1.4735,-1.4564,-1.3669,-1.3514,-1.3527,-1.3493,-1.3527,-1.3527,-1.3527,-1.3514,-1.348,-1.3446,-1.3357,-1.321,-1.321,-1.321,-1.321,-1.3207,-1.3221,-1.3315,-1.3496,-1.3749,-1.3722,-1.3941,-1.4259,-1.4264,-1.419,-1.4122,-1.4141,-1.4198,-1.4585,-1.4865,-1.479,-1.4853,-1.4993,-1.5318,-1.5638,-1.629,-1.6972,-1.6752,-1.6534,-1.6534,-1.6534,-1.6534,-1.6534,-1.6534,-1.6534,-1.6534,-1.6392,-1.6194,-1.6151,-1.6238,-1.6337,-1.638,-1.5832,-1.5186,-1.4778,-1.4365,-1.419,-1.4014,-1.3752,-1.3478,-1.5032,-1.5694,-1.5894,-1.6138,-1.6292,-1.6354,-1.6517,-1.6743,-1.6423,-1.6361,-1.6382,-1.611,-1.5906,-1.5976,-1.6186,-1.6342,-1.6063,-1.6763,-1.7082,-1.7201,-1.7155,-1.7085,-1.7024,-1.6908,-1.7135,-1.7126,-1.8205,-1.8191,-1.7838,-1.7826,-1.775,-1.6634,-1.707,-1.6919,-1.6408,-1.6014,-1.5705,-1.5171,-1.53,-1.5215,-1.4904,-1.4707,-1.4601,-1.4669,-1.478,-1.4992,-1.5295,-1.5983,-1.5864,-1.5,-1.5301,-1.509,-1.4438,-1.4438,-1.4181,-1.3514,-1.3391,-1.3297,-1.3183,-1.3116,-1.3173,-1.321,-1.321,-1.3267,-1.3232,-1.321,-1.321,-1.321,-1.321,-1.321,-1.3207,-1.3217,-1.3234,-1.3365,-1.3539,-1.3433,-1.3378,-1.3762,-1.3984,-1.39,-1.3976,-1.4417,-1.4559,-1.4792,-1.4825,-1.4638,-1.4588,-1.4689,-1.5079,-1.5542,-1.6068,-1.6896,-1.6752,-1.6534,-1.6534,-1.6534,-1.6534,-1.6534,-1.6534,-1.6479,-1.6479,-1.6392,-1.6194,-1.625,-1.625,-1.5522,-1.4926,-1.4744,-1.456,-1.4422,-1.419,-1.3552,-1.319,-1.2978,-1.2929,-1.3532,-1.4023,-1.4833,-1.5125,-1.5001,-1.5125,-1.5308,-1.5571,-1.5415,-1.5232,-1.5076,-1.4908,-1.4702,-1.4662,-1.5606,-1.5724,-1.4775,-1.7273,-1.724,-1.6906,-1.6921,-1.6672,-1.6634,-1.6882,-1.7217,-1.701,-1.8128,-1.8467,-1.8195,-1.8383,-1.7715,-1.6701,-1.688,-1.625,-1.5832,-1.5672,-1.5568,-1.5147,-1.5123,-1.4877,-1.4592,-1.4345,-1.4216,-1.4761,-1.5112,-1.5185,-1.4397,-1.5775,-1.5926,-1.4587,-1.5089,-1.509,-1.4533,-1.4533,-1.4149,-1.3615,-1.3581,-1.338,-1.2994,-1.301,-1.3185,-1.321,-1.321,-1.321,-1.321,-1.321,-1.321,-1.321,-1.321,-1.321,-1.3198,-1.322,-1.3207,-1.3288,-1.3357,-1.3353,-1.3272,-1.3288,-1.3472,-1.3485,-1.3882,-1.4511,-1.489,-1.5184,-1.5287,-1.5092,-1.5116,-1.5216,-1.5492,-1.5919,-1.617,-1.657,-1.6595,-1.6534,-1.6534,-1.6534,-1.6534,-1.6534,-1.6534,-1.6436,-1.638,-1.6293,-1.6238,-1.5744,-1.5522,-1.4468,-1.3836,-1.4154,-1.4376,-1.434,-1.3978,-1.3334,-1.3017,-1.2929,-1.2891,-1.2704,-1.2838,-1.3552,-1.4151,-1.4597,-1.4529,-1.4655,-1.4799,-1.4283,-1.4045,-1.4111,-1.4435,-1.4537,-1.4615,-1.4832,-1.5168,-1.478,-1.5549,-1.6082,-1.6444,-1.6583,-1.6837,-1.6982,-1.7323,-1.8038,-1.7808,-1.8503,-1.8753,-1.8463,-1.8758,-1.8425,-1.7668,-1.6967,-1.6497,-1.6093,-1.5674,-1.5516,-1.5676,-1.5542,-1.5402,-1.5117,-1.4969,-1.4645,-1.4257,-1.5262,-1.506,-1.4641,-1.6098,-1.5685,-1.5139,-1.54,-1.5155,-1.4738,-1.4769,-1.4406,-1.3749,-1.3835,-1.348,-1.3019,-1.3082,-1.3198,-1.321,-1.321,-1.321,-1.321,-1.321,-1.321,-1.321,-1.3245,-1.3267,-1.321,-1.321,-1.3198,-1.321,-1.3254,-1.3259,-1.3272,-1.331,-1.3607,-1.3895,-1.4352,-1.4925,-1.5235,-1.5537,-1.561,-1.563,-1.5706,-1.5793,-1.6007,-1.6132,-1.6321,-1.6441,-1.6522,-1.6534,-1.6534,-1.6534,-1.6534,-1.6534,-1.6534,-1.6436,-1.6337,-1.6423,-1.625,-1.5599,-1.5107,-1.4744,-1.4422,-1.4247,-1.4107,-1.3931,-1.3563,-1.3065,-1.2929,-1.2891,-1.2891,-1.1896,-1.1869,-1.2432,-1.3288,-1.4135,-1.41,-1.4126,-1.4218,-1.3769,-1.3682,-1.3991,-1.446,-1.4638,-1.4709,-1.5065,-1.5035,-1.5142,-1.5473,-1.5658,-1.6053,-1.6564,-1.6814,-1.7125,-1.7501,-1.7814,-1.8064,-1.838,-1.8436,-1.8439,-1.8873,-1.8746,-1.8247,-1.7556,-1.7167,-1.6763,-1.6179,-1.5823,-1.5901,-1.5866,-1.5757,-1.5405,-1.5235,-1.5221,-1.4625,-1.5492,-1.5575,-1.5514,-1.6446,-1.6551,-1.5892,-1.5686,-1.5687,-1.5286,-1.4864,-1.4676,-1.431,-1.3907,-1.367,-1.3301,-1.3191,-1.322,-1.321,-1.321,-1.321,-1.321,-1.321,-1.321,-1.3198,-1.3288,-1.3357,-1.3301,-1.3335,-1.3301,-1.3335,-1.3493,-1.3522,-1.3535,-1.3586,-1.402,-1.441,-1.4972,-1.5555,-1.5553,-1.585,-1.6039,-1.6086,-1.6095,-1.6158,-1.6258,-1.6321,-1.6283,-1.6391,-1.6522,-1.6534,-1.6534,-1.6534,-1.6534,-1.6534,-1.6479,-1.6337,-1.6324,-1.638,-1.6064,-1.5287,-1.5017,-1.5107,-1.4606,-1.3789,-1.3515,-1.3372,-1.3113,-1.2891,-1.2891,-1.2891,-1.2891,-1.1035,-1.1073,-1.1641,-1.2484,-1.3475,-1.3765,-1.374,-1.3633,-1.3842,-1.4202,-1.4539,-1.4746,-1.4833,-1.5034,-1.5622,-1.5635,-1.552,-1.6054,-1.625,-1.5989,-1.6369,-1.5975,-1.6015,-1.6502,-1.7276,-1.6809,-1.7337,-1.8005,-1.8107,-1.848,-1.8711,-1.8834,-1.8286,-1.7832,-1.7676,-1.694,-1.6129,-1.5354,-1.5251,-1.5197,-1.5106,-1.4944,-1.4982,-1.5276,-1.601,-1.6153,-1.604,-1.7234,-1.7291,-1.6431,-1.6411,-1.6266,-1.5747,-1.536,-1.5002,-1.4501,-1.4136,-1.3688,-1.3111,-1.3157,-1.3272,-1.3245,-1.321,-1.321,-1.321,-1.321,-1.321,-1.3198,-1.3446,-1.3501,-1.3501,-1.3547,-1.3493,-1.3454,-1.3596,-1.3821,-1.3847,-1.3788,-1.4175,-1.4495,-1.5487,-1.6284,-1.6145,-1.6124,-1.6405,-1.6489,-1.6484,-1.6509,-1.6509,-1.6429,-1.6341,-1.6378,-1.6534,-1.6534,-1.6534,-1.6534,-1.6534,-1.6534,-1.6337,-1.6107,-1.6008,-1.5976,-1.5567,-1.4926,-1.4652,-1.4606,-1.3836,-1.2968,-1.3055,-1.3152,-1.3017,-1.2891,-1.2891,-1.2891,-1.2891,-1.0399,-1.1008,-1.1207,-1.1687,-1.2348,-1.2622,-1.2845,-1.3134,-1.353,-1.3941,-1.4384,-1.4761,-1.5197,-1.553,-1.566,-1.5803,-1.5768,-1.5768,-1.5848,-1.5887,-1.6262,-1.6186,-1.6113,-1.6349,-1.6822,-1.6775,-1.7182,-1.7335,-1.7256,-1.7838,-1.8141,-1.827,-1.854,-1.8149,-1.7183,-1.648,-1.6111,-1.5424,-1.5253,-1.5202,-1.5056,-1.499,-1.5028,-1.5253,-1.6355,-1.6645,-1.625,-1.786,-1.8057,-1.7138,-1.7168,-1.6986,-1.6465,-1.6107,-1.5635,-1.4956,-1.4428,-1.4137,-1.3656,-1.3563,-1.3756,-1.3493,-1.3301,-1.3301,-1.3198,-1.321,-1.321,-1.3245,-1.345,-1.3454,-1.3313,-1.3663,-1.3676,-1.3493,-1.3651,-1.402,-1.412,-1.4007,-1.4145,-1.4397,-1.5144,-1.6218,-1.655,-1.6417,-1.6591,-1.668,-1.6637,-1.6522,-1.6522,-1.6522,-1.6471,-1.6484,-1.6534,-1.6534,-1.6534,-1.6534,-1.6436,-1.6337,-1.602,-1.5599,-1.5567,-1.5567,-1.5073,-1.4387,-1.4201,-1.3967,-1.3467,-1.3055,-1.3017,-1.2968,-1.2929,-1.2891,-1.2891,-1.2891,-1.2891,-0.9855,-1.0475,-1.0677,-1.1057,-1.1524,-1.1838,-1.2274,-1.2748,-1.3185,-1.3608,-1.407,-1.4645,-1.5029,-1.5255,-1.5359,-1.5477,-1.5536,-1.5551,-1.5741,-1.5784,-1.6011,-1.6004,-1.6157,-1.6436,-1.6575,-1.6633,-1.6738,-1.6841,-1.6901,-1.7215,-1.7575,-1.7974,-1.8404,-1.7725,-1.6932,-1.6657,-1.6321,-1.5607,-1.5195,-1.5243,-1.5198,-1.5188,-1.5247,-1.5769,-1.6515,-1.7188,-1.7374,-1.8037,-1.8919,-1.8141,-1.7871,-1.774,-1.7228,-1.6846,-1.6396,-1.5606,-1.4909,-1.4585,-1.4122,-1.4224,-1.4251,-1.3835,-1.3669,-1.3581,-1.3501,-1.3576,-1.3568,-1.356,-1.3523,-1.3403,-1.3395,-1.3789,-1.408,-1.3908,-1.4065,-1.4452,-1.5255,-1.52,-1.4742,-1.4931,-1.5299,-1.6257,-1.6896,-1.678,-1.6782,-1.6752,-1.671,-1.6637,-1.6522,-1.6522,-1.6522,-1.6534,-1.6534,-1.6534,-1.6534,-1.6534,-1.638,-1.6182,-1.5776,-1.5332,-1.5062,-1.5028,-1.4433,-1.3967,-1.392,-1.3779,-1.3467,-1.319,-1.3065,-1.2978,-1.2929,-1.2891,-1.2891,-1.2891,-1.2891,-0.9439,-0.9567,-1.004,-1.0495,-1.0971,-1.145,-1.1913,-1.2401,-1.2842,-1.3293,-1.3749,-1.4164,-1.4442,-1.4487,-1.4519,-1.4783,-1.5104,-1.5134,-1.5389,-1.561,-1.5711,-1.5755,-1.587,-1.6009,-1.612,-1.6297,-1.6405,-1.6432,-1.6712,-1.6825,-1.7126,-1.7523,-1.7713,-1.7227,-1.6935,-1.6701,-1.627,-1.5466,-1.5184,-1.5234,-1.5252,-1.5268,-1.5474,-1.6006,-1.6727,-1.742,-1.7861,-1.865,-1.8976,-1.8842,-1.879,-1.8223,-1.7821,-1.758,-1.7052,-1.6385,-1.5579,-1.5031,-1.4696,-1.4943,-1.4973,-1.4744,-1.4727,-1.441,-1.4071,-1.3998,-1.4044,-1.4072,-1.4106,-1.3789,-1.3624,-1.4213,-1.4749,-1.4754,-1.4791,-1.5586,-1.6718,-1.6641,-1.5944,-1.5928,-1.6241,-1.6811,-1.7126,-1.7118,-1.7105,-1.7229,-1.7188,-1.6837,-1.6723,-1.6522,-1.6522,-1.6534,-1.6534,-1.6534,-1.6534,-1.6534,-1.625,-1.6008,-1.5599,-1.5186,-1.488,-1.4479,-1.3978,-1.3647,-1.3732,-1.3552,-1.3238,-1.3065,-1.2978,-1.2891,-1.2891,-1.2891,-1.2891,-1.2891,-1.2891,-0.8561,-0.8958,-0.9119,-0.9469,-0.9981,-1.0485,-1.1207,-1.1923,-1.2139,-1.2401,-1.2808,-1.3297,-1.3657,-1.3985,-1.436,-1.4519,-1.4721,-1.4937,-1.5134,-1.5255,-1.5315,-1.5536,-1.5536,-1.5419,-1.5521,-1.5696,-1.5796,-1.5866,-1.6065,-1.6258,-1.6652,-1.7246,-1.6961,-1.6695,-1.65,-1.6389,-1.5721,-1.5324,-1.5139,-1.5173,-1.5252,-1.5272,-1.5496,-1.5841,-1.6525,-1.7112,-1.7529,-1.8129,-1.8441,-1.8865,-1.8276,-1.779,-1.8167,-1.7856,-1.7375,-1.6668,-1.6123,-1.5734,-1.5474,-1.6057,-1.6275,-1.5912,-1.608,-1.5475,-1.4913,-1.4491,-1.4606,-1.4641,-1.4842,-1.4704,-1.4548,-1.492,-1.4982,-1.4752,-1.5147,-1.6354,-1.7344,-1.7294,-1.6663,-1.6647,-1.6952,-1.718,-1.7478,-1.7517,-1.7544,-1.7747,-1.7626,-1.7146,-1.6837,-1.6637,-1.6522,-1.6522,-1.6534,-1.6534,-1.6534,-1.6534,-1.6151,-1.5776,-1.5454,-1.5005,-1.4468,-1.4014,-1.3515,-1.3382,-1.3505,-1.3334,-1.3027,-1.2891,-1.2891,-1.2891,-1.2891,-1.2891,-1.2891,-1.2891,-1.2891,-0.8077,-0.8398,-0.8594,-0.8918,-0.9239,-0.9755,-1.038,-1.0895,-1.1308,-1.163,-1.19,-1.2354,-1.2728,-1.3017,-1.3416,-1.3729,-1.3966,-1.436,-1.4721,-1.509,-1.4907,-1.5165,-1.5104,-1.4876,-1.4921,-1.5074,-1.5195,-1.527,-1.533,-1.5254,-1.5545,-1.6051,-1.5919,-1.5762,-1.5536,-1.5159,-1.4945,-1.4887,-1.497,-1.5022,-1.5096,-1.5213,-1.5273,-1.5445,-1.6138,-1.6557,-1.7043,-1.7665,-1.8409,-1.9051,-1.8541,-1.8474,-1.8652,-1.8243,-1.7812,-1.7223,-1.7054,-1.6702,-1.6476,-1.707,-1.7058,-1.702,-1.7281,-1.6833,-1.6071,-1.5504,-1.5359,-1.5286,-1.563,-1.584,-1.571,-1.5518,-1.4998,-1.4474,-1.5736,-1.7023,-1.7393,-1.7597,-1.7511,-1.7413,-1.7547,-1.7762,-1.7879,-1.7903,-1.7747,-1.7585,-1.7353,-1.6951,-1.671,-1.6595,-1.6522,-1.6534,-1.6534,-1.6534,-1.6534,-1.6479,-1.6151,-1.582,-1.5543,-1.505,-1.4236,-1.392,-1.3836,-1.361,-1.3372,-1.32,-1.3027,-1.2929,-1.2891,-1.2891,-1.2891,-1.2891,-1.2891,-1.2891,-1.2891,-0.7829,-0.787,-0.8439,-0.8594,-0.8716,-0.9199,-0.9478,-0.9558,-1.0437,-1.0905,-1.1084,-1.1516,-1.1788,-1.2031,-1.2401,-1.2777,-1.3132,-1.3617,-1.4154,-1.4892,-1.4596,-1.469,-1.4814,-1.4564,-1.4283,-1.4442,-1.4509,-1.43,-1.4256,-1.4248,-1.4398,-1.4522,-1.394,-1.3961,-1.4491,-1.4056,-1.397,-1.4221,-1.4568,-1.4825,-1.4871,-1.5043,-1.5277,-1.5383,-1.5964,-1.6618,-1.7458,-1.8269,-1.9029,-1.9375,-1.9344,-1.8998,-1.8827,-1.8692,-1.8234,-1.8081,-1.7979,-1.7763,-1.7614,-1.8043,-1.7852,-1.7893,-1.8148,-1.7833,-1.7134,-1.6553,-1.6345,-1.6157,-1.6454,-1.6789,-1.6774,-1.6857,-1.6564,-1.6409,-1.714,-1.8097,-1.8545,-1.8584,-1.8419,-1.8252,-1.8073,-1.8328,-1.8489,-1.8496,-1.838,-1.7787,-1.7353,-1.6993,-1.6795,-1.671,-1.6552,-1.6509,-1.6522,-1.6522,-1.6534,-1.6436,-1.6151,-1.5864,-1.5599,-1.5005,-1.4236,-1.4154,-1.4247,-1.3789,-1.3334,-1.3238,-1.3104,-1.3113,-1.3065,-1.2891,-1.2891,-1.2891,-1.2891,-1.2891,-1.2891,-0.7231,-0.728,-0.7863,-0.8077,-0.816,-0.8683,-0.8878,-0.8958,-0.9549,-1.0099,-1.0495,-1.0943,-1.1207,-1.1282,-1.1726,-1.2079,-1.2247,-1.2891,-1.3344,-1.3723,-1.3795,-1.4025,-1.4251,-1.3583,-1.3483,-1.3578,-1.3513,-1.3284,-1.3364,-1.3445,-1.3459,-1.3377,-1.3011,-1.3324,-1.3565,-1.3157,-1.328,-1.3689,-1.4143,-1.4545,-1.4672,-1.4714,-1.4859,-1.5017,-1.5472,-1.5913,-1.6412,-1.6389,-1.7165,-1.7729,-1.7208,-1.7392,-1.8048,-1.8684,-1.8932,-1.8883,-1.879,-1.8694,-1.8672,-1.8781,-1.8673,-1.8539,-1.8619,-1.8426,-1.8121,-1.7749,-1.745,-1.7242,-1.7266,-1.7625,-1.786,-1.8006,-1.8377,-1.8472,-1.8457,-1.9057,-1.9672,-1.9534,-1.9339,-1.9096,-1.8838,-1.8852,-1.9051,-1.8968,-1.8893,-1.8574,-1.8106,-1.7747,-1.7381,-1.7188,-1.6672,-1.66,-1.6509,-1.6522,-1.6522,-1.6436,-1.6238,-1.5864,-1.5555,-1.4915,-1.4272,-1.4236,-1.4247,-1.3695,-1.3286,-1.3238,-1.3286,-1.3409,-1.3324,-1.3017,-1.2891,-1.2891,-1.2891,-1.2891,-1.2891,-0.6972,-0.7021,-0.7363,-0.7496,-0.7614,-0.8111,-0.8357,-0.8431,-0.8918,-0.9319,-0.9686,-1.0302,-1.0687,-1.0764,-1.1207,-1.1394,-1.1531,-1.2211,-1.2601,-1.2879,-1.2926,-1.3132,-1.2973,-1.2637,-1.2602,-1.2636,-1.246,-1.2363,-1.2549,-1.2309,-1.2202,-1.2159,-1.2316,-1.237,-1.2502,-1.2663,-1.2856,-1.3555,-1.3934,-1.4144,-1.4451,-1.4717,-1.4727,-1.4846,-1.486,-1.5378,-1.6158,-1.627,-1.7186,-1.8108,-1.8299,-1.8303,-1.8957,-1.9407,-1.9492,-1.9458,-1.9438,-1.952,-1.9432,-1.943,-1.9426,-1.9206,-1.9942,-2.0087,-1.8968,-1.8617,-1.8471,-1.8296,-1.8345,-1.8651,-1.8387,-1.8439,-1.9766,-2.0366,-1.9805,-1.974,-2.0326,-2.0615,-2.0505,-2.0395,-2.0015,-1.9611,-1.96,-1.9103,-1.8991,-1.8765,-1.8419,-1.821,-1.7894,-1.7693,-1.7136,-1.6773,-1.6769,-1.6595,-1.6522,-1.6479,-1.638,-1.5964,-1.5555,-1.5511,-1.5242,-1.4652,-1.4201,-1.392,-1.36,-1.3334,-1.342,-1.3505,-1.3324,-1.2968,-1.2929,-1.2891,-1.2891,-1.2881,-1.2774,-0.6972,-0.6972,-0.6937,-0.6979,-0.7063,-0.7447,-0.7704,-0.787,-0.8349,-0.8602,-0.8756,-0.9637,-1.0049,-1.0273,-1.0485,-1.0629,-1.0885,-1.1287,-1.1707,-1.1888,-1.197,-1.2307,-1.2235,-1.185,-1.1619,-1.1594,-1.1568,-1.1611,-1.1755,-1.149,-1.1236,-1.0983,-1.0884,-1.0828,-1.1695,-1.1977,-1.204,-1.3307,-1.3833,-1.3741,-1.4245,-1.49,-1.4855,-1.4635,-1.4635,-1.548,-1.6589,-1.7301,-1.8077,-1.8737,-1.9223,-1.9259,-1.9452,-1.9762,-1.9876,-1.9856,-1.9987,-1.9927,-1.9833,-1.9926,-1.9754,-1.9919,-2.1173,-2.1191,-1.9985,-1.9731,-1.9591,-1.9551,-1.9585,-1.9252,-1.8982,-1.9434,-2.0873,-2.1504,-2.0763,-2.0454,-2.1051,-2.1455,-2.1356,-2.1286,-2.0897,-2.0398,-2.0058,-1.9528,-1.9273,-1.9051,-1.875,-1.8482,-1.8274,-1.8157,-1.7853,-1.745,-1.7231,-1.7021,-1.6637,-1.6479,-1.6423,-1.6281,-1.5964,-1.6163,-1.6064,-1.5062,-1.4514,-1.4514,-1.4201,-1.3789,-1.342,-1.3372,-1.3152,-1.292,-1.2929,-1.2891,-1.2891,-1.2832,-1.2618,-0.6972,-0.6985,-0.6562,-0.6605,-0.6894,-0.6683,-0.6774,-0.7231,-0.7787,-0.8077,-0.8193,-0.8635,-0.8999,-0.8999,-0.907,-0.9262,-0.9649,-1.0186,-1.0456,-1.0588,-1.11,-1.1605,-1.152,-1.0826,-1.035,-1.0399,-1.0661,-1.0733,-1.078,-1.0769,-1.0354,-0.9542,-1.0587,-1.0684,-1.0711,-1.1136,-1.1958,-1.3066,-1.376,-1.3815,-1.367,-1.4307,-1.5055,-1.5202,-1.5518,-1.6344,-1.6954,-1.6765,-1.7341,-1.8065,-1.8809,-1.9033,-1.9331,-1.975,-1.9963,-2.0057,-2.0214,-2.0224,-2.0168,-2.0225,-2.0044,-1.9953,-2.0945,-2.1521,-2.0959,-2.1274,-2.1135,-2.1016,-2.0773,-1.9867,-1.9714,-2.0588,-2.1695,-2.1313,-2.0702,-2.1309,-2.1918,-2.1615,-2.1263,-2.1215,-2.107,-2.0846,-2.0781,-2.0467,-2.04,-2.0112,-1.9656,-1.9411,-1.9229,-1.8933,-1.8555,-1.8274,-1.792,-1.7162,-1.671,-1.6565,-1.6479,-1.6337,-1.6194,-1.6151,-1.5788,-1.5107,-1.4698,-1.4835,-1.4606,-1.419,-1.3873,-1.3382,-1.32,-1.3017,-1.2929,-1.2891,-1.2881,-1.2578,-1.2157]},{"header":{"parameterUnit":"m.s-1","parameterCategory":1,"la1":31.0,"la2":29.5877,"lo1":-88.7671,"lo2":-86.6584,"dy":0.0162,"dx":0.0185,"nx":115,"ny":88,"refTime":"2024-03-15T00:00:00:Z","depth":0,"parameterNumber":3,"parameterNumberName":"V-component_of_WINDS"},"data":[0.0,0.0,0.0,0.0,0.0,0.0,0.0,0.0,0.0,0.0,0.0,0.0,0.0,0.0,0.0,0.0,0.0,0.0,0.0,0.0,0.0,0.0,0.0,0.0,0.0,0.0,0.0,0.0,0.0,0.0,0.0,0.0,0.0,0.0,0.0,0.0,0.0,0.0,0.0,0.0,0.0,0.0,0.0,0.0,0.0,0.0,0.0,0.0,0.0,0.0,0.0,0.0,0.0,0.0,0.0,0.0,0.0,0.0,0.0,0.0,0.0,0.0,0.0,0.0,0.0,0.0,0.0,0.0,0.0,0.0,0.0,0.0,0.0,0.0,0.0,0.0,0.0,0.0,0.0,0.0,0.0,0.0,0.0,0.0,0.0,0.0,0.0,0.0,0.0,0.0,0.0,0.0,0.0,0.0,0.0,0.0,0.0,0.0,0.0,0.0,0.0,0.0,0.0,0.0,0.0,0.0,0.0,0.0,0.0,0.0,0.0,0.0,0.0,0.0,0.0,0.0,0.0,0.0,0.0,0.0,0.0,0.0,0.0,0.0,0.0,0.0,0.0,0.0,0.0,0.0,0.0,0.0,0.0,0.0,0.0,0.0,0.0,0.0,0.0,0.0,0.0,0.0,0.0,0.0,0.0,0.0,0.0,0.0,0.0,0.0,0.0,0.0,0.0,0.0,0.0,0.0,0.0,0.0,0.0,0.0,0.0,0.0,0.0,0.0,0.0,0.0,0.0,0.0,0.0,0.0,0.0,0.0,0.0,0.0,0.0,0.0,0.0,0.0,0.0,0.0,0.0,0.0,0.0,0.0,0.0,0.0,0.0,0.0,0.0,0.0,0.0,0.0,0.0,0.0,0.0,0.0,0.0,0.0,0.0,0.0,0.0,0.0,0.0,0.0,0.0,0.0,0.0,0.0,0.0,0.0,0.0,0.0,0.0,0.0,0.0,0.0,0.0,0.0,0.0,0.0,0.0,0.0,0.0,0.0,0.0,0.0,0.0,0.0,0.0,0.0,0.0,0.0,0.0,0.0,0.0,0.0,0.0,0.0,0.0,0.0,0.0,0.0,0.0,0.0,0.0,0.0,0.0,0.0,0.0,0.0,0.0,0.0,0.0,0.0,0.0,0.0,0.0,0.0,0.0,0.0,0.0,0.0,0.0,0.0,0.0,0.0,0.0,0.0,0.0,0.0,0.0,0.0,0.0,0.0,0.0,0.0,0.0,0.0,0.0,0.0,0.0,0.0,0.0,0.0,0.0,0.0,0.0,0.0,0.0,0.0,0.0,0.0,0.0,0.0,0.0,0.0,0.0,0.0,0.0,0.0,0.0,0.0,0.0,0.0,0.0,0.0,0.0,0.0,0.0,0.0,0.0,0.0,0.0,0.0,0.0,0.0,0.0,0.0,0.0,0.0,0.0,0.0,0.0,0.0,0.0,0.0,0.0,0.0,0.0,0.0,0.0,0.0,0.0,0.0,0.0,0.0,0.0,0.0,0.0,0.0,0.0,0.0,0.0,0.0,0.0,0.0,0.0,0.0,0.0,0.0,0.0,0.0,0.0,0.0,0.0,0.0,0.0,0.0,0.0,0.0,0.0,0.0,0.0,0.0,0.0,0.0,0.0,0.0,0.0,0.0,0.0,0.0,0.0,0.0,0.0,0.0,0.0,0.0,0.0,0.0,0.0,0.0,0.0,0.0,0.0,0.0,0.0,0.0,0.0,0.0,0.0,0.0,0.0,0.0,0.0,0.0,0.0,0.0,0.0,0.0,0.0,0.0,0.0,0.0,0.0,0.0,0.0,0.0,0.0,0.0,0.0,0.0,0.0,0.0,0.0,0.0,0.0,0.0,0.0,0.0,0.0,0.0,0.0,0.0,0.0,0.0,0.0,0.0,0.0,0.0,0.0,0.0,0.0,0.0,0.0,0.0,0.0,0.0,0.0,0.0,0.0,0.0,0.0,0.0,0.0,0.0,0.0,0.0,0.0,0.0,0.0,0.0,0.0,0.0,0.0,0.0,0.0,0.0,0.0,0.0,0.0,0.0,0.0,0.0,0.0,0.0,0.0,0.0,0.0,0.0,0.0,0.0,0.0,0.0,0.0,0.0,0.0,0.0,0.0,0.0,0.0,0.0,0.0,0.0,0.0,0.0,0.0,0.0,0.0,0.0,0.0,0.0,0.0,0.0,0.0,0.0,0.0,0.0,0.0,0.0,0.0,0.0,0.0,0.0,0.0,0.0,0.0,0.0,0.0,0.0,0.0,0.0,0.0,0.0,0.0,0.0,0.0,0.0,0.0,0.0,0.0,0.0,0.0,0.0,0.0,0.0,0.0,0.0,0.0,0.0,0.0,0.0,0.0,0.0,0.0,0.0,0.0,0.0,0.0,0.0,0.0,0.0,0.0,0.0,0.0,0.0,0.0,0.0,0.0,0.0,0.0,0.0,0.0,0.0,0.0,0.0,0.0,0.0,0.0,0.0,0.0,0.0,0.0,0.0,0.0,0.0,0.0,0.0,0.0,0.0,0.0,0.0,0.0,0.0,0.0,0.0,0.0,0.0,0.0,0.0,0.0,0.0,0.0,0.0,0.0,0.0,0.0,0.0,0.0,0.0,0.0,0.0,0.0,0.0,0.0,0.0,0.0,0.0,0.0,0.0,0.0,0.0,0.0,0.0,0.0,0.0,0.0,0.0,0.0,0.0,0.0,0.0,0.0,0.0,0.0,0.0,0.0,0.0,0.0,0.0,0.0,0.0,0.0,0.0,0.0,0.0,0.0,0.0,0.0,0.0,0.0,0.0,0.0,0.0,0.0,0.0,0.0,0.0,0.0,0.0,0.0,0.0,0.0,0.0,0.0,0.0,0.0,0.0,0.0,0.0,0.0,0.0,0.0,0.0,0.0,0.0,0.0,0.0,0.0,0.0,0.0,0.0,0.0,0.0,0.0,0.0,0.0,0.0,0.0,0.0,0.0,0.0,0.0,0.0,0.0,0.0,0.0,0.0,0.0,0.0,0.0,0.0,0.0,0.0,0.0,0.0,0.0,0.0,0.0,0.0,0.0,0.0,0.0,0.0,0.0,0.0,0.0,0.0,0.0,0.0,0.0,0.0,0.0,0.0,0.0,0.0,0.0,0.0,0.0,0.0,0.0,0.0,0.0,0.0,0.0,0.0,0.0,0.0,0.0,0.0,0.0,0.0,0.0,0.0,0.0,0.0,0.0,0.0,0.0,0.0,0.0,0.0,0.0,0.0,0.0,0.0,0.0,0.0,0.0,0.0,0.0,0.0,0.0,0.0,0.0,0.0,0.0,0.0,0.0,0.0,0.0,0.0,0.0,0.0,0.0,0.0,0.0,0.0,0.0,0.0,0.0,0.0,0.0,0.0,0.0,0.0,0.0,0.0,0.0,0.0,0.0,0.0,0.0,0.0,0.0,0.0,0.0,0.0,0.0,0.0,0.0,0.0,0.0,0.0,0.0,0.0,0.0,0.0,0.0,0.0,0.0,0.0,0.0,0.0,0.0,0.0,0.0,0.0,0.0,0.0,0.0,0.0,0.0,0.0,0.0,0.0,0.0,0.0,0.0,0.0,0.0,0.0,0.0,0.0,0.0,0.0,0.0,0.0,0.0,0.0,0.0,0.0,0.0,0.0,0.0,0.0,0.0,0.0,0.0,0.0,0.0,0.0,0.0,0.0,0.0,0.0,0.0,0.0,0.0,0.0,0.0,0.0,0.0,0.0,0.0,0.0,0.0,0.0,0.0,0.0,0.0,0.0,0.0,0.0,0.0,0.0,0.0,0.0,0.0,0.0,0.0,0.0,0.0,0.0,0.0,0.0,0.0,0.0,0.0,0.0,0.0,0.0,0.0,0.0,0.0,0.0,0.0,0.0,0.0,0.0,0.0,0.0,0.0,0.0,0.0,0.0,0.0,0.0,0.0,0.0,0.0,0.0,0.0,0.0,0.0,0.0,0.0,0.0,0.0,0.0,0.0,0.0,0.0,0.0,0.0,0.0,0.0,0.0,0.0,0.0,0.0,0.0,0.0,0.0,0.0,0.0,0.0,0.0,0.0,0.0,0.0,0.0,0.0,0.0,0.0,0.0,0.0,0.0,0.0,0.0,0.0,0.0,0.0,0.0,0.0,0.0,0.0,0.0,0.0,0.0,0.0,0.0,0.0,0.0,0.0,0.0,0.0,0.0,0.0,0.0,0.0,0.0,0.0,0.0,0.0,0.0,0.0,0.0,0.0,0.0,0.0,0.0,0.0,0.0,0.0,0.0,-2.5337,0.0,0.0,0.0,0.0,0.0,0.0,0.0,0.0,0.0,0.0,0.0,0.0,0.0,0.0,0.0,0.0,0.0,0.0,0.0,0.0,0.0,0.0,0.0,0.0,0.0,0.0,0.0,0.0,0.0,0.0,0.0,0.0,0.0,0.0,0.0,0.0,0.0,0.0,0.0,0.0,0.0,0.0,0.0,0.0,0.0,0.0,0.0,0.0,0.0,0.0,0.0,0.0,0.0,0.0,0.0,0.0,0.0,0.0,0.0,0.0,0.0,0.0,0.0,0.0,0.0,0.0,0.0,0.0,0.0,0.0,0.0,0.0,0.0,0.0,0.0,0.0,0.0,0.0,0.0,0.0,0.0,0.0,0.0,0.0,0.0,0.0,0.0,0.0,0.0,0.0,0.0,0.0,0.0,0.0,0.0,0.0,0.0,0.0,0.0,0.0,0.0,0.0,0.0,0.0,0.0,0.0,0.0,0.0,0.0,0.0,-2.7006,-2.5371,-2.7363,-2.7496,-2.5476,0.0,0.0,0.0,0.0,0.0,0.0,0.0,0.0,0.0,0.0,0.0,0.0,0.0,0.0,0.0,0.0,0.0,0.0,0.0,0.0,0.0,0.0,0.0,0.0,0.0,0.0,0.0,0.0,0.0,0.0,0.0,0.0,0.0,0.0,0.0,0.0,0.0,0.0,0.0,0.0,0.0,0.0,0.0,0.0,0.0,0.0,0.0,0.0,0.0,0.0,0.0,0.0,0.0,0.0,0.0,0.0,0.0,0.0,0.0,0.0,0.0,0.0,0.0,0.0,0.0,0.0,0.0,0.0,0.0,0.0,0.0,0.0,0.0,0.0,0.0,0.0,0.0,0.0,0.0,0.0,0.0,0.0,0.0,0.0,0.0,0.0,0.0,0.0,0.0,0.0,0.0,0.0,0.0,0.0,0.0,0.0,0.0,0.0,0.0,0.0,0.0,0.0,0.0,0.0,0.0,0.0,0.0,0.0,0.0,0.0,0.0,0.0,-2.8404,-2.8626,-2.668,0.0,0.0,0.0,0.0,0.0,0.0,0.0,0.0,0.0,0.0,0.0,0.0,0.0,0.0,0.0,0.0,0.0,0.0,0.0,0.0,0.0,0.0,0.0,0.0,0.0,0.0,0.0,0.0,0.0,0.0,0.0,0.0,0.0,0.0,0.0,0.0,0.0,0.0,0.0,0.0,0.0,0.0,0.0,0.0,0.0,0.0,0.0,0.0,0.0,0.0,0.0,0.0,0.0,0.0,0.0,0.0,0.0,0.0,0.0,0.0,0.0,0.0,0.0,0.0,0.0,0.0,0.0,0.0,0.0,0.0,0.0,0.0,0.0,0.0,0.0,0.0,0.0,0.0,0.0,0.0,0.0,0.0,0.0,0.0,0.0,0.0,0.0,0.0,0.0,0.0,0.0,0.0,0.0,0.0,0.0,0.0,0.0,0.0,0.0,0.0,0.0,0.0,0.0,0.0,0.0,0.0,0.0,0.0,0.0,0.0,-2.6621,-2.8727,-2.9922,0.0,-3.0008,0.0,0.0,0.0,0.0,0.0,0.0,0.0,0.0,0.0,0.0,0.0,0.0,0.0,0.0,0.0,0.0,0.0,0.0,0.0,0.0,0.0,0.0,0.0,0.0,0.0,0.0,0.0,0.0,0.0,0.0,0.0,0.0,0.0,0.0,0.0,0.0,0.0,0.0,0.0,0.0,0.0,0.0,0.0,0.0,0.0,0.0,0.0,0.0,0.0,0.0,0.0,0.0,0.0,0.0,0.0,0.0,0.0,0.0,0.0,0.0,0.0,0.0,0.0,0.0,0.0,0.0,0.0,0.0,0.0,0.0,0.0,0.0,0.0,0.0,0.0,0.0,0.0,0.0,0.0,0.0,0.0,0.0,0.0,0.0,0.0,0.0,0.0,0.0,0.0,0.0,0.0,0.0,0.0,0.0,0.0,0.0,0.0,0.0,0.0,0.0,0.0,0.0,0.0,0.0,0.0,0.0,0.0,0.0,0.0,0.0,-2.6507,-2.8689,-2.9411,-2.9219,0.0,0.0,0.0,0.0,0.0,0.0,0.0,0.0,0.0,0.0,0.0,0.0,0.0,0.0,0.0,0.0,0.0,0.0,0.0,0.0,0.0,0.0,0.0,0.0,0.0,0.0,0.0,0.0,0.0,0.0,0.0,0.0,0.0,0.0,0.0,0.0,0.0,0.0,0.0,0.0,0.0,0.0,0.0,0.0,0.0,0.0,0.0,0.0,0.0,0.0,0.0,0.0,0.0,0.0,0.0,0.0,0.0,0.0,0.0,0.0,0.0,0.0,0.0,0.0,0.0,0.0,0.0,0.0,0.0,0.0,0.0,0.0,0.0,0.0,0.0,0.0,0.0,0.0,0.0,0.0,0.0,0.0,0.0,0.0,0.0,0.0,0.0,0.0,0.0,0.0,0.0,0.0,0.0,0.0,0.0,0.0,0.0,0.0,0.0,0.0,0.0,0.0,0.0,0.0,0.0,0.0,0.0,0.0,0.0,0.0,-2.5393,-2.6559,-2.9066,-2.9023,-2.8471,-2.7589,0.0,0.0,0.0,0.0,0.0,0.0,0.0,0.0,0.0,0.0,0.0,0.0,0.0,0.0,0.0,0.0,0.0,0.0,0.0,0.0,0.0,0.0,0.0,0.0,0.0,0.0,0.0,0.0,0.0,0.0,0.0,0.0,0.0,0.0,0.0,0.0,0.0,0.0,0.0,0.0,0.0,0.0,0.0,0.0,0.0,0.0,0.0,0.0,0.0,0.0,0.0,0.0,0.0,0.0,0.0,0.0,0.0,0.0,0.0,0.0,0.0,0.0,0.0,0.0,0.0,0.0,0.0,0.0,0.0,0.0,0.0,0.0,0.0,0.0,0.0,0.0,0.0,0.0,0.0,0.0,0.0,0.0,0.0,0.0,0.0,0.0,0.0,0.0,0.0,0.0,0.0,0.0,0.0,0.0,0.0,0.0,0.0,0.0,0.0,0.0,0.0,0.0,0.0,0.0,0.0,0.0,0.0,0.0,-2.7332,-2.5709,-2.6807,-3.0712,-2.935,-2.9146,0.0,0.0,0.0,0.0,0.0,0.0,0.0,0.0,0.0,0.0,0.0,0.0,0.0,0.0,0.0,0.0,0.0,0.0,0.0,0.0,0.0,0.0,0.0,0.0,0.0,0.0,0.0,0.0,0.0,0.0,0.0,0.0,0.0,0.0,0.0,0.0,0.0,0.0,0.0,0.0,0.0,0.0,0.0,0.0,0.0,0.0,0.0,0.0,0.0,0.0,0.0,0.0,0.0,0.0,0.0,0.0,0.0,0.0,0.0,0.0,0.0,0.0,0.0,0.0,0.0,0.0,0.0,0.0,0.0,0.0,0.0,0.0,0.0,0.0,0.0,0.0,0.0,0.0,0.0,0.0,0.0,0.0,0.0,0.0,0.0,0.0,0.0,0.0,0.0,0.0,0.0,0.0,0.0,0.0,0.0,0.0,0.0,0.0,0.0,0.0,0.0,0.0,0.0,0.0,0.0,0.0,0.0,0.0,0.0,-2.2878,-2.2987,-2.4276,-2.6791,-2.7232,-2.786,0.0,0.0,0.0,0.0,0.0,0.0,0.0,0.0,0.0,0.0,0.0,0.0,0.0,0.0,0.0,0.0,0.0,0.0,0.0,0.0,0.0,0.0,0.0,0.0,0.0,0.0,0.0,0.0,0.0,0.0,0.0,0.0,0.0,0.0,0.0,0.0,0.0,0.0,0.0,0.0,0.0,0.0,0.0,0.0,0.0,0.0,0.0,0.0,0.0,0.0,0.0,0.0,0.0,0.0,0.0,0.0,0.0,0.0,0.0,0.0,0.0,0.0,0.0,0.0,0.0,0.0,0.0,0.0,0.0,0.0,0.0,0.0,0.0,0.0,0.0,0.0,0.0,0.0,0.0,0.0,0.0,0.0,0.0,0.0,0.0,0.0,0.0,0.0,0.0,0.0,0.0,0.0,0.0,0.0,0.0,0.0,0.0,0.0,0.0,0.0,0.0,0.0,0.0,0.0,0.0,0.0,0.0,0.0,0.0,-1.914,0.0,-2.1677,-2.3583,-2.5448,-2.6419,0.0,0.0,0.0,0.0,0.0,0.0,0.0,0.0,0.0,0.0,0.0,0.0,0.0,0.0,0.0,0.0,0.0,0.0,0.0,0.0,0.0,0.0,0.0,0.0,0.0,0.0,0.0,0.0,0.0,0.0,0.0,0.0,0.0,0.0,0.0,0.0,0.0,0.0,0.0,0.0,0.0,0.0,0.0,0.0,0.0,0.0,0.0,0.0,0.0,0.0,0.0,0.0,0.0,0.0,0.0,0.0,0.0,0.0,0.0,0.0,0.0,0.0,0.0,0.0,0.0,0.0,0.0,0.0,0.0,0.0,0.0,0.0,0.0,0.0,0.0,0.0,0.0,0.0,0.0,0.0,0.0,0.0,0.0,0.0,0.0,0.0,0.0,0.0,0.0,0.0,0.0,0.0,0.0,0.0,0.0,0.0,0.0,0.0,0.0,0.0,0.0,0.0,0.0,0.0,0.0,0.0,0.0,0.0,-1.7874,-1.6746,-1.7523,-1.9153,-2.1704,-2.4062,-2.4963,0.0,0.0,0.0,0.0,0.0,0.0,0.0,0.0,0.0,0.0,0.0,0.0,0.0,0.0,0.0,0.0,0.0,0.0,0.0,0.0,0.0,0.0,0.0,0.0,0.0,0.0,0.0,0.0,0.0,0.0,0.0,0.0,0.0,0.0,0.0,0.0,0.0,0.0,0.0,0.0,0.0,0.0,0.0,0.0,0.0,0.0,0.0,0.0,0.0,0.0,0.0,0.0,0.0,0.0,0.0,0.0,0.0,0.0,0.0,0.0,0.0,0.0,0.0,0.0,0.0,0.0,0.0,0.0,0.0,0.0,0.0,0.0,0.0,0.0,0.0,0.0,0.0,0.0,0.0,0.0,0.0,0.0,0.0,0.0,0.0,0.0,0.0,0.0,0.0,0.0,0.0,0.0,0.0,0.0,0.0,0.0,0.0,0.0,0.0,0.0,0.0,0.0,0.0,0.0,0.0,0.0,0.0,0.0,0.0,-1.1001,-1.3469,-1.6228,-1.9002,-2.151,-2.368,0.0,0.0,0.0,0.0,0.0,0.0,0.0,0.0,0.0,0.0,0.0,0.0,0.0,0.0,0.0,0.0,0.0,0.0,0.0,0.0,0.0,0.0,0.0,0.0,0.0,0.0,0.0,0.0,0.0,0.0,0.0,0.0,0.0,0.0,0.0,0.0,0.0,0.0,0.0,0.0,0.0,0.0,0.0,0.0,0.0,0.0,0.0,0.0,0.0,0.0,0.0,0.0,0.0,0.0,0.0,0.0,0.0,0.0,0.0,0.0,0.0,0.0,0.0,0.0,0.0,0.0,0.0,0.0,0.0,0.0,0.0,0.0,0.0,0.0,0.0,0.0,0.0,0.0,0.0,0.0,0.0,0.0,0.0,0.0,0.0,0.0,0.0,0.0,0.0,0.0,0.0,0.0,0.0,0.0,0.0,0.0,0.0,0.0,0.0,0.0,0.0,0.0,0.0,0.0,0.0,0.0,0.0,0.0,0.0,-0.7733,-1.1218,-1.4434,-1.7306,-1.975,-2.2221,-2.4699,0.0,0.0,0.0,0.0,0.0,0.0,0.0,0.0,0.0,0.0,0.0,0.0,0.0,0.0,0.0,0.0,0.0,0.0,0.0,0.0,0.0,0.0,0.0,0.0,0.0,0.0,0.0,0.0,0.0,0.0,0.0,0.0,0.0,0.0,0.0,0.0,0.0,0.0,0.0,0.0,0.0,0.0,0.0,0.0,0.0,0.0,0.0,0.0,0.0,0.0,0.0,0.0,0.0,0.0,0.0,0.0,0.0,0.0,0.0,0.0,0.0,0.0,0.0,0.0,0.0,0.0,0.0,0.0,0.0,0.0,0.0,0.0,0.0,0.0,0.0,0.0,0.0,0.0,0.0,0.0,0.0,0.0,0.0,0.0,0.0,0.0,0.0,0.0,0.0,0.0,0.0,0.0,0.0,0.0,0.0,0.0,0.0,0.0,0.0,0.0,0.0,0.0,0.0,0.0,0.0,0.0,0.0,0.0,-0.6747,-1.05,-1.3756,-1.6392,-1.8774,-2.0735,0.0,0.0,0.0,0.0,0.0,0.0,0.0,0.0,0.0,0.0,0.0,0.0,0.0,0.0,0.0,0.0,0.0,0.0,0.0,0.0,0.0,0.0,0.0,0.0,0.0,0.0,0.0,0.0,0.0,0.0,0.0,0.0,0.0,0.0,0.0,0.0,0.0,0.0,0.0,0.0,0.0,0.0,0.0,0.0,0.0,0.0,0.0,0.0,0.0,0.0,0.0,0.0,0.0,0.0,0.0,0.0,0.0,0.0,0.0,0.0,0.0,0.0,0.0,0.0,0.0,0.0,0.0,0.0,0.0,0.0,0.0,0.0,0.0,0.0,0.0,0.0,0.0,0.0,0.0,0.0,0.0,0.0,0.0,0.0,0.0,0.0,0.0,0.0,0.0,0.0,0.0,0.0,0.0,0.0,0.0,0.0,0.0,0.0,0.0,0.0,0.0,0.0,0.0,0.0,0.0,0.0,0.0,0.0,0.0,-0.8082,-1.104,-1.3701,-1.6071,-1.8666,-2.0985,0.0,0.0,0.0,0.0,0.0,0.0,0.0,0.0,0.0,0.0,0.0,0.0,0.0,0.0,0.0,0.0,0.0,0.0,0.0,0.0,0.0,0.0,0.0,0.0,0.0,0.0,0.0,0.0,0.0,0.0,0.0,0.0,0.0,0.0,0.0,0.0,0.0,0.0,0.0,0.0,0.0,0.0,0.0,0.0,0.0,0.0,0.0,0.0,0.0,0.0,0.0,0.0,0.0,0.0,0.0,0.0,0.0,0.0,0.0,0.0,0.0,0.0,0.0,0.0,0.0,0.0,0.0,0.0,0.0,0.0,0.0,0.0,0.0,0.0,0.0,0.0,0.0,0.0,0.0,0.0,0.0,0.0,0.0,0.0,0.0,0.0,0.0,0.0,0.0,0.0,0.0,0.0,0.0,0.0,0.0,0.0,0.0,0.0,0.0,0.0,0.0,0.0,0.0,0.0,0.0,0.0,0.0,0.0,-0.6457,-0.9236,-1.1483,-1.3847,-1.6464,-1.8733,-2.0873,0.0,0.0,0.0,0.0,0.0,0.0,0.0,0.0,0.0,0.0,0.0,0.0,0.0,0.0,0.0,0.0,0.0,0.0,0.0,0.0,0.0,0.0,0.0,0.0,0.0,0.0,0.0,0.0,0.0,0.0,0.0,0.0,0.0,0.0,0.0,0.0,0.0,0.0,0.0,0.0,0.0,0.0,0.0,0.0,0.0,0.0,0.0,0.0,0.0,0.0,0.0,0.0,0.0,0.0,0.0,0.0,0.0,0.0,0.0,0.0,0.0,0.0,0.0,0.0,0.0,0.0,0.0,0.0,0.0,0.0,0.0,0.0,0.0,0.0,0.0,0.0,0.0,0.0,0.0,0.0,0.0,0.0,0.0,0.0,0.0,0.0,0.0,0.0,0.0,0.0,0.0,0.0,0.0,0.0,0.0,0.0,0.0,0.0,0.0,0.0,0.0,0.0,0.0,0.0,0.0,0.0,0.0,0.0,-0.6719,-1.0059,-1.1701,-1.4058,-1.7106,-1.8765,-2.0425,0.0,0.0,0.0,0.0,0.0,0.0,0.0,0.0,0.0,0.0,0.0,0.0,0.0,0.0,0.0,0.0,0.0,0.0,0.0,0.0,0.0,0.0,0.0,0.0,0.0,0.0,0.0,0.0,0.0,0.0,0.0,0.0,0.0,0.0,0.0,0.0,0.0,0.0,0.0,0.0,0.0,0.0,0.0,0.0,0.0,0.0,0.0,0.0,0.0,0.0,0.0,0.0,0.0,0.0,0.0,0.0,0.0,0.0,0.0,0.0,0.0,0.0,0.0,0.0,0.0,0.0,0.0,0.0,0.0,0.0,0.0,0.0,0.0,0.0,0.0,0.0,0.0,0.0,0.0,0.0,0.0,0.0,0.0,0.0,0.0,0.0,0.0,0.0,0.0,0.0,0.0,0.0,0.0,0.0,0.0,0.0,0.0,0.0,0.0,0.0,0.0,0.0,0.0,0.0,0.0,0.0,0.0,0.0,-0.6629,-0.9764,-1.1368,-1.3749,-1.6888,-1.7311,-1.8983,0.0,0.0,0.0,0.0,0.0,0.0,0.0,0.0,0.0,0.0,0.0,0.0,0.0,0.0,0.0,0.0,0.0,0.0,0.0,0.0,0.0,0.0,0.0,0.0,0.0,0.0,0.0,0.0,0.0,0.0,0.0,0.0,0.0,0.0,0.0,0.0,0.0,0.0,0.0,0.0,0.0,0.0,0.0,0.0,0.0,0.0,0.0,0.0,-2.1878,0.0,0.0,0.0,0.0,0.0,0.0,0.0,0.0,0.0,0.0,0.0,0.0,0.0,0.0,0.0,0.0,0.0,0.0,0.0,0.0,0.0,0.0,0.0,0.0,0.0,0.0,0.0,0.0,0.0,0.0,0.0,0.0,0.0,0.0,0.0,0.0,0.0,0.0,0.0,0.0,0.0,0.0,0.0,0.0,0.0,0.0,0.0,0.0,0.0,0.0,0.0,0.0,0.0,0.0,0.0,0.0,0.0,0.0,0.0,-0.5977,-0.9536,-1.0686,-1.3011,-1.6669,-1.6867,-1.8171,0.0,0.0,0.0,0.0,0.0,0.0,0.0,0.0,0.0,0.0,0.0,0.0,0.0,0.0,0.0,0.0,0.0,0.0,0.0,0.0,0.0,0.0,0.0,0.0,0.0,0.0,0.0,0.0,0.0,0.0,0.0,0.0,0.0,0.0,0.0,0.0,0.0,0.0,0.0,0.0,0.0,0.0,0.0,0.0,0.0,0.0,0.0,0.0,0.0,0.0,0.0,0.0,0.0,0.0,0.0,0.0,0.0,0.0,0.0,0.0,0.0,0.0,0.0,0.0,0.0,0.0,0.0,0.0,0.0,0.0,0.0,0.0,0.0,0.0,0.0,0.0,0.0,0.0,0.0,0.0,0.0,0.0,0.0,0.0,0.0,0.0,0.0,0.0,0.0,0.0,0.0,0.0,0.0,0.0,0.0,0.0,0.0,0.0,0.0,0.0,0.0,0.0,0.0,0.0,0.0,0.0,0.0,-0.3124,-0.5194,-0.9398,-0.9951,-1.2215,-1.6583,-1.6608,-1.7633,-1.9988,0.0,0.0,0.0,0.0,0.0,0.0,0.0,0.0,0.0,0.0,0.0,0.0,0.0,0.0,0.0,0.0,0.0,0.0,0.0,0.0,0.0,0.0,0.0,0.0,0.0,0.0,0.0,0.0,0.0,0.0,0.0,0.0,0.0,0.0,0.0,0.0,0.0,0.0,-1.48,-1.2677,0.0,0.0,0.0,0.0,0.0,0.0,0.0,0.0,-2.1826,0.0,0.0,0.0,0.0,0.0,0.0,0.0,0.0,0.0,0.0,0.0,0.0,0.0,0.0,0.0,0.0,0.0,0.0,0.0,0.0,0.0,0.0,0.0,0.0,0.0,0.0,0.0,0.0,0.0,0.0,0.0,0.0,0.0,0.0,0.0,0.0,0.0,0.0,0.0,0.0,0.0,0.0,0.0,0.0,0.0,0.0,0.0,0.0,0.0,0.0,0.0,0.0,0.0,0.0,0.0,0.0,-0.3071,-0.3097,-0.514,-0.9266,-0.9647,-1.1766,-1.5782,-1.5873,-1.6754,-1.8868,0.0,0.0,0.0,0.0,0.0,0.0,0.0,0.0,0.0,0.0,0.0,0.0,0.0,0.0,0.0,0.0,0.0,0.0,0.0,0.0,0.0,0.0,0.0,0.0,0.0,0.0,0.0,0.0,0.0,0.0,0.0,0.0,0.0,0.0,0.0,0.0,0.0,0.0,0.0,-1.1739,-1.2196,0.0,0.0,0.0,0.0,0.0,0.0,0.0,0.0,-2.132,0.0,0.0,0.0,0.0,0.0,0.0,0.0,0.0,0.0,0.0,0.0,0.0,0.0,0.0,0.0,0.0,0.0,0.0,0.0,0.0,0.0,0.0,0.0,0.0,0.0,0.0,0.0,0.0,0.0,0.0,0.0,0.0,0.0,0.0,0.0,0.0,0.0,0.0,0.0,0.0,0.0,0.0,0.0,0.0,0.0,0.0,0.0,0.0,0.0,0.0,0.0,0.0,0.0,0.0,0.0,-0.3606,-0.4126,-0.5871,-0.8951,-0.9857,-1.1996,-1.5411,-1.5601,-1.6709,0.0,0.0,0.0,0.0,0.0,0.0,0.0,0.0,0.0,0.0,0.0,0.0,0.0,0.0,0.0,0.0,0.0,0.0,0.0,0.0,0.0,0.0,0.0,0.0,0.0,0.0,0.0,0.0,0.0,0.0,0.0,0.0,0.0,0.0,0.0,0.0,0.0,0.0,0.0,0.0,-1.2263,-1.3188,-1.2997,0.0,0.0,0.0,0.0,0.0,0.0,-2.1213,-2.1784,0.0,0.0,0.0,0.0,0.0,0.0,0.0,0.0,0.0,0.0,0.0,0.0,0.0,0.0,0.0,0.0,0.0,0.0,0.0,0.0,0.0,0.0,0.0,0.0,0.0,0.0,0.0,0.0,0.0,0.0,0.0,0.0,0.0,0.0,0.0,0.0,0.0,0.0,0.0,0.0,0.0,0.0,0.0,0.0,0.0,0.0,0.0,0.0,0.0,0.0,0.0,0.0,0.0,0.0,0.0,-0.4181,-0.5032,-0.6572,-0.8655,-1.0003,-1.2091,-1.5118,-1.5262,-1.6587,0.0,0.0,0.0,0.0,0.0,0.0,0.0,0.0,0.0,0.0,0.0,0.0,0.0,0.0,0.0,0.0,0.0,0.0,0.0,0.0,0.0,0.0,0.0,0.0,0.0,0.0,0.0,0.0,0.0,0.0,0.0,0.0,0.0,0.0,0.0,0.0,0.0,0.0,0.0,0.0,0.0,-1.4394,-1.4237,-1.631,0.0,0.0,0.0,0.0,-2.1798,-2.234,0.0,0.0,0.0,0.0,0.0,0.0,0.0,0.0,0.0,0.0,0.0,0.0,0.0,0.0,0.0,0.0,0.0,0.0,0.0,0.0,0.0,0.0,0.0,0.0,0.0,0.0,0.0,0.0,0.0,0.0,0.0,0.0,0.0,0.0,0.0,0.0,0.0,0.0,0.0,0.0,0.0,0.0,0.0,0.0,0.0,0.0,0.0,0.0,0.0,0.0,0.0,0.0,0.0,0.0,0.0,0.0,-0.4242,-0.5083,-0.6472,-0.8508,-0.953,-1.152,-1.466,-1.4488,-1.5762,0.0,0.0,0.0,0.0,0.0,0.0,0.0,0.0,0.0,0.0,0.0,0.0,0.0,0.0,0.0,0.0,0.0,0.0,0.0,0.0,0.0,0.0,0.0,0.0,0.0,0.0,0.0,0.0,0.0,0.0,0.0,0.0,0.0,0.0,0.0,0.0,0.0,0.0,0.0,0.0,0.0,-1.5453,-1.4599,-1.7225,-1.9002,0.0,0.0,-2.1019,-2.3003,-2.3222,0.0,0.0,0.0,0.0,0.0,0.0,0.0,0.0,0.0,0.0,0.0,0.0,0.0,0.0,0.0,0.0,0.0,0.0,0.0,0.0,0.0,0.0,0.0,0.0,0.0,0.0,0.0,0.0,0.0,0.0,0.0,0.0,0.0,0.0,0.0,0.0,0.0,0.0,0.0,0.0,0.0,0.0,0.0,0.0,0.0,0.0,0.0,0.0,0.0,0.0,0.0,0.0,0.0,0.0,0.0,-0.5199,-0.5617,-0.6493,-0.7588,-0.9105,-1.0459,-1.2115,-1.4065,-1.4311,-1.5704,0.0,0.0,0.0,0.0,0.0,0.0,0.0,0.0,0.0,0.0,0.0,0.0,0.0,0.0,0.0,0.0,0.0,0.0,0.0,0.0,0.0,0.0,0.0,0.0,0.0,0.0,0.0,0.0,0.0,0.0,0.0,0.0,0.0,0.0,0.0,0.0,0.0,0.0,0.0,0.0,0.0,0.0,-1.7332,-1.9142,0.0,0.0,0.0,-2.238,-2.4167,0.0,0.0,0.0,0.0,0.0,0.0,0.0,0.0,0.0,0.0,0.0,0.0,0.0,0.0,0.0,0.0,0.0,0.0,0.0,0.0,0.0,0.0,0.0,0.0,0.0,0.0,0.0,0.0,0.0,0.0,0.0,0.0,0.0,0.0,0.0,0.0,0.0,0.0,0.0,0.0,0.0,0.0,0.0,0.0,0.0,0.0,0.0,0.0,0.0,0.0,0.0,0.0,0.0,0.0,0.0,0.0,0.0,-0.6901,-0.7867,-0.8701,-0.9472,-1.1166,-1.2552,-1.3592,-1.4205,0.0,0.0,0.0,0.0,0.0,0.0,0.0,0.0,0.0,0.0,0.0,0.0,0.0,0.0,0.0,0.0,0.0,0.0,0.0,0.0,0.0,0.0,0.0,0.0,0.0,0.0,0.0,-1.6547,0.0,0.0,0.0,0.0,0.0,0.0,0.0,0.0,0.0,0.0,0.0,0.0,0.0,0.0,-1.9543,-1.9799,-2.1137,-2.2486,0.0,0.0,-2.3916,-2.5085,-2.5159,-2.4668,0.0,0.0,0.0,0.0,0.0,0.0,0.0,0.0,0.0,0.0,0.0,0.0,0.0,0.0,0.0,0.0,0.0,0.0,0.0,0.0,0.0,0.0,0.0,0.0,0.0,0.0,0.0,0.0,0.0,0.0,0.0,0.0,0.0,0.0,0.0,0.0,0.0,0.0,0.0,0.0,0.0,0.0,0.0,0.0,0.0,0.0,0.0,0.0,0.0,0.0,0.0,0.0,0.0,0.0,-0.729,-0.7456,-0.8631,-0.928,-0.9361,-1.0926,-1.2391,-1.3575,-1.4013,-1.5294,0.0,0.0,0.0,0.0,0.0,0.0,0.0,0.0,0.0,0.0,0.0,0.0,0.0,0.0,0.0,0.0,0.0,0.0,0.0,0.0,0.0,0.0,0.0,0.0,0.0,0.0,0.0,0.0,0.0,0.0,0.0,0.0,0.0,0.0,0.0,0.0,0.0,0.0,0.0,0.0,0.0,-2.0876,-2.1098,-2.3004,-2.4463,0.0,-2.5214,-2.5509,-2.5644,-2.6306,-2.6143,-2.4082,0.0,0.0,0.0,0.0,0.0,0.0,0.0,0.0,0.0,0.0,0.0,0.0,0.0,0.0,0.0,0.0,0.0,0.0,0.0,0.0,0.0,0.0,0.0,0.0,0.0,0.0,0.0,0.0,0.0,0.0,0.0,0.0,0.0,0.0,0.0,0.0,0.0,0.0,0.0,0.0,0.0,0.0,0.0,0.0,0.0,0.0,0.0,0.0,0.0,0.0,0.0,0.0,0.0,-0.8061,-0.8303,-0.9,-0.9779,-1.0836,-1.195,-1.3005,-1.3935,-1.4584,-1.5598,0.0,0.0,0.0,0.0,0.0,0.0,0.0,0.0,0.0,0.0,0.0,0.0,0.0,0.0,0.0,0.0,0.0,0.0,0.0,0.0,0.0,0.0,0.0,0.0,0.0,0.0,0.0,0.0,-1.8043,-1.8601,-1.9833,0.0,0.0,0.0,0.0,0.0,0.0,0.0,0.0,0.0,0.0,-2.2224,-2.2461,-2.4106,0.0,0.0,-2.5701,-2.585,-2.6063,-2.5986,-2.5449,-2.4355,-2.3525,0.0,0.0,0.0,0.0,0.0,0.0,0.0,0.0,0.0,0.0,0.0,0.0,0.0,0.0,0.0,0.0,0.0,0.0,0.0,0.0,0.0,0.0,0.0,0.0,0.0,0.0,0.0,0.0,0.0,0.0,0.0,0.0,0.0,0.0,0.0,0.0,0.0,0.0,0.0,0.0,0.0,0.0,0.0,0.0,0.0,0.0,0.0,0.0,0.0,0.0,0.0,0.0,-0.898,-0.9169,-0.9517,-1.0401,-1.1772,-1.2573,-1.3373,-1.4204,-1.4991,-1.5699,0.0,0.0,0.0,0.0,0.0,0.0,0.0,0.0,0.0,0.0,0.0,0.0,0.0,0.0,0.0,0.0,0.0,0.0,0.0,0.0,0.0,0.0,0.0,0.0,0.0,0.0,0.0,0.0,-1.9293,-1.9675,-1.9709,0.0,0.0,0.0,0.0,0.0,0.0,0.0,0.0,0.0,0.0,-2.3252,-2.3548,-2.4756,-2.5664,-2.5937,-2.5567,-2.5469,-2.5742,-2.543,-2.4873,-2.4316,0.0,0.0,0.0,0.0,0.0,0.0,0.0,0.0,0.0,0.0,0.0,0.0,0.0,0.0,0.0,0.0,0.0,0.0,0.0,0.0,0.0,0.0,0.0,0.0,0.0,0.0,0.0,-1.0624,0.0,0.0,-1.0134,0.0,0.0,0.0,0.0,0.0,0.0,0.0,0.0,0.0,0.0,0.0,0.0,0.0,0.0,0.0,0.0,0.0,0.0,0.0,0.0,0.0,0.0,-1.0046,-1.006,-1.0408,-1.0982,-1.1819,-1.2573,-1.3425,-1.4195,-1.4991,-1.5491,-1.5769,0.0,0.0,0.0,0.0,0.0,0.0,0.0,0.0,0.0,0.0,0.0,0.0,0.0,0.0,0.0,0.0,0.0,0.0,0.0,0.0,0.0,0.0,0.0,0.0,0.0,0.0,-2.0806,-2.1027,-2.0626,0.0,0.0,0.0,0.0,0.0,0.0,0.0,0.0,0.0,-1.9761,-2.2083,-2.3864,-2.4273,-2.4805,-2.5098,-2.5117,-2.4746,-2.4482,-2.4531,-2.4824,-2.4785,0.0,0.0,0.0,0.0,0.0,0.0,0.0,0.0,0.0,0.0,0.0,0.0,0.0,0.0,0.0,0.0,0.0,0.0,0.0,0.0,0.0,0.0,0.0,0.0,0.0,0.0,0.0,-1.1136,-1.1136,0.0,0.0,0.0,0.0,0.0,0.0,0.0,0.0,0.0,0.0,0.0,-1.1603,-1.2078,0.0,0.0,0.0,0.0,0.0,0.0,0.0,0.0,0.0,0.0,0.0,0.0,-1.012,-1.0134,-1.0946,-1.1675,-1.2194,-1.3237,-1.4087,-1.4592,-1.5138,-1.5699,-1.6396,0.0,0.0,0.0,0.0,0.0,0.0,0.0,0.0,0.0,0.0,0.0,0.0,0.0,0.0,0.0,0.0,0.0,0.0,0.0,0.0,0.0,0.0,0.0,0.0,0.0,-1.924,0.0,0.0,0.0,0.0,0.0,0.0,0.0,0.0,0.0,0.0,-1.8986,-2.0384,-2.1492,-2.2882,-2.3838,-2.3975,-2.4365,-2.4736,0.0,0.0,0.0,0.0,0.0,0.0,0.0,0.0,0.0,0.0,0.0,0.0,0.0,0.0,-3.1295,-2.7992,-2.7073,-2.708,-2.794,0.0,0.0,0.0,0.0,0.0,0.0,0.0,0.0,0.0,0.0,0.0,0.0,0.0,0.0,-1.1583,-1.157,-1.1476,0.0,0.0,0.0,0.0,0.0,0.0,0.0,0.0,-1.1944,-1.2151,-1.1968,-1.254,-1.2667,-1.2305,-1.2211,-1.2141,0.0,0.0,0.0,0.0,0.0,0.0,0.0,0.0,-1.0721,-1.0384,-1.1264,-1.2027,-1.2594,-1.3327,-1.4098,-1.4795,-1.5186,-1.5869,-1.6758,-1.7111,-1.7549,0.0,0.0,0.0,0.0,0.0,0.0,0.0,0.0,0.0,0.0,0.0,0.0,0.0,0.0,0.0,0.0,0.0,0.0,0.0,0.0,0.0,0.0,0.0,-2.0101,0.0,0.0,0.0,0.0,0.0,0.0,0.0,0.0,0.0,-1.9485,-2.0439,-2.1485,-2.2395,-2.3115,-2.3564,-2.3564,0.0,0.0,0.0,0.0,0.0,0.0,0.0,-2.4687,-2.4814,-2.4639,-2.5035,-2.6832,-2.9395,-3.1548,-3.2071,0.0,0.0,-3.0465,-2.9316,-2.8973,-2.9718,-2.9387,-2.923,-3.0268,-3.0864,-3.1175,0.0,0.0,0.0,0.0,-1.0431,0.0,0.0,0.0,-1.1797,-1.1911,0.0,-1.1603,0.0,0.0,0.0,0.0,-1.1035,-1.159,0.0,0.0,-1.2051,-1.2171,-1.1957,-1.2573,-1.2612,-1.2358,-1.2605,-1.252,-1.1955,-1.1303,0.0,0.0,0.0,0.0,0.0,0.0,-1.1821,-1.0808,-1.1415,-1.2125,-1.285,-1.2922,-1.3562,-1.4719,-1.5195,-1.5822,-1.6813,-1.7288,-1.7769,-1.8221,-1.9208,0.0,0.0,0.0,0.0,0.0,0.0,0.0,0.0,0.0,0.0,0.0,0.0,0.0,0.0,0.0,0.0,0.0,0.0,0.0,0.0,-2.0202,0.0,0.0,0.0,0.0,0.0,0.0,0.0,0.0,0.0,-2.0928,-2.0125,-2.1408,-2.2529,-2.2539,0.0,0.0,0.0,0.0,-2.3154,-2.3193,-2.3525,-2.3809,-2.3838,-2.4492,-2.4873,-2.4482,0.0,0.0,-2.8296,-3.0036,-3.1448,-3.2062,-3.2679,-3.337,-3.4261,-3.2604,-3.1518,-3.1991,-3.1074,-3.0619,-3.1229,-3.2037,-3.2806,-0.7492,0.0,0.0,0.0,0.0,-1.1307,-1.2077,-1.2908,-1.2639,-1.2567,-1.2553,-1.2178,0.0,0.0,0.0,0.0,0.0,0.0,-1.1817,-1.1777,-1.2345,-1.2654,-1.2587,-1.2899,-1.3033,-1.2946,-1.2889,-1.2735,-1.254,-1.169,-1.133,-1.1369,0.0,0.0,0.0,0.0,-1.1282,-1.1455,-1.2189,-1.2508,-1.2467,-1.3327,-1.4119,-1.4785,-1.5195,-1.6022,-1.7323,-1.7165,-1.7734,-1.9271,-1.8907,0.0,0.0,0.0,0.0,0.0,0.0,0.0,0.0,0.0,0.0,0.0,0.0,0.0,0.0,0.0,0.0,0.0,0.0,0.0,-2.0816,-2.1008,-2.1351,0.0,0.0,0.0,0.0,0.0,0.0,0.0,0.0,0.0,-2.2074,-2.262,-2.2959,0.0,0.0,-2.3144,-2.3144,-2.3144,-2.3252,-2.3564,-2.3711,0.0,-2.4189,-2.4199,-2.4219,-2.4385,-2.596,-2.7619,-2.8556,-3.0174,-3.1497,-3.2068,-3.2014,-3.1976,-3.2215,-3.1876,-3.1554,-3.1887,-3.1254,-3.1196,-3.2761,-3.3211,-3.3549,-0.7168,-0.7511,-0.7957,-0.8876,-0.999,-1.0802,-1.1649,-1.2529,-1.2698,-1.2822,-1.2802,-1.2432,-1.2004,-1.1503,-1.139,0.0,0.0,0.0,-1.2037,-1.2058,-1.2412,-1.2572,-1.2592,-1.2879,-1.2966,-1.2832,-1.2545,-1.2472,-1.2459,-1.1623,-1.1169,-1.1048,0.0,-1.1487,-1.1434,-1.1841,-1.1919,-1.1803,-1.2501,-1.2776,-1.2545,-1.3403,-1.4092,-1.4521,-1.4941,-1.5796,-1.7135,-1.6863,-1.739,-1.8976,-1.8437,-1.8434,0.0,0.0,0.0,0.0,0.0,0.0,0.0,0.0,0.0,0.0,0.0,-1.9399,-1.8406,0.0,0.0,0.0,-1.8446,-2.015,-2.1779,-2.1813,0.0,0.0,0.0,0.0,0.0,0.0,0.0,-2.2116,-2.2065,-2.2142,-2.2812,-2.3027,-2.3144,-2.3144,-2.3144,-2.3144,-2.3144,0.0,-2.3232,-2.3486,-2.3682,-2.3877,-2.4131,-2.4092,-2.4303,-2.5007,-2.6619,-2.8192,-2.901,-3.0386,-3.143,-3.175,-3.1612,-3.1323,-3.111,-3.1085,-3.1145,-3.1396,-3.1151,-3.1451,-3.3087,-3.3551,-3.4043,-0.698,-0.6739,-0.6722,-0.7267,-0.8145,-0.9346,-1.0247,-1.0946,-1.217,-1.2662,-1.2643,-1.2432,-1.2285,-1.2245,-1.1991,0.0,-1.145,-1.2011,-1.2245,-1.2231,-1.2231,-1.2231,-1.2245,-1.2512,-1.2498,-1.2225,-1.1964,-1.1837,-1.181,-1.1249,-1.0955,-1.1014,-1.2189,-1.2512,-1.1983,-1.3167,-1.3209,-1.1931,-1.2569,-1.2891,-1.2891,-1.333,-1.375,-1.4131,-1.4551,-1.5309,-1.6461,-1.6465,-1.6907,-1.7761,-1.7796,-1.7858,-1.8024,0.0,0.0,0.0,0.0,0.0,0.0,0.0,0.0,0.0,0.0,0.0,0.0,0.0,0.0,0.0,-1.9039,0.0,-2.193,-2.2469,0.0,0.0,0.0,-2.3224,-2.2309,-2.1848,-2.1829,-2.2646,0.0,0.0,-2.2432,-2.2803,-2.3047,-2.3076,-2.3028,-2.3144,-2.3144,-2.3144,-2.3144,-2.3174,-2.3477,-2.373,-2.374,-2.4085,-2.4726,-2.5637,-2.7031,-2.8277,-2.9235,-3.0367,-3.1167,-3.1235,-3.126,-3.111,-3.0633,-3.0557,-3.0545,-3.052,-3.0778,-3.1341,-3.2307,-3.3129,-3.3988,-0.7102,-0.7024,-0.6919,-0.7379,-0.8216,-0.9286,-1.0369,-1.1461,-1.1564,-1.1581,-1.1563,-1.2058,-1.2178,-1.1971,-1.1897,-1.1703,-1.1443,-1.1804,-1.1857,-1.1637,-1.1637,-1.1637,-1.1637,-1.171,-1.1703,-1.163,-1.1563,-1.153,-1.1503,-1.0949,-1.0725,-1.0698,-1.1204,-1.1508,-1.1711,-1.1667,-1.193,-1.2618,-1.2822,-1.2891,-1.2949,-1.3603,-1.398,-1.4077,-1.4561,-1.5365,-1.6451,-1.6342,-1.6543,-1.7185,-1.6924,-1.6776,-1.6868,-1.7255,0.0,0.0,0.0,0.0,0.0,0.0,0.0,0.0,0.0,-1.9079,-1.8639,0.0,-1.8912,0.0,-1.9523,-2.0969,-2.2653,-2.2602,0.0,0.0,-2.4332,-2.4426,-2.4297,-2.35,-2.2952,-2.2746,-2.195,-2.1516,-2.2002,-2.2129,-2.2305,-2.2617,-2.2939,-2.3144,-2.3144,-2.3144,-2.3144,-2.3154,-2.3242,-2.3291,-2.332,-2.4119,-2.4799,-2.5037,-2.6724,-2.8128,-2.8383,-2.9408,-3.0181,-3.0168,-3.0168,-3.0118,-2.9993,-2.998,-2.998,-2.998,-3.0099,-3.0419,-3.1328,-3.2307,-3.2877,-0.6966,-0.6844,-0.6831,-0.698,-0.7399,-0.8488,-0.9556,-1.0584,-1.0345,-1.0541,-1.0911,-1.0785,-1.0812,-1.0931,-1.1045,-1.1158,-1.1263,-1.1536,-1.1583,-1.143,-1.143,-1.143,-1.143,-1.143,-1.143,-1.1416,-1.1162,-1.1042,-1.1009,-1.0454,-1.0228,-1.0221,-1.0156,-1.0465,-1.1044,-1.1372,-1.182,-1.2403,-1.2715,-1.2891,-1.29,-1.3516,-1.3945,-1.4068,-1.4365,-1.4864,-1.5721,-1.5701,-1.6104,-1.6924,-1.6814,-1.6871,-1.7166,-1.7298,-1.7217,0.0,0.0,0.0,0.0,0.0,0.0,0.0,0.0,0.0,0.0,0.0,-1.9528,-2.0277,-2.09,-2.1874,-2.3367,-2.3215,-2.3315,-2.3942,-2.4519,-2.4623,-2.402,-2.349,-2.2906,-2.2412,-2.1551,-2.1155,-2.183,-2.1709,-2.1758,-2.2168,-2.2432,-2.2725,-2.3066,-2.3144,-2.3144,-2.3144,-2.3144,-2.3144,-2.3144,-2.4039,-2.4872,-2.5287,-2.6793,-2.8195,-2.8451,-2.8994,-2.9415,-2.9402,-2.9214,-2.9051,-2.9038,-2.9038,-2.9038,-2.9051,-2.9038,-2.949,-3.0624,-3.1007,-3.1194,-0.6746,-0.6512,-0.6624,-0.6522,-0.6373,-0.7332,-0.8311,-0.913,-0.8985,-0.9523,-1.0432,-0.9276,-0.9209,-0.9922,-1.0137,-1.0511,-1.1015,-1.1256,-1.1349,-1.1316,-1.1316,-1.1316,-1.1316,-1.1316,-1.1289,-1.1236,-1.0748,-1.0544,-1.0434,-0.9893,-0.9626,-0.9613,-0.9276,-0.9453,-1.0139,-1.152,-1.2193,-1.1981,-1.2607,-1.3008,-1.2959,-1.3379,-1.376,-1.4058,-1.4125,-1.4356,-1.4834,-1.507,-1.5693,-1.6811,-1.688,-1.7243,-1.7925,-1.7535,-1.7247,0.0,-1.7476,0.0,0.0,0.0,0.0,0.0,0.0,0.0,0.0,-1.942,-2.0384,-2.2564,-2.2521,-2.2801,-2.3778,-2.3872,-2.3679,-2.3286,-2.4117,-2.4226,-2.3123,-2.2838,-2.2533,-2.2085,-2.1141,-2.0797,-2.135,-2.125,-2.123,-2.1602,-2.2004,-2.2257,-2.2783,-2.293,-2.291,-2.3055,-2.3219,-2.3443,-2.3549,-2.4314,-2.5261,-2.5755,-2.7041,-2.821,-2.8649,-2.875,-2.8825,-2.8787,-2.8473,-2.8172,-2.8109,-2.8147,-2.8147,-2.8197,-2.8122,-2.8502,-2.9639,-2.99,-2.9717,-0.6712,-0.6647,-0.6556,-0.6481,-0.6503,-0.657,-0.7204,-0.8071,-0.7878,-0.8712,-1.0102,-0.9066,-0.9505,-1.1002,-1.1129,-1.1134,-1.1002,-1.1049,-1.0949,-1.0722,-1.0728,-1.0792,-1.0722,-1.0728,-1.0595,-1.0367,-1.0254,-1.008,-0.9846,-0.9492,-0.9325,-0.9319,-0.9031,-0.8938,-0.9143,0.0,0.0,0.0,-1.3163,-1.3389,-1.3408,-1.3799,-1.4,-1.4121,-1.4286,0.0,-1.4996,-1.5352,-1.5774,-1.6283,-1.6068,0.0,0.0,0.0,0.0,0.0,0.0,0.0,0.0,0.0,0.0,0.0,-2.0096,-1.9999,-2.0361,-2.121,-2.2036,-2.2946,-2.2977,-2.3059,-2.3263,-2.3251,-2.3444,-2.379,-2.3994,-2.4227,-2.43,-2.3416,-2.2542,-2.2028,-2.0855,-1.9982,-1.987,-1.999,-2.0332,-2.083,-2.1797,-2.2381,-2.2095,-2.2193,-2.2433,-2.3115,-2.3879,-2.4411,-2.4469,-2.5363,-2.6,-2.6512,-2.7306,-2.8052,-2.8186,-2.826,-2.826,-2.826,-2.8172,-2.8072,-2.8084,-2.8109,-2.7971,-2.8097,-2.772,-2.7679,-2.8426,-2.9048,-2.918,-0.6549,-0.6481,-0.6474,-0.643,0.0,-0.621,-0.6449,-0.6881,-0.671,-0.7057,-0.7758,-0.7214,-0.8025,-0.971,-0.9231,-0.9706,-1.0782,-1.0387,-1.0309,-1.0561,-1.0618,-1.0618,-1.0618,-1.0414,-1.0267,-1.0107,-0.982,-0.9606,-0.9459,-0.9165,-0.9025,-0.9025,-0.8878,-0.8962,-0.9309,-1.061,-1.1832,-1.2881,-1.3096,-1.3193,-1.3213,-1.3613,-1.3828,-1.3818,-1.3901,0.0,0.0,0.0,0.0,0.0,0.0,0.0,0.0,-1.7115,0.0,-1.7011,-1.799,-1.8618,-1.8595,-1.8953,-1.9361,-1.9707,-2.0129,-2.0779,-2.1443,-2.2234,-2.2777,-2.3113,-2.3125,-2.3125,-2.3125,-2.3125,-2.3248,-2.3482,-2.3568,-2.3403,-2.2778,-2.232,-2.153,-2.045,-1.9697,-1.9262,-1.9311,-1.9258,-1.9463,-1.9928,-2.0907,-2.1613,-2.1456,-2.2494,-2.344,-2.367,-2.4303,-2.4559,-2.4225,-2.5182,-2.5796,-2.5611,-2.6649,-2.746,-2.7331,-2.7519,-2.7695,-2.7657,-2.7268,-2.6942,-2.7193,-2.6879,-2.6565,-2.6753,-2.644,-2.6163,-2.6452,-2.7067,-2.7284,-0.6205,-0.6271,-0.6386,-0.6352,-0.621,-0.6081,-0.6,-0.5942,-0.582,0.0,0.0,-0.5624,-0.647,-0.7897,-0.7242,-0.8125,-1.0223,-0.9585,-0.956,-1.0214,-1.0408,-1.0345,-1.0263,-1.0093,-1.0007,-0.994,-0.9416,-0.9157,-0.9158,-0.8918,-0.8804,-0.8804,-0.8804,-0.9204,-1.002,-1.1157,-1.2187,-1.2881,-1.2959,-1.2998,-1.2998,-1.333,-1.3506,-1.3506,-1.3529,-1.3761,-1.4275,-1.4584,-1.5246,-1.6325,-1.6831,-1.7172,-1.7388,-1.7714,-1.7702,-1.73,-1.7739,-1.8066,-1.8066,-1.8568,-1.892,-1.9145,-2.0087,-2.1091,-2.2096,-2.2585,-2.2852,-2.2942,-2.2855,-2.284,-2.2959,-2.2855,-2.283,-2.2811,-2.2902,-2.2323,-2.0985,-2.0958,-2.0651,-1.9072,-1.8706,-1.8725,-1.8997,-1.8828,-1.875,-1.9236,-2.0083,-2.0804,-2.1338,-2.3014,-2.4153,-2.3862,-2.4357,-2.4459,-2.3902,-2.448,-2.5052,-2.4546,-2.5758,-2.664,-2.6377,-2.6553,-2.6816,-2.6753,-2.6038,-2.5799,-2.6013,-2.5548,-2.5008,-2.5372,-2.5121,-2.4782,-2.4732,-2.5008,-2.5234,-0.5488,-0.6261,-0.6362,-0.6203,-0.6057,-0.604,-0.5884,-0.5654,-0.5627,-0.5992,-0.6527,-0.6523,-0.7051,-0.8027,-0.7892,-0.8297,-0.9045,-0.8915,-0.8859,-0.8907,-0.9505,-0.9499,-0.8895,-0.946,-0.9613,-0.9316,-0.9223,-0.9057,-0.8884,-0.8824,-0.8804,-0.8804,-0.8804,-0.9413,-1.0618,-1.1416,-1.2187,-1.2881,-1.3242,-1.3428,-1.3428,-1.3477,-1.3506,-1.3496,-1.3667,-1.3768,-1.3873,-1.4408,-1.52,-1.6313,-1.6035,-1.6337,-1.728,-1.6999,-1.6722,-1.6672,-1.7187,-1.7501,-1.7501,-1.8003,-1.8719,-1.9623,-2.03,-2.0983,-2.1543,-2.1669,-2.1906,-2.2307,-2.2055,-2.1906,-2.2318,-2.2043,-2.1817,-2.1794,-2.2135,-2.2007,-2.0922,-2.0957,-2.0551,-1.9192,-1.8811,-1.8446,-1.8311,-1.8398,-1.8605,-1.8862,-1.9955,-2.13,-2.2513,-2.3311,-2.3475,-2.3565,-2.4232,-2.4644,-2.4401,-2.4678,-2.4781,-2.471,-2.4928,-2.5272,-2.5146,-2.5259,-2.5372,-2.5234,-2.5096,-2.5021,-2.5109,-2.4958,-2.4795,-2.4895,-2.4782,-2.4594,-2.4192,-2.4192,-2.433,-0.411,-0.4602,-0.5132,-0.5289,-0.5234,-0.5604,-0.5667,-0.5474,-0.5467,-0.5691,-0.5947,-0.6013,-0.6465,-0.7233,-0.6681,-0.7089,-0.8169,-0.8044,-0.817,-0.8616,-0.8961,-0.9149,-0.9188,-0.8991,-0.8965,-0.9176,-0.9078,-0.8858,-0.8611,-0.8731,-0.8731,-0.8642,-0.943,-1.021,-1.0821,-1.1891,-1.2559,-1.2881,-1.3076,-1.3164,-1.3174,-1.3164,-1.3174,-1.3164,-1.329,-1.3658,-1.4283,-1.4571,-1.5268,-1.6406,-1.5897,-1.5985,-1.6842,-1.6613,-1.6458,-1.6516,-1.7061,-1.7237,-1.6923,-1.7438,-1.8103,-1.8869,-1.9183,-1.9434,-1.9685,-2.0803,-2.1619,-2.185,-2.1618,-2.1605,-2.1833,-2.1675,-2.1321,-2.0946,-2.1124,-2.0722,-1.967,-1.9389,-1.9019,-1.8082,-1.7684,-1.769,-1.788,-1.8041,-1.8338,-1.876,-2.003,-2.144,-2.2625,-2.2812,-2.2969,-2.357,-2.4337,-2.443,-2.4054,-2.4192,-2.4217,-2.3979,-2.418,-2.4343,-2.4406,-2.4556,-2.4782,-2.4795,-2.4582,-2.4531,-2.4707,-2.428,-2.4117,-2.4318,-2.4092,-2.3803,-2.3565,-2.3314,-2.3301,-0.3044,-0.3515,-0.4182,-0.4559,-0.4805,-0.5316,-0.5471,-0.5428,-0.5328,-0.5308,-0.5308,-0.5311,-0.5694,-0.6185,-0.5463,-0.5864,-0.7087,-0.7057,-0.7364,-0.8086,-0.8316,-0.8724,-0.9175,-0.8565,-0.8582,-0.9064,-0.8911,-0.8657,-0.8487,-0.8604,-0.8597,-0.8561,-0.9926,-1.0639,-1.0689,-1.2018,-1.2734,-1.2744,-1.288,-1.2891,-1.2891,-1.2891,-1.2891,-1.2929,-1.3017,-1.3573,-1.4433,-1.4606,-1.5197,-1.6194,-1.5864,-1.5876,-1.6448,-1.6443,-1.6435,-1.6523,-1.6936,-1.6999,-1.6597,-1.6923,-1.7426,-1.7978,-1.8016,-1.8078,-1.8329,-1.9734,-2.0803,-2.0889,-2.0784,-2.0765,-2.0862,-2.0863,-2.0612,-1.9975,-2.0269,-1.9865,-1.8416,-1.8182,-1.7883,-1.7126,-1.6911,-1.7203,-1.7657,-1.7975,-1.8262,-1.8945,-2.0037,-2.1056,-2.1691,-2.1948,-2.2548,-2.3178,-2.3779,-2.3665,-2.2924,-2.3226,-2.3364,-2.3,-2.3439,-2.3728,-2.3841,-2.4092,-2.4192,-2.4079,-2.3728,-2.3602,-2.4004,-2.3602,-2.3301,-2.3627,-2.3514,-2.3103,-2.2975,-2.2535,-2.2359,-0.2701,-0.429,-0.4362,-0.4873,-0.5385,-0.5379,-0.5369,-0.5342,-0.5213,-0.5152,-0.5152,-0.5152,-0.5148,-0.5191,-0.4999,-0.5344,-0.5959,-0.5979,-0.6276,-0.6843,-0.7469,-0.7794,-0.7985,-0.8438,-0.8798,-0.8844,-0.8804,-0.8624,-0.8337,-0.839,-0.8404,-0.852,-0.9653,-1.0246,-1.0383,-1.1602,-1.2295,-1.2295,-1.2686,-1.2891,-1.2891,-1.2891,-1.2891,-1.2939,-1.3409,-1.3779,-1.3956,-1.4422,-1.5017,-1.5588,-1.5676,-1.5864,-1.6436,-1.6485,-1.6485,-1.6534,-1.6584,-1.6559,-1.6534,-1.6559,-1.6861,-1.7375,-1.7463,-1.7652,-1.8103,-1.8337,-1.8722,-1.9033,-1.8794,-1.8883,-1.9154,-1.9275,-1.9064,-1.8478,-1.9528,-2.0024,-1.8578,-1.8717,-1.8638,-1.7811,-1.7567,-1.7719,-1.7856,-1.8382,-1.8773,-1.8991,-1.9831,-2.0483,-2.0668,-2.1205,-2.16,-2.1773,-2.1856,-2.1857,-2.1757,-2.2108,-2.2435,-2.2435,-2.2836,-2.31,-2.31,-2.2836,-2.256,-2.2811,-2.2297,-2.2209,-2.246,-2.2435,-2.2598,-2.2937,-2.3,-2.2937,-2.2485,-2.1958,-2.1832,-0.1081,-0.1847,-0.241,-0.342,-0.4554,-0.4495,-0.4767,-0.5209,-0.507,-0.5006,-0.4992,-0.4914,-0.4918,-0.4992,-0.485,-0.4921,-0.5201,-0.549,-0.5729,-0.5982,-0.6303,-0.6637,-0.7069,-0.7348,-0.7653,-0.7926,-0.8339,-0.831,-0.7943,-0.8016,-0.8116,-0.8282,-0.9506,-1.009,-1.0026,-1.1222,-1.1826,-1.1846,-1.2012,-1.2145,-1.2204,-1.2617,-1.2891,-1.2929,-1.3152,-1.3658,-1.4283,-1.456,-1.5152,-1.6008,-1.5832,-1.5864,-1.6479,-1.6151,-1.6139,-1.6479,-1.6534,-1.6534,-1.6534,-1.6534,-1.6622,-1.6873,-1.6861,-1.6974,-1.7174,-1.7197,-1.731,-1.7493,-1.7907,-1.8302,-1.8487,-1.8522,-1.8215,-1.7673,-1.8135,-1.8271,-1.7554,-1.7342,-1.728,-1.756,-1.7412,-1.7512,-1.825,-1.8958,-1.94,-1.9514,-2.0049,-2.0342,-2.0502,-2.0827,-2.0969,-2.0989,-2.0732,-2.0844,-2.1331,-2.1637,-2.1794,-2.1857,-2.2008,-2.2159,-2.2159,-2.202,-2.1832,-2.182,-2.1568,-2.1481,-2.1807,-2.182,-2.192,-2.2196,-2.2184,-2.2083,-2.187,-2.1393,-2.1204,-0.0141,-0.0486,-0.1313,-0.2455,-0.3606,-0.3568,-0.3972,-0.4652,-0.4626,-0.4676,-0.484,-0.4694,-0.4687,-0.4765,-0.4677,-0.4629,-0.4727,-0.5056,-0.5324,-0.5483,-0.5483,-0.5977,-0.6799,-0.6839,-0.7106,-0.7613,-0.8035,-0.7983,-0.758,-0.7675,-0.7802,-0.8023,-0.908,-0.954,-0.9489,-1.0576,-1.1205,-1.1205,-1.1441,-1.1596,-1.1694,-1.2233,-1.2578,-1.2676,-1.2768,-1.3305,-1.4365,-1.4529,-1.5,-1.5942,-1.5627,-1.5647,-1.6198,-1.5874,-1.5893,-1.6411,-1.6534,-1.6534,-1.6534,-1.6534,-1.6534,-1.6534,-1.6534,-1.6534,-1.6534,-1.6534,-1.6534,-1.6609,-1.7257,-1.7705,-1.7759,-1.7874,-1.7652,-1.7005,-1.7131,-1.7291,-1.6958,-1.6508,-1.6688,-1.7285,-1.7179,-1.731,-1.8322,-1.8941,-1.9258,-1.9308,-1.9659,-1.9987,-2.0024,-2.0075,-2.021,-2.0213,-1.997,-2.0177,-2.0917,-2.1188,-2.1217,-2.1317,-2.1393,-2.1594,-2.1443,-2.1405,-2.1255,-2.1242,-2.1154,-2.1142,-2.123,-2.1267,-2.1355,-2.1418,-2.1393,-2.1305,-2.1267,-2.0844,-2.0555,-0.0472,-0.1277,-0.2213,-0.2546,-0.2737,-0.272,-0.3134,-0.3869,-0.3735,-0.4051,-0.4622,-0.4604,-0.4536,-0.4556,-0.4549,-0.4477,-0.4529,-0.4577,-0.4893,-0.5378,-0.5433,-0.6249,-0.7545,-0.7425,-0.7601,-0.7922,-0.7856,-0.7722,-0.7506,-0.7482,-0.7533,-0.7578,-0.8253,-0.8453,-0.8679,-0.97,-1.0167,-1.0372,-1.1108,-1.1557,-1.1567,-1.1626,-1.1816,-1.2184,-1.2423,-1.2908,-1.3697,-1.4027,-1.4362,-1.4844,-1.4844,-1.5097,-1.5661,-1.5727,-1.5978,-1.6403,-1.6534,-1.6534,-1.6534,-1.6534,-1.6534,-1.6534,-1.6534,-1.6534,-1.6534,-1.6534,-1.6534,-1.6534,-1.6609,-1.671,-1.6729,-1.7162,-1.7137,-1.6617,-1.7422,-1.7626,-1.7157,-1.698,-1.7031,-1.7208,-1.7202,-1.7499,-1.8127,-1.8219,-1.838,-1.8392,-1.838,-1.8455,-1.8618,-1.8882,-1.9083,-1.9267,-1.9455,-1.9811,-1.9911,-2.0351,-2.0706,-2.0781,-2.0953,-2.1343,-2.1267,-2.1129,-2.0878,-2.0614,-2.0363,-2.0351,-2.0655,-2.0844,-2.0941,-2.0966,-2.084,-2.0752,-2.069,-2.0278,-2.0116,-0.0202,-0.047,-0.0857,-0.1242,-0.1753,-0.1736,-0.2181,-0.2955,-0.3357,-0.3632,-0.391,-0.4317,-0.4463,-0.4463,-0.4463,-0.4463,-0.4463,-0.4463,-0.4625,-0.4842,-0.4838,-0.5058,-0.5426,-0.5821,-0.6192,-0.6527,-0.6888,-0.7115,-0.7198,-0.7412,-0.7582,-0.7853,-0.8468,-0.8899,-0.9197,-0.9848,-1.0219,-1.0278,-1.0643,-1.0783,-1.0783,-1.0783,-1.0947,-1.1357,-1.1721,-1.2259,-1.2931,-1.3044,-1.333,-1.3887,-1.4164,-1.4634,-1.5245,-1.5852,-1.6296,-1.6484,-1.6534,-1.6534,-1.6534,-1.6534,-1.6534,-1.6534,-1.6534,-1.6479,-1.6534,-1.6534,-1.6534,-1.6479,-1.6479,-1.6534,-1.6547,-1.671,-1.6748,-1.6579,-1.6817,-1.721,-1.7214,-1.6993,-1.6971,-1.7591,-1.7812,-1.7957,-1.8037,-1.8191,-1.8204,-1.8204,-1.8191,-1.8166,-1.8204,-1.8392,-1.8484,-1.8573,-1.8946,-1.9271,-1.9283,-1.9774,-2.0112,-2.015,-2.0288,-2.0363,-2.0338,-2.0401,-2.02,-2.0238,-1.9886,-1.99,-2.028,-2.0385,-2.0511,-2.0305,-2.0191,-2.0193,-2.0125,-1.9953,-2.0167,0.0,0.0,0.0,-0.0318,-0.0821,-0.0782,-0.1234,-0.2044,-0.249,-0.2788,-0.3121,-0.379,-0.4012,-0.3901,-0.4294,-0.4349,-0.4181,-0.4353,-0.4463,-0.4457,-0.4416,-0.4449,-0.4606,-0.4903,-0.5255,-0.5621,-0.6158,-0.6643,-0.6976,-0.7221,-0.743,-0.7608,-0.8165,-0.863,-0.8975,-0.94,-0.9638,-0.9801,-0.9982,-1.0029,-0.9912,-1.0,-1.0195,-1.0488,-1.0781,-1.1362,-1.2139,-1.2047,-1.2339,-1.2995,-1.3374,-1.3978,-1.4935,-1.5939,-1.6534,-1.6509,-1.6333,-1.6245,-1.6245,-1.6258,-1.617,-1.6045,-1.6333,-1.6398,-1.6102,-1.6318,-1.6398,-1.6318,-1.6411,-1.6466,-1.628,-1.6253,-1.6283,-1.6459,-1.6534,-1.6672,-1.7024,-1.676,-1.6879,-1.738,-1.7543,-1.7581,-1.7652,-1.7652,-1.7626,-1.7664,-1.7664,-1.7664,-1.7664,-1.784,-1.7949,-1.7981,-1.8394,-1.8702,-1.875,-1.903,-1.961,-1.9748,-1.9811,-1.9748,-1.9736,-1.9748,-1.9837,-1.9786,-1.9799,-1.98,-1.9876,-2.0001,-1.9898,-1.9696,-1.9556,-1.9564,-1.9677,-1.9863,-2.0027,0.0,0.0,0.0,0.0,0.0,0.0,-0.047,-0.1047,-0.1189,-0.1675,-0.2286,-0.2954,-0.301,-0.2676,-0.3677,-0.4015,-0.368,-0.4128,-0.4405,-0.4453,-0.4324,-0.4568,-0.5031,-0.4832,-0.5125,-0.5727,-0.6028,-0.6483,-0.6992,-0.7001,-0.7016,-0.7056,-0.7148,-0.7549,-0.7972,-0.8195,-0.8358,-0.8818,-0.9328,-0.9411,-0.9121,-0.9437,-0.9707,-0.968,-0.9766,-1.0322,-1.1512,-1.1145,-1.1419,-1.2256,-1.2402,-1.3198,-1.4656,-1.5711,-1.6403,-1.6308,-1.5957,-1.5718,-1.5693,-1.5693,-1.5467,-1.5266,-1.5881,-1.5929,-1.5393,-1.5819,-1.6143,-1.5855,-1.6033,-1.6188,-1.5764,-1.5682,-1.5847,-1.6371,-1.6348,-1.6459,-1.6479,-1.6491,-1.6547,-1.6647,-1.671,-1.6572,-1.6572,-1.671,-1.6773,-1.676,-1.6735,-1.676,-1.6779,-1.7137,-1.7333,-1.7466,-1.7834,-1.815,-1.8219,-1.8257,-1.8881,-1.9397,-1.9472,-1.9497,-1.956,-1.9585,-1.9826,-1.9889,-2.0114,-2.0135,-2.0118,-2.0144,-1.9894,-1.9655,-1.9384,-1.9252,-1.9509,-1.9754,-1.9822,0.0493,0.0,0.0,0.0,0.0,0.0,-0.0171,-0.0398,-0.0842,-0.1228,-0.1563,-0.223,-0.2397,-0.2286,-0.2732,-0.3065,-0.34,-0.368,-0.4015,-0.4378,-0.4311,-0.4237,-0.4411,-0.4594,-0.5198,-0.5881,-0.5912,-0.6257,-0.6796,-0.6633,-0.6804,-0.738,-0.7197,-0.7425,-0.8007,-0.7957,-0.7985,-0.8146,-0.8821,-0.8984,-0.8693,-0.9226,-0.9592,-0.9592,-0.9602,-0.998,-1.0665,-1.0547,-1.0823,-1.1431,-1.1458,-1.2162,-1.3607,-1.4481,-1.5008,-1.5327,-1.5281,-1.5128,-1.5167,-1.5167,-1.5053,-1.4991,-1.5216,-1.5231,-1.4959,-1.5203,-1.5341,-1.5178,-1.5324,-1.5311,-1.5193,-1.5134,-1.5219,-1.535,-1.5714,-1.5973,-1.6028,-1.6293,-1.6479,-1.6534,-1.6534,-1.6534,-1.6534,-1.6534,-1.6534,-1.6534,-1.6534,-1.6534,-1.6529,-1.6697,-1.6773,-1.6809,-1.725,-1.7614,-1.7622,-1.7743,-1.8176,-1.8618,-1.8794,-1.907,-1.9196,-1.9421,-1.9697,-2.0008,-2.0246,-2.0334,-2.0359,-2.0257,-1.9976,-1.9751,-1.9551,-1.952,-1.9605,-1.9658,-1.9724,0.1248,0.0772,0.0524,0.0404,0.0346,0.0113,0.0,0.0,-0.0504,-0.0671,-0.0839,-0.1452,-0.1619,-0.1563,-0.1953,-0.2287,-0.2617,-0.303,-0.3395,-0.3701,-0.4072,-0.4033,-0.3979,-0.4155,-0.47,-0.5379,-0.5457,-0.5786,-0.6457,-0.6442,-0.6684,-0.7111,-0.7071,-0.7228,-0.7709,-0.7565,-0.7509,-0.7835,-0.8415,-0.8546,-0.8363,-0.8887,-0.9333,-0.9372,-0.9324,-0.9657,-1.0234,-1.0322,-1.0495,-1.1012,-1.1508,-1.2453,-1.3518,-1.4144,-1.4568,-1.475,-1.4714,-1.4601,-1.4601,-1.4601,-1.45,-1.44,-1.4638,-1.4663,-1.4473,-1.455,-1.4841,-1.4639,-1.4813,-1.4808,-1.4651,-1.46,-1.4506,-1.4292,-1.497,-1.5449,-1.5672,-1.5984,-1.6291,-1.6421,-1.6534,-1.6534,-1.6534,-1.6534,-1.6534,-1.6534,-1.6534,-1.6534,-1.6534,-1.6534,-1.6534,-1.6559,-1.681,-1.7024,-1.7074,-1.725,-1.7476,-1.7765,-1.8016,-1.838,-1.8668,-1.9019,-1.9335,-1.9914,-2.0261,-2.0246,-2.0258,-2.0316,-2.0212,-1.9991,-1.9587,-1.9363,-1.9251,-1.9429,-1.9558,0.2287,0.2119,0.1453,0.1121,0.0953,0.0392,0.0,0.0,0.0,0.0,-0.0111,-0.0722,-0.0613,-0.0391,-0.1283,-0.1619,-0.1444,-0.2433,-0.2814,-0.2828,-0.3408,-0.3917,-0.3883,-0.3728,-0.4066,-0.4664,-0.4786,-0.5134,-0.5801,-0.6092,-0.642,-0.6319,-0.6679,-0.6967,-0.7004,-0.6862,-0.7037,-0.7466,-0.8041,-0.8115,-0.7776,-0.8493,-0.8939,-0.9106,-0.9057,-0.9413,-1.0166,-1.0322,-1.0505,-1.1071,-1.2132,-1.2967,-1.3828,-1.4425,-1.4498,-1.4575,-1.4299,-1.4085,-1.4035,-1.4047,-1.3883,-1.3498,-1.4111,-1.4387,-1.3649,-1.4087,-1.4438,-1.4125,-1.4413,-1.4511,-1.4134,-1.4063,-1.379,-1.3473,-1.4257,-1.5017,-1.5615,-1.5745,-1.5978,-1.6396,-1.6534,-1.6534,-1.6522,-1.6565,-1.6607,-1.6607,-1.665,-1.6637,-1.6595,-1.6637,-1.6522,-1.6584,-1.6647,-1.6845,-1.7002,-1.6835,-1.7137,-1.7696,-1.7797,-1.7964,-1.849,-1.8937,-1.9453,-1.999,-2.0259,-2.02,-2.016,-2.0283,-2.0084,-1.9643,-1.9267,-1.8988,-1.9084,-1.9377,-1.954,0.3166,0.223,0.2009,0.1619,0.1118,0.0895,0.0497,0.0,0.0,0.0378,0.0539,0.0054,0.0109,0.067,-0.0167,-0.0727,-0.1162,-0.1885,-0.2557,-0.2794,-0.3477,-0.3929,-0.3906,-0.3526,-0.393,-0.4852,-0.438,-0.45,-0.5462,-0.5402,-0.5504,-0.598,-0.614,-0.631,-0.6608,-0.65,-0.6285,-0.6439,-0.7343,-0.7646,-0.7531,-0.8369,-0.9092,-0.942,-0.9389,-0.9657,-1.0234,-1.0322,-1.0351,-1.0505,-1.1151,-1.1841,-1.2491,-1.2742,-1.313,-1.3615,-1.3561,-1.3423,-1.3471,-1.3471,-1.337,-1.3235,-1.3523,-1.3534,-1.3273,-1.3448,-1.3586,-1.3451,-1.3599,-1.3649,-1.349,-1.3465,-1.3326,-1.3333,-1.3871,-1.4668,-1.5414,-1.5711,-1.5919,-1.6409,-1.6497,-1.6607,-1.6595,-1.6866,-1.7034,-1.7034,-1.7034,-1.6993,-1.6879,-1.6752,-1.6637,-1.6565,-1.6633,-1.682,-1.6863,-1.6663,-1.6914,-1.7637,-1.7824,-1.7751,-1.8472,-1.9282,-1.992,-2.0571,-2.0344,-2.027,-2.0224,-2.0243,-1.9805,-1.9398,-1.942,-1.9369,-1.9457,-1.9664,-1.9642,0.4816,0.3993,0.3712,0.3322,0.2881,0.2275,0.1747,0.1276,0.0955,0.1052,0.1249,0.0987,0.0998,0.1285,0.0978,0.0438,-0.0272,-0.0791,-0.1283,-0.1648,-0.2193,-0.2939,-0.3489,-0.3419,-0.3762,-0.4421,-0.4042,-0.4375,-0.5094,-0.5105,-0.5455,-0.5977,-0.6168,-0.6273,-0.6196,-0.6371,-0.6154,-0.6113,-0.6946,-0.7458,-0.7236,-0.8109,-0.8822,-0.9233,-0.9331,-0.9573,-1.0166,-1.0467,-1.0687,-1.0916,-1.1217,-1.1653,-1.2282,-1.2389,-1.265,-1.321,-1.321,-1.321,-1.321,-1.321,-1.321,-1.321,-1.321,-1.321,-1.321,-1.321,-1.3223,-1.3522,-1.333,-1.3317,-1.3437,-1.333,-1.321,-1.3257,-1.3509,-1.4079,-1.4985,-1.5414,-1.5916,-1.6404,-1.685,-1.7034,-1.6866,-1.7312,-1.7312,-1.716,-1.7105,-1.7034,-1.6921,-1.6837,-1.6782,-1.6769,-1.6967,-1.7327,-1.7313,-1.7107,-1.7188,-1.7867,-1.8305,-1.8085,-1.8385,-1.9321,-1.9634,-2.0052,-2.0203,-2.0273,-2.0154,-2.0049,-1.9833,-1.9617,-1.9705,-1.9705,-1.9705,-1.9705,-1.9705,0.6696,0.6534,0.5901,0.5558,0.5171,0.4078,0.3245,0.2944,0.2308,0.2012,0.1912,0.1849,0.1761,0.1913,0.1776,0.1537,0.0957,0.0204,-0.02,-0.0625,-0.1085,-0.1859,-0.2988,-0.3211,-0.3403,-0.3611,-0.3797,-0.4173,-0.4655,-0.5145,-0.5576,-0.5841,-0.6378,-0.6363,-0.605,-0.6315,-0.6325,-0.6185,-0.6892,-0.7422,-0.7453,-0.8066,-0.8753,-0.9288,-0.93,-0.9573,-1.0186,-1.0649,-1.1057,-1.1664,-1.1737,-1.2174,-1.2908,-1.3082,-1.3151,-1.3198,-1.321,-1.321,-1.321,-1.321,-1.321,-1.321,-1.321,-1.321,-1.321,-1.321,-1.3317,-1.3616,-1.3411,-1.3395,-1.3556,-1.3389,-1.3257,-1.321,-1.3223,-1.3496,-1.4081,-1.498,-1.5792,-1.6362,-1.7275,-1.7531,-1.7544,-1.7626,-1.7801,-1.7476,-1.7504,-1.7706,-1.7558,-1.7435,-1.7313,-1.7164,-1.7477,-1.7958,-1.7825,-1.7666,-1.7826,-1.8185,-1.8727,-1.8774,-1.8464,-1.8924,-1.9027,-1.9272,-1.9797,-1.9974,-1.9854,-1.975,-1.9705,-1.9705,-1.9705,-1.9705,-1.9705,-1.9705,-1.9705,0.7128,0.6588,0.6416,0.6013,0.55,0.5163,0.4316,0.3184,0.2981,0.2876,0.256,0.2066,0.2198,0.2607,0.2228,0.1809,0.1621,0.0644,-0.0426,-0.1371,-0.1484,-0.1647,-0.2065,-0.2311,-0.293,-0.3339,-0.3371,-0.3609,-0.4013,-0.4341,-0.4371,-0.4808,-0.5665,-0.5871,-0.58,-0.6201,-0.6451,-0.6291,-0.6694,-0.7281,-0.7795,-0.8201,-0.8903,-0.9693,-0.9886,-1.0022,-1.0244,-1.04,-1.0687,-1.1132,-1.1653,-1.221,-1.2579,-1.272,-1.2873,-1.3129,-1.321,-1.321,-1.321,-1.321,-1.321,-1.321,-1.321,-1.321,-1.321,-1.3245,-1.3257,-1.3361,-1.3259,-1.3318,-1.3382,-1.3304,-1.3232,-1.3267,-1.3245,-1.3389,-1.3921,-1.4529,-1.5233,-1.5826,-1.6402,-1.6677,-1.6777,-1.7625,-1.7799,-1.776,-1.8013,-1.838,-1.821,-1.7933,-1.78,-1.7599,-1.8051,-1.8454,-1.8454,-1.8285,-1.8377,-1.8535,-1.9006,-1.9317,-1.9006,-1.8968,-1.9207,-1.9406,-1.9632,-1.969,-1.9705,-1.9705,-1.9705,-1.9705,-1.9705,-1.9705,-1.9705,-1.9705,-1.9741,0.8894,0.8528,0.8224,0.7888,0.7418,0.6691,0.5845,0.498,0.4438,0.399,0.3602,0.3169,0.3124,0.3242,0.315,0.2965,0.2192,0.1357,0.0556,0.0045,-0.0131,-0.0421,-0.0901,-0.1206,-0.1879,-0.2956,-0.3033,-0.3317,-0.3861,-0.4057,-0.4373,-0.4645,-0.5349,-0.5582,-0.5535,-0.6041,-0.6212,-0.6079,-0.6356,-0.6833,-0.7293,-0.7584,-0.829,-0.9381,-0.9975,-1.0351,-1.0302,-1.1057,-1.1282,-1.1542,-1.2029,-1.2437,-1.2532,-1.272,-1.2943,-1.3129,-1.321,-1.321,-1.321,-1.321,-1.321,-1.3198,-1.321,-1.3369,-1.3459,-1.3527,-1.3642,-1.3694,-1.3684,-1.3535,-1.3509,-1.3242,-1.3276,-1.3454,-1.3297,-1.3424,-1.3904,-1.457,-1.5175,-1.5658,-1.6277,-1.6474,-1.6864,-1.7438,-1.76,-1.7504,-1.7999,-1.8341,-1.8249,-1.8052,-1.821,-1.8235,-1.8636,-1.8916,-1.8954,-1.8916,-1.8878,-1.9006,-1.9207,-1.9442,-1.9369,-1.9406,-1.953,-1.9603,-1.9566,-1.969,-1.9705,-1.9705,-1.9705,-1.9705,-1.9705,-1.9705,-1.9705,-1.9705,-1.9705,1.0656,1.0556,1.0012,0.9758,0.9518,0.8213,0.7407,0.6907,0.6187,0.5255,0.4635,0.4522,0.4212,0.4054,0.443,0.4018,0.3143,0.2555,0.2123,0.1866,0.1603,0.1133,0.0534,0.0082,-0.0569,-0.1942,-0.2375,-0.3032,-0.3611,-0.4069,-0.4014,-0.4624,-0.5187,-0.5131,-0.5086,-0.5509,-0.5808,-0.5744,-0.6145,-0.6607,-0.6854,-0.709,-0.7806,-0.8812,-0.9665,-1.0146,-1.0381,-1.1159,-1.1911,-1.1673,-1.2567,-1.2791,-1.2733,-1.2908,-1.321,-1.321,-1.3301,-1.3391,-1.3391,-1.3357,-1.3357,-1.3288,-1.3335,-1.3493,-1.3769,-1.3947,-1.41,-1.4226,-1.4179,-1.398,-1.396,-1.3742,-1.3669,-1.3722,-1.3514,-1.3548,-1.402,-1.4836,-1.5188,-1.5549,-1.6027,-1.6347,-1.67,-1.7135,-1.7204,-1.7358,-1.7859,-1.8246,-1.8179,-1.8274,-1.8507,-1.8688,-1.9006,-1.9244,-1.9295,-1.9295,-1.9295,-1.9332,-1.9479,-1.953,-1.9603,-1.9639,-1.9603,-1.9442,-1.9442,-1.9617,-1.9705,-1.9705,-1.9705,-1.9705,-1.9705,-1.9705,-1.9705,-1.9705,-1.9762,1.0099,0.9681,0.9596,0.9549,0.9494,0.9198,0.8385,0.7438,0.7128,0.634,0.5275,0.513,0.5087,0.5019,0.5072,0.4741,0.4203,0.39,0.3663,0.3193,0.2818,0.227,0.1881,0.1377,0.0807,-0.004,-0.1018,-0.1947,-0.2394,-0.2711,-0.3144,-0.3344,-0.4057,-0.431,-0.4286,-0.4515,-0.512,-0.5509,-0.5925,-0.6464,-0.7188,-0.7753,-0.8307,-0.9107,-0.9671,-0.9876,-1.0046,-1.0698,-1.1062,-1.0787,-1.1919,-1.2461,-1.272,-1.3047,-1.3232,-1.3335,-1.3547,-1.3715,-1.3735,-1.3769,-1.3769,-1.3782,-1.3769,-1.3802,-1.3986,-1.4214,-1.4443,-1.4451,-1.4482,-1.4363,-1.4374,-1.4187,-1.4112,-1.3987,-1.3847,-1.392,-1.4311,-1.4659,-1.5012,-1.5416,-1.5872,-1.6161,-1.6304,-1.6607,-1.6853,-1.7199,-1.7812,-1.8273,-1.8491,-1.8687,-1.8956,-1.9126,-1.9281,-1.9493,-1.9654,-1.9617,-1.9581,-1.9566,-1.9617,-1.9617,-1.969,-1.969,-1.9617,-1.953,-1.953,-1.9654,-1.9705,-1.9705,-1.9782,-1.9818,-1.9782,-1.9726,-1.9925,-2.0085,-2.0085,1.1369,1.0934,1.057,1.0266,0.9979,0.9497,0.892,0.8304,0.7846,0.7092,0.6313,0.5905,0.5567,0.5437,0.5658,0.5561,0.5361,0.4983,0.4759,0.431,0.3924,0.3336,0.2892,0.2426,0.1727,0.1045,0.0247,-0.0604,-0.1293,-0.198,-0.2307,-0.2719,-0.3317,-0.3627,-0.3796,-0.4163,-0.4627,-0.521,-0.5449,-0.5908,-0.6837,-0.7394,-0.8066,-0.8885,-0.9731,-1.0116,-1.0547,-1.1572,-1.1915,-1.1778,-1.2365,-1.2894,-1.3195,-1.3365,-1.3547,-1.3615,-1.3802,-1.4032,-1.4149,-1.4214,-1.4227,-1.4181,-1.4214,-1.4342,-1.4501,-1.469,-1.4814,-1.4766,-1.456,-1.457,-1.4752,-1.4495,-1.431,-1.4428,-1.4205,-1.4259,-1.4614,-1.4745,-1.5039,-1.533,-1.5346,-1.5481,-1.5529,-1.5915,-1.6431,-1.7035,-1.7704,-1.819,-1.8653,-1.8747,-1.8885,-1.9398,-1.953,-1.9566,-1.9705,-1.9705,-1.9705,-1.9705,-1.9705,-1.9705,-1.9705,-1.9705,-1.9705,-1.9654,-1.9705,-1.9797,-1.9726,-1.9726,-1.9803,-1.9965,-2.0035,-2.012,-2.0311,-2.0447,-2.0447,1.2598,1.2152,1.162,1.1165,1.0742,0.998,0.9544,0.919,0.8675,0.8013,0.7321,0.6726,0.6235,0.6031,0.6199,0.636,0.6294,0.5778,0.5626,0.5408,0.5004,0.436,0.3834,0.3265,0.2811,0.2382,0.1859,0.1113,-0.0206,-0.1043,-0.1631,-0.1997,-0.2505,-0.3027,-0.33,-0.3559,-0.4232,-0.4705,-0.4867,-0.5161,-0.6003,-0.6569,-0.7288,-0.8378,-0.9611,-1.0261,-1.0443,-1.1809,-1.22,-1.2211,-1.2665,-1.3391,-1.3769,-1.3802,-1.3868,-1.4084,-1.4117,-1.4342,-1.4501,-1.4641,-1.4641,-1.4627,-1.4641,-1.4783,-1.4998,-1.5104,-1.5239,-1.5165,-1.5043,-1.4935,-1.512,-1.4704,-1.4633,-1.4738,-1.454,-1.4336,-1.4725,-1.4929,-1.502,-1.5088,-1.4885,-1.5012,-1.5301,-1.6106,-1.6851,-1.6843,-1.7495,-1.8224,-1.8604,-1.8256,-1.8506,-1.9352,-1.9654,-1.9654,-1.9705,-1.9705,-1.9705,-1.9705,-1.9705,-1.9705,-1.9705,-1.9705,-1.9726,-1.9782,-1.9909,-1.9945,-1.9854,-1.9782,-1.9965,-2.0158,-2.033,-2.0499,-2.0632,-2.0764,-2.0829,1.2219,1.1867,1.1804,1.1707,1.1616,1.1438,1.0891,1.0068,0.9836,0.9372,0.831,0.7613,0.7329,0.7368,0.7087,0.6943,0.6737,0.662,0.6499,0.6299,0.58,0.5413,0.5169,0.4658,0.4183,0.3738,0.3313,0.235,0.1231,0.0286,-0.0365,-0.0782,-0.1702,-0.2379,-0.2573,-0.2881,-0.342,-0.4336,-0.4877,-0.5853,-0.7138,-0.7403,-0.7948,-0.8655,-0.9197,-0.9511,-0.9963,-1.1326,-1.1908,-1.1423,-1.247,-1.3361,-1.3735,-1.348,-1.3986,-1.4564,-1.4982,-1.4982,-1.5043,-1.5043,-1.5043,-1.5043,-1.5043,-1.5059,-1.5225,-1.5477,-1.5654,-1.5726,-1.561,-1.5551,-1.5624,-1.5551,-1.5404,-1.5197,-1.4984,-1.4704,-1.4844,-1.5216,-1.5272,-1.5293,-1.5227,-1.526,-1.5437,-1.6396,-1.7264,-1.7199,-1.7331,-1.806,-1.851,-1.8232,-1.8274,-1.9126,-1.969,-1.9705,-1.9705,-1.9705,-1.9705,-1.9705,-1.9705,-1.9705,-1.9705,-1.9726,-1.9874,-1.9965,-2.0035,-2.0,-1.9803,-1.9874,-2.0158,-2.0449,-2.0748,-2.0846,-2.0926,-2.1055,-2.1291,1.2854,1.2174,1.221,1.2029,1.1811,1.1811,1.1345,1.0634,1.0074,0.946,0.8673,0.7795,0.7494,0.765,0.7383,0.7121,0.6878,0.6908,0.6998,0.6916,0.6401,0.6085,0.6034,0.55,0.5055,0.4818,0.451,0.4165,0.3004,0.1694,0.0628,-0.0189,-0.0789,-0.153,-0.2026,-0.2337,-0.2953,-0.3791,-0.466,-0.5841,-0.6893,-0.7326,-0.7721,-0.8643,-0.9355,-0.9816,-1.0394,-1.163,-1.2549,-1.239,-1.3171,-1.3643,-1.4214,-1.4292,-1.4438,-1.5315,-1.5477,-1.5492,-1.5522,-1.5492,-1.5492,-1.5492,-1.5477,-1.5507,-1.5536,-1.5639,-1.5814,-1.5814,-1.5814,-1.5814,-1.574,-1.5549,-1.5521,-1.5389,-1.5269,-1.524,-1.5147,-1.5358,-1.5566,-1.5554,-1.5616,-1.5705,-1.5837,-1.6486,-1.7176,-1.724,-1.7238,-1.7632,-1.8175,-1.8391,-1.8576,-1.9016,-1.9442,-1.9705,-1.9705,-1.9705,-1.9705,-1.9705,-1.9705,-1.9705,-1.9705,-1.9797,-1.9909,-1.9945,-1.9874,-1.9818,-1.9782,-2.0174,-2.0616,-2.091,-2.1197,-2.1337,-2.1477,-2.1691,-2.1886,1.3835,1.311,1.2928,1.2495,1.2,1.2212,1.189,1.1082,1.0463,0.9782,0.9081,0.8476,0.8104,0.7878,0.7938,0.7839,0.7236,0.7245,0.7295,0.7213,0.7018,0.6773,0.6663,0.6196,0.6026,0.5565,0.5653,0.5432,0.4738,0.3384,0.1709,0.0472,0.0,-0.0702,-0.158,-0.2108,-0.2593,-0.3398,-0.4532,-0.5538,-0.6326,-0.6819,-0.7439,-0.8342,-0.937,-1.0256,-1.071,-1.199,-1.2904,-1.2811,-1.3301,-1.3888,-1.4564,-1.4564,-1.4814,-1.5477,-1.561,-1.5432,-1.5504,-1.5562,-1.5769,-1.5814,-1.5814,-1.5741,-1.577,-1.5814,-1.5814,-1.5814,-1.5814,-1.5814,-1.574,-1.5475,-1.5564,-1.558,-1.5507,-1.5521,-1.5595,-1.5624,-1.5531,-1.537,-1.559,-1.6296,-1.6457,-1.672,-1.7055,-1.7215,-1.7309,-1.7428,-1.7891,-1.8523,-1.8897,-1.9266,-1.9442,-1.9705,-1.9705,-1.9705,-1.9705,-1.9705,-1.9705,-1.9726,-1.9726,-1.9797,-1.9909,-1.9889,-1.9889,-2.0413,-2.0829,-2.0959,-2.1086,-2.1181,-2.1337,-2.1794,-2.2061,-2.2254,-2.2282,1.5228,1.4777,1.4076,1.3264,1.2477,1.3382,1.2902,1.1628,1.1511,1.0765,0.9884,0.9961,0.9456,0.9117,0.9101,0.8896,0.8232,0.8471,0.8269,0.8018,0.7801,0.7642,0.7537,0.7605,0.7621,0.7264,0.7004,0.6767,0.6309,0.4969,0.3443,0.2273,0.1069,0.0035,-0.0934,-0.1682,-0.2466,-0.3323,-0.4372,-0.5086,-0.5748,-0.6387,-0.7204,-0.7766,-0.855,-0.9124,-0.9172,-1.0943,-1.2001,-1.1812,-1.2887,-1.3888,-1.447,-1.447,-1.4845,-1.5389,-1.5418,-1.5257,-1.5281,-1.5574,-1.5784,-1.5814,-1.5814,-1.5814,-1.5814,-1.5814,-1.5814,-1.5814,-1.5814,-1.5814,-1.5799,-1.5755,-1.574,-1.5697,-1.5639,-1.5565,-1.5608,-1.5697,-1.5566,-1.5242,-1.5622,-1.6474,-1.7205,-1.7467,-1.7663,-1.7906,-1.8014,-1.8134,-1.8463,-1.8972,-1.9271,-1.9573,-1.9603,-1.9705,-1.9705,-1.9705,-1.9705,-1.9705,-1.9705,-1.9762,-1.9782,-1.9854,-1.9874,-2.0243,-2.0413,-2.115,-2.1615,-2.1385,-2.1213,-2.126,-2.1524,-2.1974,-2.2209,-2.2282,-2.2327,1.5548,1.49,1.492,1.4463,1.3672,1.343,1.2852,1.1984,1.1159,1.044,0.9881,1.0201,1.0226,1.0045,1.0004,0.985,0.937,0.9389,0.9332,0.9209,0.8957,0.8812,0.8746,0.859,0.8363,0.8257,0.8093,0.8057,0.779,0.6413,0.5327,0.3957,0.2347,0.0937,-0.0105,-0.1234,-0.2284,-0.3083,-0.3947,-0.4599,-0.5577,-0.5859,-0.6482,-0.6992,-0.8072,-0.8564,-0.8928,-1.0355,-1.124,-1.1934,-1.2638,-1.3467,-1.4232,-1.42,-1.4596,-1.5269,-1.5165,-1.5169,-1.5311,-1.559,-1.5799,-1.5814,-1.5814,-1.5814,-1.5814,-1.5814,-1.5814,-1.5814,-1.5785,-1.5741,-1.5814,-1.5814,-1.5799,-1.5814,-1.5726,-1.5593,-1.5608,-1.5653,-1.5862,-1.5636,-1.6222,-1.7019,-1.7681,-1.8272,-1.844,-1.8627,-1.8717,-1.8822,-1.9076,-1.9226,-1.945,-1.9681,-1.969,-1.9705,-1.9705,-1.9705,-1.9705,-1.9705,-1.9705,-1.9762,-1.9818,-1.9747,-1.9889,-2.033,-2.0698,-2.0959,-2.1181,-2.1323,-2.1415,-2.1554,-2.1811,-2.218,-2.2282,-2.2327,-2.2327,1.615,1.5609,1.5841,1.5286,1.4259,1.3796,1.3289,1.2579,1.1605,1.0786,1.0447,1.0896,1.1081,1.1084,1.1097,1.0873,1.0553,1.0486,1.0561,1.0425,1.02,1.0053,0.9987,0.9801,0.9472,0.9204,0.8964,0.8893,0.8795,0.7769,0.6684,0.5448,0.4094,0.2604,0.0695,-0.0636,-0.1733,-0.2483,-0.3228,-0.3892,-0.4857,-0.5246,-0.5691,-0.6284,-0.7307,-0.7979,-0.8511,-0.9639,-1.0697,-1.1388,-1.2091,-1.2874,-1.3524,-1.4044,-1.4296,-1.469,-1.5045,-1.5182,-1.5301,-1.5651,-1.5755,-1.5814,-1.5814,-1.5814,-1.5814,-1.5814,-1.5814,-1.5799,-1.5697,-1.5639,-1.5712,-1.5683,-1.5712,-1.5683,-1.5522,-1.5419,-1.5433,-1.5492,-1.5917,-1.6145,-1.6848,-1.7505,-1.813,-1.8723,-1.8947,-1.9086,-1.9181,-1.9256,-1.9375,-1.945,-1.9405,-1.9621,-1.969,-1.9705,-1.9705,-1.9705,-1.9705,-1.9705,-1.9726,-1.9818,-1.9803,-1.9782,-2.0015,-2.0565,-2.0764,-2.0698,-2.1055,-2.1645,-2.184,-2.1928,-2.2152,-2.2327,-2.2327,-2.2327,-2.2327,1.7239,1.7215,1.686,1.5625,1.4138,1.4697,1.4479,1.3574,1.3021,1.251,1.2146,1.2264,1.2282,1.2283,1.2205,1.1997,1.1695,1.1664,1.1591,1.1352,1.1355,1.1134,1.0904,1.0665,1.0535,1.025,1.001,0.9776,0.9628,0.8617,0.7703,0.6902,0.5722,0.4117,0.1858,0.0666,-0.0352,-0.131,-0.2211,-0.2885,-0.3592,-0.4215,-0.4832,-0.5598,-0.6306,-0.6982,-0.7565,-0.8593,-0.9535,-1.0118,-1.1121,-1.2036,-1.2923,-1.3411,-1.3868,-1.4501,-1.4831,-1.4743,-1.4371,-1.527,-1.5608,-1.5785,-1.5814,-1.5814,-1.5814,-1.5814,-1.5814,-1.5799,-1.5536,-1.5463,-1.5463,-1.5448,-1.5522,-1.5477,-1.5301,-1.5283,-1.5312,-1.5313,-1.5674,-1.6383,-1.72,-1.7927,-1.8573,-1.9131,-1.9379,-1.9564,-1.9645,-1.9675,-1.9675,-1.9666,-1.9561,-1.9606,-1.9705,-1.9705,-1.9705,-1.9705,-1.9705,-1.9705,-1.9818,-1.998,-2.0035,-2.0085,-2.0379,-2.0829,-2.1023,-2.1055,-2.1615,-2.2237,-2.2163,-2.2106,-2.2209,-2.2327,-2.2327,-2.2327,-2.2327,1.7653,1.728,1.7175,1.6614,1.5733,1.5109,1.4583,1.4084,1.3649,1.3229,1.2951,1.3175,1.3211,1.3031,1.2967,1.2854,1.2712,1.2712,1.2549,1.2468,1.2366,1.2142,1.1815,1.1554,1.1454,1.1315,1.1052,1.0885,1.1046,0.9837,0.9094,0.8374,0.6794,0.4863,0.2875,0.1442,0.0246,-0.0404,-0.11,-0.1833,-0.279,-0.322,-0.3747,-0.4554,-0.5157,-0.565,-0.6116,-0.7307,-0.8134,-0.8827,-0.9912,-1.1031,-1.1962,-1.2472,-1.3119,-1.3946,-1.4491,-1.464,-1.4772,-1.533,-1.521,-1.5522,-1.5712,-1.5712,-1.5799,-1.5814,-1.5814,-1.5785,-1.561,-1.5477,-1.5315,-1.5241,-1.5256,-1.5184,-1.5094,-1.5233,-1.5274,-1.5219,-1.5437,-1.6417,-1.7269,-1.8091,-1.8789,-1.9138,-1.9426,-1.953,-1.9566,-1.969,-1.969,-1.969,-1.963,-1.9645,-1.9705,-1.9705,-1.9705,-1.9705,-1.9762,-1.9818,-2.005,-2.033,-2.0379,-2.0379,-2.0747,-2.1229,-2.1354,-2.1507,-2.1869,-2.2163,-2.2209,-2.2237,-2.2282,-2.2327,-2.2327,-2.2327,-2.2327,1.7963,1.7608,1.7509,1.7272,1.6846,1.5926,1.5293,1.4926,1.4515,1.4092,1.3826,1.4019,1.3954,1.3735,1.3648,1.3514,1.3446,1.3459,1.3267,1.3185,1.2908,1.273,1.2567,1.233,1.2043,1.2029,1.1884,1.1737,1.1616,1.1073,1.0301,0.9208,0.7576,0.5931,0.4183,0.2825,0.1464,0.075,-0.0033,-0.0966,-0.1698,-0.2236,-0.2723,-0.3496,-0.4079,-0.4445,-0.5023,-0.586,-0.6839,-0.7747,-0.8716,-0.9935,-1.087,-1.1524,-1.2188,-1.3153,-1.4025,-1.4333,-1.4817,-1.4665,-1.4693,-1.5165,-1.5315,-1.5418,-1.5463,-1.5345,-1.5404,-1.5463,-1.5625,-1.5418,-1.514,-1.5048,-1.5231,-1.5178,-1.4951,-1.5096,-1.5322,-1.5266,-1.5467,-1.6438,-1.7445,-1.8214,-1.8848,-1.9134,-1.9391,-1.9442,-1.9479,-1.9566,-1.969,-1.969,-1.969,-1.9705,-1.9705,-1.9705,-1.9705,-1.9705,-1.9782,-1.9894,-2.0193,-2.0532,-2.0731,-2.078,-2.1197,-2.1507,-2.1538,-2.1628,-2.1869,-2.2061,-2.218,-2.2254,-2.2282,-2.2327,-2.2327,-2.2327,-2.2327,1.8229,1.8184,1.7927,1.7641,1.7304,1.6896,1.6548,1.6161,1.5788,1.5359,1.5005,1.4668,1.4505,1.4487,1.4456,1.4214,1.3901,1.3868,1.3615,1.3391,1.3242,1.322,1.3082,1.2849,1.2708,1.2449,1.2306,1.227,1.192,1.1726,1.1175,1.0117,0.8639,0.7401,0.6122,0.475,0.3199,0.1933,0.0962,0.0033,-0.0799,-0.1168,-0.1866,-0.2571,-0.31,-0.3623,-0.4247,-0.4954,-0.5937,-0.6765,-0.7402,-0.8839,-0.9828,-1.0407,-1.1287,-1.2235,-1.3306,-1.3894,-1.4192,-1.3874,-1.3841,-1.4114,-1.416,-1.4537,-1.4892,-1.488,-1.4864,-1.5025,-1.5127,-1.5048,-1.4934,-1.5241,-1.5542,-1.5212,-1.4791,-1.4985,-1.532,-1.5518,-1.5737,-1.6494,-1.7569,-1.8345,-1.8772,-1.9095,-1.908,-1.8968,-1.9006,-1.9369,-1.9493,-1.969,-1.969,-1.9705,-1.9705,-1.9705,-1.9705,-1.9705,-1.9889,-2.0035,-2.033,-2.0616,-2.0862,-2.1166,-2.1524,-2.1735,-2.1658,-2.1794,-2.2032,-2.218,-2.2254,-2.2327,-2.2327,-2.2327,-2.2327,-2.2327,-2.2327,1.8678,1.8469,1.8391,1.8191,1.7915,1.7625,1.7175,1.6638,1.648,1.6235,1.5816,1.5432,1.5168,1.4866,1.4613,1.4456,1.4278,1.4052,1.3868,1.3735,1.3669,1.3446,1.3446,1.3522,1.3433,1.3229,1.3079,1.2963,1.2779,1.2532,1.1768,1.062,0.9842,0.9159,0.8227,0.7126,0.4957,0.3152,0.2161,0.1128,0.0233,-0.0233,-0.0982,-0.156,-0.1956,-0.2443,-0.2816,-0.3565,-0.4342,-0.4747,-0.6607,-0.8201,-0.891,-0.9847,-1.0857,-1.178,-1.2483,-1.297,-1.3158,-1.2377,-1.2153,-1.2657,-1.2507,-1.3217,-1.3906,-1.4428,-1.4228,-1.4388,-1.4713,-1.4768,-1.4675,-1.4855,-1.518,-1.5077,-1.482,-1.5052,-1.5413,-1.5847,-1.6091,-1.672,-1.7786,-1.7946,-1.8418,-1.8703,-1.865,-1.8458,-1.8574,-1.9043,-1.9369,-1.9566,-1.969,-1.969,-1.9705,-1.9705,-1.9705,-1.9705,-1.9945,-2.0193,-2.0416,-2.0748,-2.115,-2.1477,-2.184,-2.1945,-2.1823,-2.1974,-2.2225,-2.2327,-2.2327,-2.2327,-2.2327,-2.2327,-2.2327,-2.2327,-2.2327,1.8914,1.8752,1.8642,1.8489,1.833,1.8061,1.771,1.7351,1.7085,1.6843,1.6606,1.6246,1.593,1.5721,1.5433,1.5181,1.4911,1.4613,1.4278,1.3888,1.4084,1.3835,1.3901,1.4117,1.4098,1.3934,1.3802,1.3689,1.3504,1.3086,1.2365,1.1502,1.1044,1.0334,0.9335,0.8018,0.6576,0.4873,0.349,0.2413,0.1553,0.0797,0.01,-0.0371,-0.0669,-0.0904,-0.1266,-0.213,-0.2751,-0.3531,-0.5757,-0.6633,-0.7536,-0.8799,-0.9924,-1.0658,-1.0708,-1.1319,-1.1644,-1.0718,-1.092,-1.1265,-1.1223,-1.1952,-1.2613,-1.3183,-1.3352,-1.3583,-1.4136,-1.4515,-1.4396,-1.4345,-1.461,-1.4858,-1.4998,-1.5127,-1.5593,-1.6124,-1.6617,-1.7112,-1.7394,-1.7454,-1.7724,-1.806,-1.8458,-1.8612,-1.8855,-1.9244,-1.9479,-1.9603,-1.969,-1.9705,-1.9705,-1.9705,-1.9705,-1.9726,-1.9945,-2.0158,-2.0348,-2.0715,-2.1306,-2.1538,-2.1615,-2.1781,-2.1928,-2.2077,-2.2225,-2.2282,-2.2327,-2.2327,-2.2327,-2.2327,-2.2327,-2.2327,-2.2327,1.9018,1.9001,1.8734,1.8642,1.8585,1.8351,1.8208,1.8166,1.7631,1.7368,1.7231,1.6993,1.6757,1.656,1.6309,1.5991,1.565,1.5256,1.4786,1.4071,1.4406,1.431,1.4181,1.4438,1.4662,1.4505,1.4383,1.4426,1.4194,1.3699,1.2964,1.2348,1.1339,1.0809,1.0625,0.9303,0.8147,0.7324,0.5374,0.3834,0.3026,0.2148,0.1303,0.0907,0.0627,0.0326,-0.0305,-0.1077,-0.1874,-0.3025,-0.4156,-0.4781,-0.6208,-0.7222,-0.8358,-0.8819,-0.8672,-0.9149,-0.9514,-0.8898,-0.9442,-1.0021,-1.0637,-1.0821,-1.1234,-1.2304,-1.277,-1.2851,-1.3324,-1.3778,-1.3766,-1.4397,-1.4849,-1.4905,-1.4965,-1.532,-1.5909,-1.637,-1.673,-1.717,-1.7301,-1.7317,-1.7317,-1.7706,-1.7827,-1.8419,-1.8855,-1.9207,-1.9406,-1.9479,-1.9639,-1.9675,-1.969,-1.969,-1.9705,-1.9762,-1.9945,-2.0124,-2.033,-2.0748,-2.1306,-2.1385,-2.1323,-2.1645,-2.1974,-2.2032,-2.2135,-2.2152,-2.218,-2.2327,-2.2327,-2.2327,-2.2327,-2.2327,-2.2327,1.9212,1.9214,1.8983,1.8914,1.8878,1.8622,1.8508,1.8469,1.8149,1.7849,1.7641,1.7344,1.7175,1.7126,1.6825,1.6549,1.6401,1.5849,1.5418,1.5108,1.5121,1.4909,1.4693,1.5286,1.5375,1.5213,1.514,1.5081,1.4457,1.3923,1.3637,1.3553,1.2675,1.2316,1.243,1.1089,0.9962,0.9496,0.7679,0.5547,0.4173,0.3635,0.2989,0.2446,0.2037,0.213,0.1544,0.0751,0.03,-0.0426,-0.2457,-0.3935,-0.5432,-0.5623,-0.5879,-0.6227,-0.6562,-0.6943,-0.7167,-0.7209,-0.764,-0.8254,-0.8781,-0.9136,-0.989,-1.1362,-1.2162,-1.2185,-1.2487,-1.2923,-1.3459,-1.4323,-1.5014,-1.4959,-1.4946,-1.557,-1.6145,-1.6464,-1.6811,-1.697,-1.7111,-1.7124,-1.7079,-1.7229,-1.7312,-1.7626,-1.8106,-1.8458,-1.8803,-1.9006,-1.9434,-1.9522,-1.9675,-1.969,-1.969,-1.9762,-1.9874,-2.0124,-2.0364,-2.0813,-2.1259,-2.1306,-2.1323,-2.1705,-2.2003,-2.2032,-2.2003,-2.1882,-2.1957,-2.2209,-2.2327,-2.2327,-2.2327,-2.2327,-2.2327,1.9286,1.9289,1.9182,1.9152,1.9084,1.8878,1.877,1.8716,1.8489,1.829,1.8121,1.7755,1.7526,1.7479,1.7175,1.7052,1.6935,1.6427,1.6056,1.5834,1.5821,1.565,1.5807,1.6102,1.613,1.6028,1.6165,1.5895,1.489,1.4734,1.4671,1.4427,1.3982,1.3619,1.3763,1.2444,1.1525,1.1374,0.9622,0.784,0.5839,0.5248,0.4538,0.3909,0.3774,0.3798,0.3361,0.265,0.2186,0.1425,-0.0279,-0.144,-0.2496,-0.2944,-0.3613,-0.418,-0.4622,-0.4867,-0.5207,-0.5434,-0.58,-0.6613,-0.7111,-0.751,-0.8198,-0.9537,-1.0664,-1.0885,-1.22,-1.2759,-1.3237,-1.4021,-1.4693,-1.4933,-1.5128,-1.5562,-1.5668,-1.5676,-1.5948,-1.6151,-1.6281,-1.6311,-1.6446,-1.705,-1.7175,-1.7422,-1.7787,-1.7973,-1.8288,-1.8482,-1.8948,-1.9295,-1.9376,-1.9603,-1.969,-1.9726,-1.9782,-2.007,-2.0364,-2.0398,-2.0599,-2.1023,-2.1354,-2.1538,-2.1764,-2.1974,-2.1899,-2.1823,-2.1957,-2.2237,-2.2282,-2.2327,-2.2327,-2.231,-2.2349,1.9286,1.9286,1.932,1.9305,1.9274,1.915,1.9069,1.9001,1.8753,1.8659,1.8566,1.8125,1.7944,1.7794,1.7625,1.7516,1.7335,1.7052,1.6719,1.659,1.6628,1.6331,1.6385,1.669,1.6827,1.6869,1.691,1.6428,1.5671,1.5528,1.5254,1.4979,1.4444,1.3797,1.3513,1.2732,1.1935,1.1929,1.1003,1.0029,0.8602,0.7187,0.6191,0.5691,0.5472,0.5255,0.4993,0.4555,0.4008,0.3052,0.1893,0.0841,0.0212,-0.0388,-0.1346,-0.2043,-0.2454,-0.3156,-0.381,-0.3738,-0.447,-0.5198,-0.5574,-0.6026,-0.6687,-0.7623,-0.8723,-0.9855,-1.1194,-1.2383,-1.2864,-1.3482,-1.4146,-1.478,-1.5085,-1.5274,-1.5085,-1.4954,-1.5163,-1.5394,-1.5463,-1.5511,-1.5884,-1.6532,-1.6828,-1.7079,-1.7409,-1.7693,-1.788,-1.7999,-1.8246,-1.8631,-1.8887,-1.9155,-1.9566,-1.9726,-1.9747,-1.9839,-2.007,-1.996,-2.0015,-2.0731,-2.1118,-2.1118,-2.1354,-2.1645,-2.1899,-2.1928,-2.2106,-2.2265,-2.2282,-2.2327,-2.2327,-2.2338,-2.2415,1.9286,1.9323,1.9471,1.9456,1.9335,1.9409,1.9398,1.9212,1.9035,1.8914,1.8843,1.8623,1.845,1.845,1.8393,1.8275,1.8052,1.7732,1.7574,1.7449,1.7174,1.6885,1.6919,1.7325,1.7659,1.7653,1.7313,1.6528,1.6287,1.5965,1.535,1.4623,1.5404,1.4978,1.4476,1.3752,1.3281,1.3009,1.2389,1.149,1.102,0.956,0.7963,0.7415,0.7113,0.7277,0.7196,0.652,0.5971,0.5095,0.4041,0.3057,0.2502,0.2119,0.1221,0.0219,-0.0221,-0.1104,-0.1632,-0.2081,-0.2906,-0.3698,-0.4024,-0.4232,-0.4983,-0.58,-0.6816,-0.7701,-0.914,-1.1012,-1.1787,-1.2493,-1.3229,-1.3907,-1.4361,-1.4373,-1.4302,-1.4443,-1.4682,-1.4786,-1.4822,-1.4869,-1.496,-1.5353,-1.5443,-1.5784,-1.6348,-1.6579,-1.6789,-1.7122,-1.7531,-1.788,-1.8235,-1.8977,-1.9479,-1.9654,-1.9726,-1.9818,-1.9909,-1.9945,-2.0208,-2.0698,-2.0991,-2.0894,-2.1055,-2.1337,-2.1568,-2.1945,-2.2077,-2.2209,-2.2282,-2.2327,-2.231,-2.246,-2.2624]}]]